[[{"header":{"parameterUnit":"m.s-1","parameterCategory":1,"la1":30.6,"la2":29.2853,"lo1":-89.7004,"lo2":-87.6739,"dy":0.0162,"dx":0.0183,"nx":112,"ny":82,"refTime":"2025-03-16T06:00:00:Z","depth":0,"parameterNumber":2,"parameterNumberName":"U-component_of_WINDS"},"data":[0.0,0.0,0.0,0.0,0.0,0.0,0.0,0.0,0.0,0.0,0.0,0.0,0.0,0.0,0.0,0.0,0.0,0.0,0.0,0.0,0.0,0.0,0.0,0.0,0.0,0.0,0.0,0.0,0.0,0.0,0.0,0.0,0.0,0.0,0.0,0.0,0.0,0.0,0.0,0.0,0.0,0.0,0.0,0.0,0.0,0.0,0.0,0.0,0.0,0.0,0.0,0.0,0.0,0.0,0.0,0.0,0.0,0.0,0.0,0.0,0.0,0.0,0.0,0.0,0.0,0.0,0.0,0.0,0.0,0.0,0.0,0.0,0.0,0.0,0.0,0.0,0.0,0.0,0.0,0.0,0.0,0.0,0.0,0.0,0.0,0.0,0.0,0.0,0.0,0.0,1.7464,1.7601,1.7096,1.6306,1.5377,1.4307,1.3215,1.1777,0.0,0.0,0.0,0.0,0.0,0.0,0.0,0.0,0.0,0.0,0.0,0.0,0.0,0.0,0.0,0.0,0.0,0.0,0.0,0.0,0.0,0.0,0.0,0.0,0.0,0.0,0.0,0.0,0.0,0.0,0.0,0.0,0.0,0.0,0.0,0.0,0.0,0.0,0.0,0.0,0.0,0.0,0.0,0.0,0.0,0.0,0.0,0.0,0.0,0.0,0.0,0.0,0.0,0.0,0.0,0.0,0.0,0.0,0.0,0.0,0.0,0.0,0.0,0.0,0.0,0.0,0.0,0.0,0.0,0.0,0.0,0.0,0.0,0.0,0.0,0.0,0.0,0.0,0.0,0.0,0.0,0.0,0.0,0.0,0.0,0.0,0.0,0.0,0.0,0.0,0.0,0.0,0.0,0.0,0.0,0.0,0.0,0.0,0.0,0.0,0.0,0.0,0.0,0.0,1.6966,1.6519,1.6063,1.5475,1.4836,1.3771,1.267,1.1736,0.0,0.0,0.0,0.0,0.0,0.0,0.0,0.0,0.0,0.0,0.0,0.0,0.0,0.0,0.0,0.0,0.0,0.0,0.0,0.0,0.0,0.0,0.0,0.0,0.0,0.0,0.0,0.0,0.0,0.0,0.0,0.0,0.0,0.0,0.0,0.0,0.0,0.0,0.0,0.0,0.0,0.0,0.0,0.0,0.0,0.0,0.0,0.0,0.0,0.0,0.0,0.0,0.0,0.0,0.0,0.0,0.0,0.0,0.0,0.0,0.0,0.0,0.0,0.0,0.0,0.0,0.0,0.0,0.0,0.0,0.0,0.0,0.0,0.0,0.0,0.0,0.0,0.0,0.0,0.0,0.0,0.0,0.0,0.0,0.0,0.0,0.0,0.0,0.0,0.0,0.0,0.0,0.0,0.0,0.0,0.0,0.0,0.0,0.0,0.0,0.0,0.0,0.0,1.7158,1.6823,1.6566,1.5653,1.4928,1.4351,1.3095,1.1896,1.0926,1.0578,0.0,0.0,0.0,0.0,0.0,0.0,0.0,0.0,0.0,0.0,0.0,0.0,0.0,0.0,0.0,0.0,0.0,0.0,0.0,0.0,0.0,0.0,0.0,0.0,0.0,0.0,0.0,0.0,0.0,0.0,0.0,0.0,0.0,0.0,0.0,0.0,0.0,0.0,0.0,0.0,0.0,0.0,0.0,0.0,0.0,0.0,0.0,0.0,0.0,0.0,0.0,0.0,0.0,0.0,0.0,0.0,0.0,0.0,0.0,0.0,0.0,0.0,0.0,0.0,0.0,0.0,0.0,0.0,0.0,0.0,0.0,0.0,0.0,0.0,0.0,0.0,0.0,0.0,0.0,0.0,0.0,0.0,0.0,0.0,0.0,0.0,0.0,0.0,0.0,0.0,0.0,0.0,0.0,0.0,0.0,0.0,0.0,0.0,0.0,0.0,0.0,0.0,1.7171,1.6886,1.6888,1.5663,1.4714,1.3968,1.2632,1.1325,1.0345,0.9729,0.0,0.0,0.0,0.0,0.0,0.0,0.0,0.0,0.0,0.0,0.0,0.0,0.0,0.0,0.0,0.0,0.0,0.0,0.0,0.0,0.0,0.0,0.0,0.0,0.0,0.0,0.0,0.0,0.0,0.0,0.0,0.0,0.0,0.0,0.0,0.0,0.0,0.0,0.0,0.0,0.0,0.0,0.0,0.0,0.0,0.0,0.0,0.0,0.0,0.0,0.0,0.0,0.0,0.0,0.0,0.0,0.0,0.0,0.0,0.0,0.0,0.0,0.0,0.0,0.0,0.0,0.0,0.0,0.0,0.0,0.0,0.0,0.0,0.0,0.0,0.0,0.0,0.0,0.0,0.0,0.0,0.0,0.0,0.0,0.0,0.0,0.0,0.0,0.0,0.0,0.0,0.0,0.0,0.0,0.0,0.0,0.0,0.0,0.0,0.0,0.0,0.0,1.7781,1.7506,1.7256,1.5905,1.4808,1.395,1.2391,1.1202,1.033,0.9729,0.0,0.0,0.0,0.0,0.0,0.0,0.0,0.0,0.0,0.0,0.0,0.0,0.0,0.0,0.0,0.0,0.0,0.0,0.0,0.0,0.0,0.0,0.0,0.0,0.0,0.0,0.0,0.0,0.0,0.0,0.0,0.0,0.0,0.0,0.0,0.0,0.0,0.0,0.0,0.0,0.0,0.0,0.0,0.0,0.0,0.0,0.0,0.0,0.0,0.0,0.0,0.0,0.0,0.0,0.0,0.0,0.0,0.0,0.0,0.0,0.0,0.0,0.0,0.0,0.0,0.0,0.0,0.0,0.0,0.0,0.0,0.0,0.0,0.0,0.0,0.0,0.0,0.0,0.0,0.0,0.0,0.0,0.0,0.0,0.0,0.0,0.0,0.0,0.0,0.0,0.0,0.0,0.0,0.0,0.0,0.0,0.0,0.0,0.0,0.0,0.0,0.0,1.7528,1.7326,1.7085,1.5977,1.4788,1.3699,1.2383,1.1073,1.0106,0.0,0.0,0.0,0.0,0.0,0.0,0.0,0.0,0.0,0.0,0.0,0.0,0.0,0.0,0.0,0.0,0.0,0.0,0.0,0.0,0.0,0.0,0.0,0.0,0.0,0.0,0.0,0.0,0.0,0.0,0.0,0.0,0.0,0.0,0.0,0.0,0.0,0.0,0.0,0.0,0.0,0.0,0.0,0.0,0.0,0.0,0.0,0.0,0.0,0.0,0.0,0.0,0.0,0.0,0.0,0.0,0.0,0.0,0.0,0.0,0.0,0.0,0.0,0.0,0.0,0.0,0.0,0.0,0.0,0.0,0.0,0.0,0.0,0.0,0.0,0.0,0.0,0.0,0.0,0.0,0.0,0.0,0.0,0.0,0.0,0.0,0.0,0.0,0.0,0.0,0.0,0.0,0.0,0.0,0.0,0.0,0.0,0.0,0.0,0.0,0.0,0.0,1.7406,1.7225,1.6985,1.6818,1.5633,1.4407,1.3321,1.2134,1.0951,0.999,0.0,0.0,0.0,0.0,0.0,0.0,0.0,0.0,0.0,0.0,0.0,0.0,0.0,0.0,0.0,0.0,0.0,0.0,0.0,0.0,0.0,0.0,0.0,0.0,0.0,0.0,0.0,0.0,0.0,0.0,0.0,0.0,0.0,0.0,0.0,0.0,0.0,0.0,0.0,0.0,0.0,0.0,0.0,0.0,0.0,0.0,0.0,0.0,0.0,0.0,0.0,0.0,0.0,0.0,0.0,0.0,0.0,0.0,0.0,0.0,0.0,0.0,0.0,0.0,0.0,0.0,0.0,0.0,0.0,0.0,0.0,0.0,0.0,0.0,0.0,0.0,0.0,0.0,0.0,0.0,0.0,0.0,0.0,0.0,0.0,0.0,0.0,0.0,0.0,0.0,0.0,0.0,0.0,0.0,0.0,0.0,0.0,0.0,0.0,0.0,0.0,0.0,1.7406,1.6971,1.6599,1.6431,1.4981,1.3761,1.2943,1.1752,1.0708,0.0,0.0,0.0,0.0,0.0,0.0,0.0,0.0,0.0,0.0,0.0,0.0,0.0,0.0,0.0,0.0,0.0,0.0,0.0,0.0,0.0,0.0,0.0,0.0,0.0,0.0,0.0,0.0,0.0,0.0,0.0,0.0,0.0,0.0,0.0,0.0,0.0,0.0,0.0,0.0,0.0,0.0,0.0,0.0,0.0,0.0,0.0,0.0,0.0,0.0,0.0,0.0,0.0,0.0,0.0,0.0,0.0,0.0,0.0,0.0,0.0,0.0,0.0,0.0,0.0,0.0,0.0,0.0,0.0,0.0,0.0,0.0,0.0,0.0,0.0,0.0,0.0,0.0,0.0,0.0,0.0,0.0,0.0,0.0,0.0,0.0,0.0,0.0,0.0,0.0,0.0,0.0,0.0,0.0,0.0,0.0,0.0,0.0,0.0,0.0,0.0,0.0,0.0,1.5011,1.5003,1.4818,1.4344,1.357,1.2797,1.2106,1.1203,1.0393,0.9683,0.0,0.0,0.0,0.0,0.0,0.0,0.0,0.0,0.0,0.0,0.0,0.0,0.0,0.0,0.0,0.0,0.0,0.0,0.0,0.0,0.0,0.0,0.0,0.0,0.0,0.0,0.0,0.0,0.0,0.0,0.0,0.0,0.0,0.0,0.0,0.0,0.0,0.0,0.0,0.0,0.0,0.0,0.0,0.0,0.0,0.0,0.0,0.0,0.0,0.0,0.0,0.0,0.0,0.0,0.0,0.0,0.0,0.0,0.0,0.0,0.0,0.0,0.0,0.0,0.0,0.0,0.0,0.0,0.0,0.0,0.0,0.0,0.0,0.0,0.0,0.0,0.0,0.0,0.0,0.0,0.0,0.0,0.0,0.0,0.0,0.0,0.0,0.0,0.0,0.0,0.0,0.0,0.0,0.0,0.0,0.0,0.0,0.0,0.0,0.0,0.0,0.0,1.3718,1.3655,1.3436,1.2914,1.2342,1.1858,1.1401,1.0785,1.0239,0.9632,0.0,0.0,0.0,0.0,0.0,0.0,0.0,0.0,0.0,0.0,0.0,0.0,0.0,0.0,0.0,0.0,0.0,0.0,0.0,0.0,0.0,0.0,0.0,0.0,0.0,0.0,0.0,0.0,0.0,0.0,0.0,0.0,0.0,0.0,0.0,0.0,0.0,0.0,0.0,0.0,0.0,0.0,0.0,0.0,0.0,0.0,0.0,0.0,0.0,0.0,0.0,0.0,0.0,0.0,0.0,0.0,0.0,0.0,0.0,0.0,0.0,0.0,0.0,0.0,0.0,0.0,0.0,0.0,0.0,0.0,0.0,0.0,0.0,0.0,0.0,0.0,0.0,0.0,0.0,0.0,0.0,0.0,0.0,0.0,0.0,0.0,0.0,0.0,0.0,0.0,0.0,0.0,0.0,0.0,0.0,0.0,0.0,0.0,0.0,0.0,0.0,0.0,1.3021,1.2687,1.2426,1.2142,1.1512,1.1059,1.1041,1.05,1.01,0.968,0.0,0.0,0.0,0.0,0.0,0.0,0.0,0.0,0.0,0.0,0.0,0.0,0.0,0.0,0.0,0.0,0.0,0.0,0.0,0.0,0.0,0.0,0.0,0.0,0.0,0.0,0.0,0.0,0.0,0.0,0.0,0.0,0.0,0.0,0.0,0.0,0.0,0.0,0.0,0.0,0.0,0.0,0.0,0.0,0.0,0.0,0.0,0.0,0.0,0.0,0.0,0.0,0.0,0.0,0.0,0.0,0.0,0.0,0.0,0.0,2.5186,0.0,0.0,0.0,0.0,0.0,0.0,0.0,0.0,0.0,0.0,0.0,0.0,0.0,0.0,0.0,0.0,0.0,0.0,0.0,0.0,0.0,0.0,0.0,0.0,0.0,0.0,0.0,0.0,0.0,0.0,0.0,0.0,0.0,0.0,0.0,0.0,0.0,0.0,0.0,0.0,0.0,1.1207,1.12,1.1155,1.1087,1.085,1.0836,1.0809,1.0432,1.0188,0.9971,0.9449,0.0,0.0,0.0,0.0,0.0,0.0,0.0,0.0,0.0,0.0,0.0,0.0,0.0,0.0,0.0,0.0,0.0,0.0,0.0,0.0,0.0,0.0,0.0,0.0,0.0,0.0,0.0,0.0,0.0,0.0,0.0,0.0,0.0,0.0,0.0,0.0,0.0,0.0,0.0,0.0,0.0,0.0,0.0,0.0,0.0,0.0,0.0,0.0,0.0,0.0,0.0,0.0,0.0,0.0,0.0,0.0,0.0,0.0,0.0,0.0,2.4067,0.0,0.0,0.0,0.0,0.0,0.0,0.0,0.0,0.0,0.0,0.0,0.0,0.0,0.0,0.0,0.0,0.0,0.0,0.0,0.0,0.0,0.0,0.0,0.0,0.0,0.0,0.0,0.0,0.0,0.0,0.0,0.0,0.0,0.0,0.0,0.0,0.0,0.0,0.0,0.0,0.9869,0.9803,0.9812,0.9763,0.9655,0.9655,0.9655,0.9602,0.9525,0.9312,0.9142,0.0,0.0,0.0,0.0,0.0,0.0,0.0,0.0,0.0,0.0,0.0,0.0,0.0,0.0,0.0,0.0,0.0,0.0,0.0,0.0,0.0,0.0,0.0,0.0,0.0,0.0,0.0,0.0,0.0,0.0,0.0,0.0,0.0,0.0,0.0,0.0,0.0,0.0,0.0,0.0,0.0,0.0,0.0,0.0,0.0,0.0,0.0,0.0,0.0,0.0,0.0,0.0,0.0,2.4862,2.4858,2.4789,2.4436,2.4327,2.4299,2.4137,2.3648,2.3215,2.2312,0.0,0.0,0.0,0.0,0.0,0.0,0.0,0.0,0.0,0.0,0.0,0.0,0.0,0.0,0.0,0.0,0.0,0.0,0.0,0.0,0.0,0.0,1.2049,1.2012,1.1672,1.1347,1.159,0.0,0.0,0.0,0.0,0.0,0.0,0.0,0.0,0.0,0.0,0.0,0.8664,0.8537,0.8486,0.8499,0.8494,0.8483,0.8483,0.8492,0.8582,0.8374,0.8599,0.8648,0.0,0.0,0.0,0.0,0.0,0.0,0.0,0.0,0.0,0.0,0.0,0.0,0.0,0.0,0.0,0.0,0.0,0.0,0.0,0.0,0.0,0.0,0.0,0.0,0.0,0.0,0.0,0.0,0.0,0.0,0.0,0.0,3.5874,3.5528,0.0,0.0,0.0,0.0,0.0,0.0,0.0,0.0,0.0,0.0,0.0,0.0,0.0,2.7369,2.6478,2.5798,2.5519,2.5394,2.4974,2.4561,2.4355,2.4331,2.4165,2.4152,2.3958,0.0,2.2485,2.1789,0.0,0.0,0.0,0.0,0.0,0.0,0.0,0.0,0.0,0.0,0.0,0.0,0.0,0.0,0.0,0.0,0.0,0.0,0.0,0.0,0.0,0.0,1.1279,1.1459,1.1136,1.0788,1.1017,1.0742,1.0434,1.0162,0.9662,0.9208,0.0,0.0,0.0,0.0,0.0,0.0,0.7399,0.7495,0.7704,0.7769,0.7707,0.7791,0.7791,0.7602,0.7606,0.7842,0.7661,0.758,0.7895,0.7475,0.0,0.0,0.0,0.0,0.0,0.0,0.0,0.0,0.0,0.0,0.0,0.0,0.0,0.0,0.0,0.0,0.0,0.0,0.0,0.0,0.0,0.0,0.0,0.0,0.0,0.0,0.0,0.0,0.0,3.5989,3.5826,3.5883,3.5145,3.439,0.0,0.0,0.0,0.0,0.0,0.0,0.0,0.0,0.0,2.7372,2.7102,2.6544,2.5682,2.5408,2.5202,2.5222,2.5065,2.5012,2.4905,2.4877,2.4794,2.4631,2.4499,2.3542,2.2112,2.1344,2.034,1.9287,0.0,0.0,0.0,0.0,1.512,1.4865,1.4432,1.4066,1.3914,1.3403,0.0,0.0,0.0,0.0,0.0,0.0,0.0,1.1012,1.0582,1.0352,1.009,0.9942,0.9793,0.9763,0.9823,0.9606,0.9552,0.9804,0.9233,0.8582,0.8149,0.7359,0.0,0.0,0.0,0.6084,0.6173,0.6357,0.6356,0.6573,0.6545,0.6383,0.6383,0.5899,0.5683,0.5859,0.6402,0.6651,0.6735,0.6501,0.6299,0.0,0.0,0.0,0.0,0.0,0.0,0.0,0.0,0.0,0.0,0.0,0.0,0.0,0.0,0.0,0.0,0.0,0.0,0.0,0.0,0.0,0.0,0.0,0.0,0.0,0.0,0.0,0.0,3.6182,3.599,3.6409,3.5327,3.4284,0.0,0.0,0.0,0.0,0.0,0.0,2.8105,2.7401,2.6881,2.6858,2.656,2.6084,2.5432,2.5432,2.535,2.5197,2.5264,2.5384,2.5518,2.5585,2.5471,2.4996,2.4777,2.3728,2.2142,2.1112,1.9979,1.8552,1.6609,1.5468,1.4862,1.4319,1.393,1.3694,1.3555,1.3316,1.3045,1.2689,1.2527,1.235,1.1972,0.0,0.0,0.0,0.0,1.0009,0.9496,0.9198,0.8997,0.8749,0.876,0.876,0.876,0.8454,0.8591,0.9228,0.858,0.7759,0.724,0.6404,0.0,0.5459,0.5097,0.472,0.4603,0.4722,0.4797,0.4814,0.48,0.465,0.4648,0.407,0.3887,0.408,0.4989,0.5562,0.5646,0.5621,0.5452,0.5031,0.0,0.0,0.0,0.0,0.0,0.0,0.0,0.0,0.0,0.0,0.0,0.0,0.0,0.0,0.0,0.0,0.0,0.0,0.0,0.0,0.0,0.0,0.0,0.0,0.0,0.0,0.0,0.0,0.0,3.7278,3.6595,0.0,0.0,0.0,0.0,2.9377,2.8501,2.7774,2.7366,2.7244,2.7072,2.6908,2.6936,2.6643,2.6047,2.5892,2.5758,2.5491,2.5772,2.5772,2.5518,2.5798,2.5777,2.5283,2.4547,2.363,2.2694,2.1136,1.9043,1.6727,1.5641,1.4593,1.3721,1.3436,1.3403,1.3398,1.267,1.2479,1.2557,1.1825,1.1434,1.0941,1.0921,1.0538,0.0,0.0,0.929,0.8676,0.8625,0.8257,0.7998,0.8102,0.8126,0.8126,0.8126,0.7473,0.7204,0.7961,0.756,0.6762,0.619,0.0,0.493,0.4494,0.4169,0.3472,0.2365,0.2264,0.2439,0.2471,0.2446,0.2428,0.2428,0.24,0.2661,0.3357,0.3411,0.4031,0.5372,0.5217,0.4803,0.3929,0.3703,0.0,0.0,0.0,0.0,0.0,0.0,0.0,0.0,0.0,0.0,0.0,0.0,0.0,0.0,0.0,0.0,0.0,0.0,0.0,0.0,0.0,0.0,0.0,0.0,0.0,0.0,0.0,0.0,3.8509,3.7446,0.0,3.5271,3.3242,3.1329,2.9864,2.8502,2.762,2.7278,2.7134,2.701,2.727,2.7122,2.7069,2.68,2.6613,2.6453,2.636,2.6266,2.6172,2.6079,2.6186,2.5924,2.5123,2.4377,2.2952,2.1253,1.9421,1.7981,1.6551,1.5018,1.3808,1.2927,1.2633,1.2522,1.2571,1.2275,1.231,1.2175,1.1823,1.1586,1.1362,1.126,1.0849,1.0353,0.9932,0.8992,0.8188,0.806,0.7373,0.6805,0.6692,0.6555,0.6555,0.6555,0.6387,0.6058,0.5998,0.5983,0.5975,0.5379,0.4781,0.41,0.2952,0.2721,0.2492,0.2125,0.1293,0.0726,0.0875,0.0872,0.0869,0.0869,0.0866,0.0857,0.1123,0.1668,0.2193,0.2559,0.2982,0.316,0.2753,0.2282,0.1853,0.0,0.0,0.0,0.0,0.0,0.0,0.0,0.0,0.0,0.0,0.0,0.0,0.0,0.0,0.0,0.0,0.0,0.0,0.0,0.0,0.0,0.0,0.0,0.0,0.0,0.0,3.8735,3.9586,3.8517,3.7312,3.6337,3.4138,3.2046,3.0325,2.905,2.808,2.7743,2.7485,2.7402,2.7709,2.7615,2.7509,2.7415,2.7215,2.7014,2.6814,2.6627,2.648,2.6386,2.6386,2.5911,2.497,2.4148,2.2533,2.0434,1.8503,1.7199,1.613,1.4507,1.329,1.2581,1.2381,1.221,1.221,1.221,1.2182,1.2121,1.202,1.1891,1.1748,1.1647,1.1226,1.0561,0.9792,0.8637,0.7482,0.7268,0.641,0.5683,0.525,0.525,0.525,0.5104,0.4959,0.4668,0.408,0.4695,0.5014,0.4177,0.3719,0.3154,0.2226,0.1685,0.142,0.1438,0.0581,-0.0,-0.0,-0.0,-0.0,-0.0,-0.0,-0.0,-0.0,0.056,0.0829,0.0678,0.1187,0.1419,0.1399,0.1106,0.0946,0.0905,0.0,0.0,0.0,0.0,0.0,0.0,0.0,0.0,0.0,0.0,0.0,0.0,0.0,0.0,0.0,0.0,0.0,0.0,0.0,0.0,0.0,0.0,0.0,3.7701,3.8584,3.9445,4.0432,3.9783,3.8627,3.7392,3.5308,3.3148,3.1013,3.0012,2.9312,2.8604,2.8337,2.831,2.8591,2.831,2.8016,2.7722,2.7709,2.7415,2.6854,2.6841,2.668,2.64,2.64,2.5924,2.497,2.4148,2.2533,2.0444,1.8654,1.6914,1.5093,1.3814,1.3054,1.2712,1.2562,1.2508,1.2501,1.2501,1.2413,1.2298,1.2291,1.2189,1.2067,1.206,1.1514,1.0522,0.9787,0.8382,0.6853,0.5977,0.5253,0.467,0.4231,0.4085,0.4085,0.3944,0.3358,0.2919,0.2334,0.3612,0.4152,0.2575,0.2266,0.2117,0.2145,0.086,0.0,-0.0,-0.0,-0.0,-0.0,-0.0,-0.0,-0.0,-0.0,-0.0,-0.0,-0.0,-0.0,-0.0,-0.0,-0.0,-0.0,0.0618,0.0833,0.0922,0.0,0.0,0.0,0.0,0.0,0.0,0.0,0.0,0.0,0.0,0.0,0.0,0.0,0.0,0.0,0.0,0.0,0.0,0.0,0.0,0.0,3.5438,3.629,3.7351,3.8229,3.8929,3.9857,3.9159,3.8035,3.6822,3.4909,3.303,3.1193,3.0167,2.9335,2.8911,2.8845,2.8738,2.8604,2.8524,2.8337,2.803,2.7802,2.7615,2.7455,2.7241,2.6987,2.6707,2.6707,2.6108,2.497,2.3828,2.2039,1.9937,1.7828,1.6172,1.4788,1.3937,1.3241,1.2725,1.2684,1.2596,1.2501,1.2501,1.2474,1.2427,1.2325,1.2264,1.2203,1.2094,1.1735,1.1108,1.0363,0.9138,0.7774,0.6582,0.5537,0.4943,0.5397,0.4646,0.3594,0.2995,0.2232,0.1774,0.222,0.2636,0.2758,0.2323,0.1302,0.0578,0.0581,0.029,-0.0,-0.0,-0.0,-0.0,-0.0,-0.0,-0.0,-0.0,-0.0,-0.0,-0.0,-0.0,-0.0,-0.0,-0.0,-0.0,-0.0,0.0126,0.0249,0.0,0.0,0.0,0.0,0.0,0.0,0.0,0.0,0.0,0.0,0.0,0.0,0.0,0.0,0.0,0.0,0.0,0.0,0.0,0.0,0.0,0.0,3.4142,3.4818,3.5451,3.7203,3.8545,3.8825,3.8373,3.7453,3.5929,3.4392,3.2857,3.1322,3.0447,2.992,2.9406,2.9299,2.9085,2.8804,2.8671,2.8457,2.815,2.7976,2.7816,2.7696,2.7522,2.7295,2.7001,2.7001,2.637,2.5308,2.417,2.2301,1.9775,1.7828,1.6032,1.4698,0.0,0.0,0.0,0.0,1.263,1.2501,1.2501,1.2501,1.2488,1.2406,1.2379,1.2366,1.2271,1.1901,1.1403,1.0793,0.9849,0.875,0.7853,0.6947,0.6499,0.6657,0.5899,0.499,0.378,0.2707,0.2246,0.2847,0.2682,0.0,0.2373,0.1029,-0.0,-0.0,-0.0,-0.0,-0.0,-0.0,-0.0,-0.0,-0.0,-0.0,-0.0,-0.0,0.0,0.0,0.0,-0.0,-0.0,-0.0,0.0,0.0,0.0,0.0,0.0,0.0,0.0,0.0,0.1564,0.2295,0.0,0.0,0.0,0.0,0.0,0.0,0.0,0.0,0.0,0.0,0.0,0.0,0.0,0.0,0.0,0.0,3.2467,3.2716,3.2996,3.5869,3.7669,3.7251,3.7213,3.6378,3.4638,3.3777,3.2543,3.1315,3.0794,3.0272,2.9913,0.0,0.0,0.0,0.0,2.8511,2.8203,2.8163,2.8003,2.7749,2.7749,2.7589,2.7321,2.7321,2.6672,2.56,2.4588,2.2622,1.9805,1.7992,1.6188,1.4533,1.3554,1.3173,1.3139,1.2861,1.2671,1.2549,1.2535,0.0,0.0,1.2508,1.2501,1.2501,1.2501,1.2106,1.1702,1.1231,1.0539,0.9849,0.9397,0.9091,0.8639,0.7889,0.7587,0.7133,0.5616,0.4548,0.3786,0.379,0.3334,0.2878,0.2878,0.1487,0.0293,0.0293,0.0293,0.0293,0.0292,0.0146,0.0146,0.0146,0.0146,0.0,0.0146,0.0144,0.0142,-0.0,-0.0,-0.0,-0.0,-0.0,-0.0,-0.0,-0.0,-0.0,-0.0,-0.0,-0.0,-0.0,0.0515,0.0763,0.0,0.0,0.0,0.0,0.0,0.0,0.0,0.0,0.0,0.0,0.0,0.0,0.0,0.0,0.0,3.2068,3.2401,3.2791,3.3058,3.3873,3.457,3.4781,3.4432,3.3937,3.3249,3.2203,3.1493,3.0794,3.0272,2.9913,2.9913,2.986,2.97,2.9406,2.9112,2.8818,2.8524,2.827,2.811,2.8056,0.0,0.0,2.7615,2.7615,2.6961,2.5867,2.4311,2.2386,2.0035,1.7736,1.5538,1.3549,1.3398,1.3173,1.3152,1.2983,1.2895,1.2854,1.2732,1.2684,1.2664,1.2542,1.2501,1.2501,1.2501,1.2481,0.0,1.1837,1.1664,1.1337,1.0566,1.0257,1.0103,0.964,0.9171,0.8707,0.7778,0.7099,0.6284,0.5063,0.4568,0.4691,0.5455,0.3621,0.1955,0.1955,0.1955,0.1947,0.1927,0.1333,0.1033,0.1022,0.1021,0.1022,0.1022,0.1009,0.0715,-0.0,-0.0,-0.0,-0.0,-0.0,-0.0,-0.0,-0.0,-0.0,-0.0,-0.0,-0.0,-0.0,0.0135,0.0134,0.0,0.0,0.0,0.0,0.0,0.0,0.0,0.0,0.0,0.0,0.0,3.1335,3.1512,0.0,3.1034,3.145,3.1841,3.2084,3.2211,3.2195,3.2676,3.3455,3.3249,3.2612,3.1911,3.1235,3.0794,3.0258,3.0093,2.9913,2.9913,2.9913,2.978,2.9499,2.9339,2.9045,2.8604,2.8457,2.8297,2.8136,2.8136,2.807,2.7923,2.7923,2.7263,2.6147,2.4528,2.2531,2.0106,1.6931,1.4721,1.3397,1.3315,1.3241,1.3166,1.3091,1.3024,1.2949,1.2874,1.2847,1.282,1.2664,1.2617,1.2603,1.2522,1.2501,1.2501,1.2192,1.2192,1.2037,1.1727,1.1572,1.1417,1.1107,1.0791,1.048,0.9547,0.9036,0.8379,0.7448,0.7107,0.708,0.7548,0.6466,0.5367,0.4553,0.4394,0.4384,0.4357,0.3902,0.3291,0.2528,0.2378,0.2372,0.2358,0.2315,0.2003,0.1144,0.113,0.0982,0.0561,0.0561,0.0421,-0.0,-0.0,-0.0,-0.0,-0.0,-0.0,-0.0,-0.0,-0.0,0.0,0.0,0.0,0.0,0.0,0.0,0.0,0.0,3.0141,3.0281,3.0614,3.0864,3.0573,3.0727,3.0873,3.1008,3.1403,3.1516,3.1436,3.1476,3.1745,3.2561,3.2324,3.1847,3.1081,3.0668,3.0326,2.9913,2.9913,2.9913,2.9913,2.9913,2.9806,2.9579,2.9513,2.9259,2.8778,2.8671,2.8484,2.823,2.8177,2.8136,2.8136,2.8136,2.7512,2.644,2.4413,2.2113,1.9376,1.6246,1.439,1.3569,1.3403,1.3322,1.3214,1.3214,1.3146,1.3044,1.301,1.3003,1.2976,1.2827,1.2752,1.2705,1.2583,1.2522,1.2501,1.2501,1.2501,1.2501,1.2501,1.2501,1.2347,1.2037,1.2037,1.1727,1.0952,1.0641,1.0175,0.9703,0.9387,0.908,0.908,0.908,0.8562,0.7037,0.6713,0.6705,0.6842,0.6535,0.5919,0.4537,0.4235,0.407,0.4031,0.3807,0.3467,0.2737,0.2852,0.2692,0.212,0.1838,0.1272,0.0706,0.0565,0.0424,0.0424,0.0429,0.0431,0.0431,0.0436,0.0289,2.7442,2.7458,2.7297,2.7757,2.803,2.8372,0.0,0.0,2.959,2.8828,2.9119,2.9257,2.9028,2.9677,3.0241,3.0857,3.158,3.2051,3.2358,3.2398,3.2291,3.2176,3.1423,3.0818,3.0563,3.0509,3.0207,2.994,2.9913,2.9913,2.9913,2.9913,2.99,2.9873,2.9619,2.9446,2.9379,2.8871,2.8591,2.8551,2.827,2.8136,2.8136,2.8136,2.7617,2.655,2.3157,2.0196,1.7527,1.604,1.4886,1.3901,1.3569,1.339,1.3376,1.3376,1.3363,1.3336,1.3193,1.3152,1.3125,1.2983,1.284,1.2725,1.2712,1.261,1.2501,1.2501,1.2501,1.2501,1.2501,1.2501,1.2501,1.2501,1.2501,1.2347,1.1882,1.1727,1.1417,1.0641,1.0486,1.033,0.9864,0.9864,0.9542,0.8585,0.858,0.8548,0.8454,0.7829,0.7181,0.6951,0.6344,0.5892,0.5886,0.5118,0.4638,0.4435,0.5023,0.544,0.5232,0.3919,0.3192,0.3045,0.2467,0.2033,0.2033,0.2035,0.2037,0.2037,0.204,0.1311,2.7802,2.7736,2.7843,0.0,2.8654,2.9071,2.9132,2.9296,2.9209,2.8382,2.8285,2.8193,2.827,2.8796,2.9579,0.0,3.1438,3.226,3.2392,3.2456,3.2505,3.2372,3.173,3.1116,3.0662,3.0461,3.0234,2.994,2.9913,2.9913,2.9913,2.9913,2.9913,2.9913,2.9793,2.9659,2.9486,2.9245,2.8951,2.8604,2.847,2.8323,2.8136,2.8136,2.7369,2.5674,2.3268,2.0589,1.7835,1.6402,1.5051,1.4066,1.3569,1.3403,1.3403,1.3403,1.3403,1.339,1.3329,1.3308,1.3281,1.3132,1.3037,1.2969,1.2888,1.282,1.2766,1.2766,1.2766,1.2766,1.2766,1.2766,1.2766,1.2766,1.2766,1.2766,1.2608,1.2608,1.245,1.2134,1.1975,1.1975,1.1817,1.1817,1.1659,1.1336,1.0263,0.9532,0.9485,0.9166,0.8837,0.8636,0.7968,0.7633,0.7633,0.7276,0.6931,0.7041,0.7194,0.7158,0.6628,0.6033,0.5131,0.4223,0.3932,0.3932,0.4374,0.4374,0.4374,0.4374,0.4374,0.3937,2.8123,2.8163,2.8497,2.8978,2.9472,2.984,2.9767,2.9555,2.9053,2.7901,2.7569,2.7594,2.7513,2.8171,2.8867,2.9663,3.0926,3.1913,3.1913,3.2261,3.2443,3.2363,3.2024,3.1436,3.0849,3.0595,3.0327,2.994,2.9913,2.9913,2.9913,2.9913,2.9913,2.9913,2.9913,2.982,2.9606,2.9526,2.9272,2.8845,2.8684,2.8484,2.827,2.8008,2.6968,2.5191,2.347,2.1243,1.8699,1.6842,1.5443,1.4289,1.3583,1.3403,1.3403,1.3403,1.3403,1.3403,1.3403,1.3403,1.3383,1.3268,1.3207,1.3152,1.3051,1.299,1.2963,1.2963,1.2963,1.2963,1.2963,1.2963,1.2963,1.2963,1.2963,1.2963,1.2963,1.2963,1.2963,1.2963,1.2963,1.2963,1.2963,1.2963,1.2963,1.2963,1.1823,1.0733,1.0699,1.0664,1.0325,1.0014,0.9624,0.9423,0.9423,0.9193,0.9132,0.9101,0.8945,0.86,0.79,0.7747,0.7121,0.603,0.588,0.603,0.6628,0.6628,0.6628,0.6628,0.6628,0.6481,2.8591,2.8791,2.9219,3.0087,3.0528,3.0796,3.0523,3.0323,2.9529,2.7379,2.7181,2.7091,2.6461,2.7404,2.8376,2.899,3.0222,3.0999,3.0999,3.1765,3.2077,3.179,3.164,3.1436,3.0849,3.0782,3.0541,2.9953,2.9913,2.9913,2.9913,2.9913,2.9913,2.9913,2.9913,2.9913,2.99,2.9619,2.9472,2.9446,2.8885,2.8604,2.8577,2.7434,2.6474,2.5707,2.3326,2.1494,1.9745,1.7371,1.5798,1.4944,1.3791,1.3403,1.3403,1.3403,1.3403,1.3403,1.3403,1.3403,1.3403,1.3397,1.3295,1.3173,1.3166,1.3071,1.2963,1.2963,1.2963,1.2963,1.2963,1.2963,1.2963,1.2963,1.2963,1.2963,1.2963,1.2963,1.2963,1.2963,1.2963,1.2963,1.2963,1.2963,1.2963,1.2963,1.2956,1.2895,1.2581,1.2122,1.1727,1.1262,1.1256,1.1256,1.1256,1.0785,1.0578,1.0451,1.014,0.978,0.9655,0.9355,0.9055,0.905,0.874,0.844,0.844,0.844,0.844,0.844,0.844,0.8145,2.8845,0.0,3.0074,3.0768,3.145,3.1938,3.184,3.1403,3.0595,2.9174,2.7884,2.6949,2.6508,2.6602,2.7203,2.7773,2.9273,3.0198,3.0368,3.1213,3.1868,3.1764,3.1468,3.1223,3.0835,3.0621,0.0,2.994,2.9913,2.9913,2.9913,2.9913,2.9913,2.9913,2.9913,2.9913,2.9913,2.982,2.9673,2.9472,2.8885,2.8604,2.8591,2.7617,2.6745,2.5954,2.3744,2.1747,1.9958,1.7392,1.5971,1.4953,1.3944,1.3553,1.3539,1.3437,1.3403,1.3403,1.3403,1.3403,1.3403,1.3403,1.3363,1.3322,1.3322,1.3288,1.3254,1.3254,1.3254,1.3254,1.3254,1.3254,1.3254,1.3254,1.3254,1.3254,1.3254,1.3254,1.3254,1.3254,1.3254,1.3254,1.3254,1.3254,1.322,1.3119,1.3024,1.2942,1.2888,1.2588,1.2337,1.2181,1.2096,1.2037,1.2037,1.1882,1.1863,1.1811,1.1657,1.144,1.0999,1.0848,1.0498,0.996,0.9805,0.9655,0.9355,0.9355,0.9355,0.9355,0.9355,0.9205,2.9421,2.9993,3.0835,3.153,3.2278,3.2815,3.2983,3.2443,3.1495,3.0274,2.8882,2.7614,2.7192,2.6871,2.6882,2.7638,2.8743,2.9687,2.9951,3.0814,3.1488,3.1385,3.1468,3.1263,3.0982,3.0688,0.0,2.994,3.002,3.0034,2.9927,3.002,3.002,2.9913,2.9913,2.9913,2.9913,2.9913,2.9766,2.9472,2.8991,2.8711,2.8591,2.7434,2.6613,2.5738,2.3176,2.1231,1.9666,1.7237,1.5638,1.4951,1.4103,1.3702,1.3695,1.3593,1.3526,1.3471,1.3417,1.3403,1.3403,1.3403,1.3403,1.3403,1.3403,1.3403,1.3403,1.3403,1.3403,1.3403,1.3403,1.3403,1.3403,1.3403,1.3403,1.3403,1.3403,1.3403,1.3403,1.3403,1.3403,1.3403,1.3403,1.3403,1.337,1.3268,1.3173,1.3078,1.2976,1.2874,1.2813,1.2813,1.2671,1.2583,1.2583,1.2535,1.2501,1.2501,1.2501,1.2306,1.206,1.206,1.1708,1.1151,1.1151,1.0999,1.0696,1.0696,1.0696,1.0696,1.0696,1.0696,2.9998,3.0608,3.1476,3.2372,3.3013,3.3386,3.3547,3.3046,3.2249,3.0705,2.9748,2.9084,0.0,0.0,2.7962,2.8393,2.8825,2.9096,2.9366,3.0588,3.1323,0.0,0.0,0.0,0.0,0.0,0.0,3.0007,0.0,3.0261,2.998,3.0221,3.0234,2.9953,2.9927,2.9913,2.9913,2.9734,2.9601,2.9322,2.903,2.8738,2.8446,2.6765,2.5763,2.5068,2.1964,2.0057,1.8994,1.6396,1.5126,1.4764,1.4084,1.3851,1.3851,1.3844,1.3756,1.362,1.3471,1.3417,1.3403,1.3403,1.3403,1.3403,1.3403,1.3403,1.3403,1.3403,1.3403,1.3403,1.3403,1.3403,1.3403,1.3403,1.3403,1.3403,1.3403,1.3403,1.3403,1.341,1.3417,1.3424,1.3424,1.3417,1.341,1.341,1.3403,1.3302,1.3017,1.2976,1.2969,1.2969,1.2834,1.2745,1.2745,1.2603,1.2515,1.2515,1.2508,1.2501,1.2501,1.2501,1.2501,1.2501,1.2501,1.2501,1.2501,1.2501,1.2501,1.2501,1.2501,1.2347,3.0859,3.137,3.2091,3.2973,3.348,3.3868,3.4023,3.3521,3.2647,3.2085,3.0702,2.9567,2.897,0.0,0.0,2.886,2.9687,0.0,3.0839,3.1681,0.0,3.2203,0.0,3.1637,3.1557,3.1089,0.0,0.0,3.0635,3.0648,3.0568,3.0434,3.0327,3.0247,3.0034,2.9734,2.9362,2.8642,2.8243,2.8168,2.7533,2.7082,2.681,2.5485,2.4223,2.317,2.0742,1.9012,1.7972,1.6003,1.5111,1.492,1.4597,1.4534,1.452,1.475,1.4849,1.4813,1.4429,1.3923,1.3403,1.3403,1.3403,1.3403,1.3403,1.3403,1.3403,1.3403,1.3403,1.3403,1.3403,1.3403,1.3403,1.3403,1.3403,1.3403,1.3403,1.3403,1.3437,1.3546,1.3654,1.3729,1.3729,1.3641,1.3573,1.3573,1.3471,1.3376,1.3302,1.3193,1.3119,1.3119,1.299,1.2901,1.2901,1.2759,1.2671,1.2671,1.2562,1.2501,1.2501,1.2501,1.2501,1.2501,1.2501,1.2501,1.2501,1.2501,1.2501,1.2501,1.2501,1.2501,3.1437,3.1944,3.2639,3.3267,3.3654,3.3935,3.4095,3.3585,3.296,3.2538,3.127,3.0255,2.9845,2.9469,2.9305,0.0,0.0,0.0,3.1755,3.2302,3.2755,0.0,3.2326,0.0,3.2064,3.1757,3.1503,0.0,3.1129,3.0929,3.0795,3.0584,3.0254,2.999,2.9456,2.877,2.7908,2.7365,2.7003,2.6809,2.6186,2.5807,2.5666,2.4163,2.3042,2.211,1.9674,1.8225,1.7455,1.6049,1.5697,1.569,1.5775,1.5745,1.5904,1.5986,1.5909,1.5668,1.5152,1.4472,1.3923,1.3526,1.3458,1.3403,1.3403,1.3403,1.3403,1.3403,1.3403,1.3403,1.3403,1.3403,1.3403,1.3403,1.3403,1.3403,1.3403,1.3451,1.3546,1.3695,1.3783,1.3838,1.3838,1.3777,1.3722,1.3722,1.3593,1.3498,1.3498,1.337,1.3275,1.3275,1.3139,1.3057,1.3057,1.2915,1.28,1.2732,1.2651,1.2569,1.2508,1.2501,1.2501,1.2501,1.2501,1.2501,1.2501,1.2569,1.2603,1.2603,1.2671,1.2705,3.2083,3.2372,3.3066,3.3414,3.3641,3.3761,3.3761,3.3267,3.2639,3.2051,3.149,3.0942,3.0408,3.0412,3.0713,3.0812,0.0,3.1777,3.2315,3.2825,3.3153,3.2904,3.2988,3.2879,3.2625,3.2572,3.2438,3.2185,3.165,3.1209,3.0929,3.0556,3.0212,2.9247,2.8319,2.7085,2.6083,2.5719,2.5343,2.4967,2.4574,2.4283,2.425,2.2778,2.167,2.094,1.8804,1.7468,1.6969,1.6585,1.6401,1.6401,1.6928,1.7112,1.7288,1.7288,1.684,1.6364,1.5836,1.5211,1.4536,1.3878,1.3553,1.3431,1.3431,1.3417,1.3403,1.3403,1.3403,1.3403,1.3424,1.3431,1.3437,1.3458,1.3458,1.3458,1.3458,1.358,1.3722,1.3851,1.3885,1.3905,1.3905,1.3885,1.3871,1.3871,1.3749,1.3648,1.3634,1.3498,1.3403,1.3403,1.3281,1.32,1.32,1.3071,1.2935,1.28,1.2773,1.2698,1.2569,1.2562,1.2562,1.2562,1.2562,1.2562,1.2562,1.2698,1.2759,1.2766,1.2901,1.2963,3.2638,3.2679,3.3106,3.3668,3.3467,3.3133,3.3133,3.2492,0.0,3.1142,3.0742,3.0408,3.006,3.0474,3.0783,3.1062,0.0,0.0,3.324,3.3519,3.3665,0.0,3.332,3.2959,3.2906,3.2692,0.0,0.0,0.0,3.1824,3.153,3.0967,2.9653,2.7781,2.6468,2.5235,2.443,2.277,2.2034,2.185,2.0899,2.0428,2.0272,1.9497,1.8837,1.8116,1.7258,0.0,1.6077,1.6287,1.6401,1.6577,1.7279,1.763,1.7805,1.8164,1.7972,1.7422,1.6538,1.5897,1.5211,1.4194,1.3709,1.3587,1.3587,1.3498,1.3403,1.3403,1.3403,1.3431,1.3559,1.3587,1.362,1.3736,1.3763,1.3763,1.3763,1.3885,1.4,1.4027,1.4136,1.4217,1.4217,1.4116,1.4034,1.4034,1.3899,1.3763,1.3648,1.3498,1.3403,1.3403,1.3376,1.3363,1.3363,1.322,1.3125,1.3098,1.2983,1.2908,1.2881,1.2881,1.2881,1.2881,1.2881,1.2881,1.2881,1.2908,1.2922,1.2922,1.2949,1.2963,3.4403,3.4241,3.4433,3.4571,3.3981,3.3246,3.2786,0.0,0.0,3.0461,2.998,2.9673,2.9686,0.0,0.0,0.0,0.0,0.0,0.0,0.0,0.0,3.3868,3.348,3.32,0.0,0.0,0.0,0.0,0.0,3.2198,3.1904,3.0531,2.8593,2.6119,2.5065,2.3582,2.1859,2.0936,2.0205,1.9648,1.9099,1.8862,1.8786,1.8223,1.7756,1.7405,1.6962,1.6649,1.6301,1.7274,1.7538,1.763,1.8506,1.8681,1.8506,1.8855,1.8339,1.7288,1.6577,1.582,1.5046,1.4277,1.3926,1.3736,1.3736,1.3688,1.3627,1.3627,1.3627,1.3648,1.3722,1.3736,1.3756,1.3824,1.3838,1.3865,1.3946,1.4021,1.4095,1.4177,1.4251,1.4299,1.4299,1.4238,1.419,1.419,1.4061,1.3939,1.3871,1.3722,1.3573,1.3417,1.3403,1.3403,1.3403,1.3336,1.3254,1.318,1.3112,1.3037,1.2963,1.2963,1.2963,1.2963,1.2963,1.2963,1.2963,1.3037,1.3071,1.3071,1.3152,1.3193,3.6163,3.6041,3.6028,3.5782,3.4828,3.3935,3.2883,3.162,3.0617,3.0025,2.9366,2.9085,2.9259,0.0,3.006,0.0,3.1343,3.2104,0.0,0.0,0.0,0.0,3.3521,0.0,3.3414,0.0,0.0,0.0,0.0,0.0,3.164,3.0051,2.7795,2.525,2.4083,2.2546,2.0091,1.9674,1.9099,1.8176,1.7989,1.7989,1.7616,1.725,1.6987,1.6857,1.6819,1.6636,1.6533,1.7745,1.8151,1.8164,1.9039,1.9039,1.8681,1.8681,1.7981,1.6928,1.6401,1.5697,1.4992,1.4476,1.4116,1.3892,1.3892,1.3865,1.3838,1.3838,1.3838,1.3844,1.3878,1.3892,1.3899,1.3933,1.3939,1.3973,1.4095,1.4122,1.4156,1.4278,1.4299,1.4299,1.4299,1.4299,1.4299,1.4299,1.4197,1.4109,1.4075,1.3966,1.379,1.3526,1.3464,1.3437,1.3403,1.3403,1.3349,1.3227,1.322,1.3173,1.3057,1.3057,1.3057,1.3057,1.3057,1.3057,1.3057,1.3166,1.322,1.3227,1.3342,1.3403,3.6967,3.7217,3.7296,3.6863,3.5853,3.4682,3.3629,0.0,3.0534,2.9757,2.942,2.8965,2.8724,2.9366,2.994,2.9993,0.0,3.1423,0.0,0.0,0.0,0.0,0.0,0.0,0.0,0.0,0.0,0.0,0.0,0.0,3.0383,2.9746,2.826,2.5894,2.4325,2.2775,2.1442,1.9745,1.8727,1.8176,1.7616,1.7063,1.6126,1.6126,1.5737,1.5341,1.576,1.5788,1.5622,1.6369,1.6734,1.6577,1.7112,1.7288,1.7288,1.7288,1.6928,1.6401,1.5881,1.5352,1.4992,1.4476,1.419,1.4048,1.4048,1.3953,1.3838,1.3838,1.3838,1.3871,1.4014,1.4048,1.4089,1.4224,1.4258,1.4258,1.4278,1.4278,1.4285,1.4299,1.4299,1.4299,1.4299,1.4299,1.4299,1.4299,1.4285,1.4231,1.4089,1.4061,1.3987,1.3817,1.3688,1.3553,1.341,1.3403,1.3397,1.3383,1.3376,1.3376,1.3363,1.3363,1.3363,1.3363,1.3363,1.3363,1.3363,1.337,1.3376,1.3376,1.3397,1.3403,4.036,4.0099,3.9812,3.9433,3.7774,3.574,3.4152,3.2298,3.053,2.9576,2.896,2.8524,2.8591,2.8898,2.9245,2.9593,3.01,3.0595,3.1076,0.0,0.0,0.0,0.0,0.0,0.0,0.0,0.0,0.0,0.0,0.0,3.0739,3.014,2.8857,2.65,2.5294,2.3738,2.1452,2.0676,1.9834,1.9091,1.8541,1.8168,1.7608,1.7429,1.7242,1.7048,1.7537,1.7411,1.688,1.7788,1.7608,1.7073,1.732,1.7104,1.6753,1.6753,1.6225,1.5521,1.5344,1.4999,1.4476,1.4299,1.4258,1.4211,1.4211,1.4163,1.4116,1.4116,1.4116,1.4129,1.419,1.438,1.4766,1.5276,1.5312,1.5341,1.5075,1.5097,1.4889,1.4441,1.4428,1.4401,1.4312,1.4299,1.4299,1.4299,1.4299,1.4278,1.4217,1.4211,1.415,1.3994,1.377,1.3607,1.3546,1.3451,1.3403,1.3403,1.3403,1.3403,1.3403,1.3403,1.3403,1.3403,1.3403,1.3403,1.3403,1.3403,1.3403,1.3403,1.3403,1.3403,4.2676,4.2432,4.1891,4.1354,3.9557,3.7178,3.508,3.2925,3.1094,2.9884,2.9029,2.8386,2.843,2.8551,2.8778,2.9272,2.977,3.0173,3.0765,3.1461,0.0,0.0,0.0,0.0,0.0,0.0,0.0,0.0,0.0,0.0,3.1133,3.0713,2.962,2.7439,2.6616,2.523,2.294,2.2522,2.185,2.0936,2.0566,2.0196,1.9462,1.9276,1.8913,1.8541,1.8905,1.8803,1.8451,1.8863,1.8519,1.7795,1.7662,1.7081,1.6549,1.6194,1.5661,1.5134,1.4956,1.4606,1.4428,1.4428,1.4428,1.4421,1.4373,1.4333,1.4299,1.4476,1.468,1.507,1.507,1.5454,1.6224,1.6705,1.6736,1.6587,1.6522,1.6181,1.5789,1.5319,1.4903,1.4661,1.4558,1.4503,1.4299,1.4299,1.4299,1.4299,1.4299,1.4299,1.4258,1.415,1.3912,1.3743,1.3695,1.3553,1.3464,1.3464,1.3424,1.3403,1.3403,1.3403,1.3403,1.3403,1.3403,1.3403,1.3403,1.3444,1.3464,1.3471,1.3512,1.3532,4.3041,4.3303,4.3124,4.2227,4.0994,3.9321,3.6813,3.4299,3.2178,3.0836,2.9691,2.8655,2.8318,2.8404,2.8711,2.8991,2.9636,3.0397,3.0999,3.172,0.0,0.0,0.0,0.0,0.0,0.0,0.0,0.0,0.0,0.0,3.169,3.1664,3.0773,2.8979,2.812,2.7283,2.648,2.5845,2.4978,2.4064,2.4064,2.2954,2.1121,2.1121,2.0566,1.9648,1.9648,1.9534,1.9349,1.8809,1.8698,1.8364,1.7451,1.7089,1.6907,1.5818,1.5454,1.5454,1.4915,1.4733,1.4733,1.4733,1.4733,1.4706,1.4557,1.4414,1.4476,1.4822,1.5816,1.6658,1.6658,1.7502,1.8536,1.8544,1.8544,1.8544,1.8544,1.764,1.6907,1.6907,1.6055,1.5234,1.5234,1.475,1.4299,1.4299,1.4299,1.4299,1.4299,1.4299,1.4299,1.4299,1.4156,1.4007,1.3851,1.3709,1.3627,1.3627,1.3485,1.3403,1.3403,1.3403,1.3403,1.3403,1.3403,1.3403,1.3403,1.3553,1.3627,1.3634,1.377,1.3838,4.3687,4.3785,4.3555,4.3264,4.1611,3.97,3.7367,3.5145,3.3197,3.1858,3.0556,2.9663,2.9663,2.9411,2.9226,2.9528,3.0004,3.0525,3.0928,0.0,0.0,0.0,0.0,0.0,0.0,0.0,0.0,0.0,0.0,0.0,3.1677,3.1476,3.0954,3.011,2.9627,2.8779,2.7585,2.7135,2.6628,2.6083,2.5719,2.5343,2.4613,2.4237,2.3871,2.3687,2.3687,2.3279,2.2658,2.2323,2.1326,2.017,1.9662,1.8888,1.8002,1.764,1.7278,1.6915,1.6371,1.6189,1.6189,1.5462,1.5462,1.5636,1.5223,1.5104,1.5163,1.6402,1.7145,1.7932,1.9124,1.9563,2.0185,2.0867,2.1086,2.0943,2.0345,2.0006,1.942,1.8384,1.7587,1.6931,1.6346,1.5556,1.4949,1.4836,1.4476,1.4299,1.4299,1.4299,1.4299,1.4299,1.4258,1.4163,1.4014,1.3858,1.3777,1.3777,1.3641,1.3559,1.3559,1.3458,1.3403,1.3403,1.3403,1.3451,1.3559,1.3607,1.3682,1.3777,1.3817,1.3838,4.3144,4.3604,4.3504,4.3178,4.205,4.0305,3.8101,3.6338,3.449,3.2975,3.1675,3.0989,3.0792,3.0296,3.0107,3.0382,3.0709,3.1037,3.135,0.0,0.0,0.0,0.0,0.0,0.0,0.0,0.0,0.0,0.0,0.0,3.1894,3.1517,3.0942,3.0544,3.0346,2.9743,2.8716,2.8551,2.8281,2.7908,2.7546,2.7184,2.6821,2.6446,2.6265,2.6083,2.6083,2.5707,0.0,2.4822,2.403,2.293,2.2232,2.1458,2.0561,1.9834,1.9297,1.8932,1.8193,1.7835,1.7652,1.6919,1.688,1.6826,1.7009,1.6703,1.6752,1.8007,1.9124,2.028,2.1481,2.2301,2.2934,2.3635,2.3849,2.37,2.3106,2.2586,2.1994,2.0951,1.9768,1.8741,1.8149,1.7158,1.6362,1.5898,1.5527,1.5177,1.4819,1.4771,1.4558,1.438,1.4333,1.4265,1.4163,1.4014,1.3926,1.3926,1.379,1.3709,1.3709,1.362,1.3566,1.3566,1.3566,1.3614,1.3709,1.377,1.3871,1.4014,1.4014,1.4014,0.0,4.2539,4.2787,4.2481,4.1972,4.1072,3.9032,3.7543,0.0,3.4206,3.3081,3.2332,3.1842,3.1447,3.1168,3.1292,3.1719,3.2072,0.0,0.0,0.0,0.0,0.0,0.0,0.0,0.0,0.0,0.0,0.0,0.0,3.1984,3.1556,3.0915,3.0381,3.0341,3.0194,2.9913,2.9913,2.9734,2.9182,2.9182,2.8822,2.792,2.792,2.7546,2.7184,2.7184,2.7184,2.7184,2.6628,2.6446,2.6265,2.4978,2.4247,2.4064,2.2218,2.149,2.1296,2.0196,1.9648,1.9276,1.9285,1.8601,1.8284,1.9393,1.9062,1.8716,1.9806,2.1751,2.3369,2.3922,2.5184,2.6446,2.6446,2.6458,2.6446,2.6446,2.5343,2.443,2.4247,2.2617,2.102,2.0463,1.9399,1.8372,1.7451,1.7089,1.6734,1.5818,1.5521,1.5248,1.4689,1.4572,1.4489,1.4476,1.4345,1.4089,1.4089,1.3939,1.3858,1.3858,1.3844,1.3838,1.3838,1.3851,1.3858,1.3858,1.4014,1.4163,1.4299,1.4299,1.4299,3.9258,0.0,4.1541,4.1375,4.1043,4.042,0.0,3.8043,3.6875,0.0,0.0,3.4133,3.4059,3.337,3.2984,3.298,3.3088,3.3507,3.394,0.0,0.0,0.0,0.0,0.0,0.0,0.0,0.0,0.0,0.0,3.3343,3.2529,3.1716,3.0853,3.0368,3.014,2.998,2.9913,2.9913,2.9913,2.9734,2.9734,2.9554,2.9375,2.9375,2.9375,2.9182,2.9182,2.9002,2.8642,2.8629,2.8088,2.7365,2.7003,2.6446,2.5719,2.5161,2.4796,2.4237,2.3321,2.2954,2.278,2.2054,2.1093,2.0677,2.1975,2.1345,2.0535,2.2321,2.3677,2.5026,2.6485,2.7135,2.7546,2.792,2.792,2.792,2.7546,2.7184,2.6628,2.5901,2.4751,2.3742,2.3028,2.1507,2.0152,1.9806,1.8897,1.8002,1.7821,1.7427,1.6986,1.6666,1.6619,1.6549,1.6417,1.5147,1.4245,1.4245,1.4102,1.4014,1.4014,1.3905,1.3838,1.3838,1.3953,1.4014,1.4021,1.417,1.4265,1.4299,1.4299,1.4299,3.8164,3.9258,4.0371,4.0511,4.0434,4.0086,3.9315,0.0,0.0,0.0,0.0,0.0,3.5934,0.0,0.0,3.5103,3.5163,0.0,0.0,0.0,0.0,0.0,0.0,0.0,0.0,0.0,0.0,0.0,0.0,3.4294,3.3243,3.1861,3.0831,3.0154,3.0007,2.9913,2.9913,2.9913,2.9913,2.9913,2.9913,2.9913,2.9913,2.9913,2.9913,2.9913,2.9913,2.9734,2.9554,2.9554,2.9182,2.8642,2.8462,2.8088,2.7546,2.7184,2.6809,2.6446,2.5707,2.5343,2.4978,2.4258,2.3515,2.3321,2.4441,2.4074,2.3709,2.4755,2.5692,2.6641,2.8051,2.8642,2.8822,2.9015,2.9195,2.9015,2.8822,2.8462,2.8269,2.7727,2.6809,2.6036,2.5354,2.4245,2.3101,2.2252,2.1517,2.079,1.9879,1.9443,1.8984,1.8338,1.8178,1.8034,1.7932,1.6792,1.6049,1.5528,1.5264,1.5221,1.5221,1.4611,1.4222,1.4048,1.4136,1.4177,1.4177,1.4258,1.4299,1.4299,1.4299,1.4299,3.7695,3.8359,3.9062,3.9726,3.9902,3.9732,3.941,0.0,0.0,0.0,0.0,0.0,0.0,0.0,0.0,0.0,0.0,0.0,0.0,0.0,0.0,0.0,0.0,0.0,0.0,0.0,0.0,0.0,0.0,3.5576,3.4186,3.2432,3.1069,3.0106,3.0093,2.9913,2.9913,2.9913,2.9913,2.9913,2.9913,2.9913,2.9913,2.9913,2.9913,2.9913,2.9913,0.0,2.9913,2.9913,2.9913,2.9913,2.9554,2.9362,2.9182,2.8281,2.8101,2.792,2.7546,2.7003,2.6446,2.6083,2.5889,2.5889,2.6446,2.6821,2.7184,2.6809,2.7365,2.8101,2.9002,2.9554,2.9913,2.9913,2.9913,2.9913,2.9913,2.9554,2.9362,2.9362,2.8642,2.7727,2.7365,2.6821,2.6083,2.4796,2.4613,2.3871,2.2034,2.1703,2.1211,2.0445,1.9949,1.9719,1.9655,1.9499,1.9048,1.8147,1.7271,1.6569,1.6569,1.5697,1.4999,1.4476,1.4476,1.4299,1.4299,1.4299,1.4299,1.4299,1.4299,1.4299,3.7187,3.748,3.7969,3.9512,3.9902,3.9902,3.9732,3.9109,0.0,0.0,0.0,0.0,0.0,0.0,0.0,0.0,0.0,0.0,0.0,0.0,0.0,0.0,0.0,0.0,0.0,0.0,0.0,0.0,0.0,3.7742,3.5258,3.3856,3.2246,3.0616,3.0437,3.0272,2.9913,2.9913,2.9913,2.9913,2.9913,2.9913,2.9913,2.9913,2.9913,2.9913,0.0,2.9913,2.9913,2.9913,2.9913,2.9913,2.9734,2.9734,2.9734,2.9554,2.9554,2.9554,2.9002,2.8281,2.7558,2.792,2.7739,2.7546,2.792,2.8294,2.8294,2.8642,2.8822,2.9182,2.9734,2.9913,2.9913,2.9913,2.9913,2.9913,2.9913,2.9913,2.9734,2.9734,2.9362,2.9002,2.8822,2.8088,2.7365,2.7184,2.6446,2.5901,2.5525,2.5127,2.4663,2.4272,2.4184,2.3974,2.3731,2.3664,2.338,2.2998,1.9873,1.7789,1.7088,1.6393,1.5697,1.4999,1.4822,1.4646,1.4299,1.4299,1.4299,1.4299,1.4299,1.4299,3.707,3.7461,3.7949,3.9199,3.9355,3.9316,3.9785,3.9394,0.0,0.0,0.0,0.0,0.0,0.0,0.0,0.0,0.0,0.0,0.0,0.0,0.0,0.0,0.0,0.0,0.0,0.0,0.0,0.0,0.0,3.8868,3.6579,3.5015,3.3425,3.1848,3.1493,3.0973,3.0272,3.0272,3.0093,2.9913,2.9913,2.9913,2.9913,2.9913,2.9913,2.9913,0.0,2.9913,2.9913,2.9913,2.9913,2.9913,2.9913,2.9913,2.9913,2.9913,2.9913,2.9913,2.9734,2.9362,2.9002,2.9195,2.9015,2.9002,2.9195,2.9195,2.9375,2.9554,2.9362,2.9362,2.9734,2.9913,2.9913,2.9913,2.9913,2.9913,2.9913,2.9913,2.9913,2.9913,2.9734,2.9554,2.9554,2.9182,2.8822,2.8642,2.8088,2.7727,2.7184,2.6821,2.658,2.6281,2.6151,2.5973,2.5737,2.5441,2.465,2.3354,2.1791,2.0047,1.8654,1.8139,1.7263,1.6217,1.5697,1.5175,1.4646,1.4476,1.4299,1.4299,1.4299,1.4299,3.6973,3.7461,3.7988,3.8848,3.8965,3.9062,3.9746,0.0,0.0,0.0,0.0,0.0,0.0,0.0,0.0,0.0,0.0,0.0,0.0,0.0,0.0,0.0,0.0,0.0,0.0,0.0,0.0,0.0,0.0,4.0031,3.8197,3.6541,3.4987,3.3425,3.2896,3.2189,3.1137,3.0794,3.0437,2.9913,2.9913,2.9913,2.9913,2.9913,2.9913,2.9913,2.9913,2.9913,2.9913,2.9913,2.9913,2.9913,2.9913,2.9913,2.9913,2.9913,2.9913,2.9913,2.9913,2.9913,2.9913,2.9913,2.9913,2.9913,2.9913,2.9913,2.9913,2.9913,2.9734,2.9362,2.9734,2.9913,2.9913,2.9913,2.9913,2.9913,2.9913,2.9913,2.9913,2.9913,2.9913,2.9913,2.9913,2.9913,2.9734,2.9362,2.9362,2.9002,2.8281,2.8281,2.8101,2.7727,2.7553,2.7405,2.7343,2.6822,2.5723,2.396,2.3376,2.2471,2.0742,2.0221,1.9186,1.7613,1.6753,1.5896,1.5226,1.4701,1.4531,1.4346,1.4346,1.4333,3.6699,3.7031,3.7539,3.8398,3.9219,0.0,3.9883,4.0176,0.0,0.0,0.0,0.0,0.0,0.0,0.0,0.0,0.0,0.0,0.0,0.0,0.0,0.0,0.0,0.0,0.0,0.0,0.0,0.0,4.3215,4.1804,3.9706,3.899,3.7602,3.5352,3.4828,3.3952,3.2543,3.1671,3.0794,2.9913,2.9913,2.9913,2.9913,2.9913,2.9913,2.9913,2.9913,2.9913,2.9913,2.9913,2.9913,2.9913,2.9913,2.9913,2.9913,2.9913,2.9913,2.9913,2.9913,2.9913,2.9913,2.9913,2.9913,2.9913,2.9913,2.9913,2.9913,2.9913,2.9913,2.9913,2.9913,2.9913,2.9913,2.9913,2.9913,2.9913,2.9913,2.9913,2.9913,2.9913,2.9913,2.9913,2.9913,2.9913,2.9913,2.9913,2.9913,2.9734,2.9734,2.9734,2.9734,2.9734,2.9721,2.9601,2.9322,2.8765,2.8076,2.7521,2.5714,2.4029,2.3159,2.2309,2.0925,1.9012,1.8147,1.7009,1.5742,1.5391,1.4854,1.4496,1.4496,1.4428,3.6601,3.6777,3.7109,3.7969,0.0,0.0,0.0,0.0,0.0,0.0,0.0,0.0,0.0,0.0,0.0,0.0,0.0,0.0,0.0,0.0,0.0,0.0,0.0,0.0,0.0,0.0,0.0,4.3702,4.3285,4.2386,4.1024,4.05,3.9483,3.7774,3.6896,3.5684,3.3952,3.3073,3.2026,3.0794,3.0272,2.9913,2.9913,2.9913,2.9913,2.9913,2.9913,2.9913,2.9913,2.9913,2.9913,2.9913,2.9913,2.9913,2.9913,2.9913,2.9913,2.9913,2.9913,2.9913,2.9913,2.9913,2.9913,2.9913,2.9913,2.9913,2.9913,2.9913,2.9913,2.9913,2.9913,2.9913,2.9913,2.9913,2.9913,2.9913,2.9913,2.9913,2.9913,2.9913,2.9913,2.9913,2.9913,2.9913,2.9913,2.9913,2.9913,2.9913,2.9913,2.9913,2.9913,2.9913,2.9913,2.9793,2.9513,2.9285,2.9072,2.8538,2.7209,2.6091,2.5068,2.4362,2.3228,2.1659,2.0204,1.8884,1.7534,1.6634,1.5911,1.5188,1.5188,1.4986,3.6426,3.666,3.7012,0.0,0.0,0.0,0.0,0.0,0.0,0.0,0.0,0.0,0.0,0.0,0.0,0.0,0.0,0.0,0.0,0.0,0.0,0.0,0.0,0.0,0.0,0.0,0.0,4.3659,4.3388,4.2882,4.2216,4.1863,4.1173,3.9841,3.8972,3.7586,3.5858,3.4638,3.3425,3.2026,3.0794,3.0272,2.9913,2.9913,2.9913,2.9913,2.9913,2.9913,2.9913,2.9913,2.9913,2.9913,2.9913,2.9913,2.9913,2.9913,2.9913,2.9913,2.9913,2.9913,2.9913,2.9913,2.9913,2.9913,2.9913,2.9913,2.9913,2.9913,2.9913,2.9913,2.9913,2.9913,2.9913,2.9913,2.9913,2.9913,2.9913,2.9913,2.9913,2.9913,2.9913,2.9913,2.9913,2.9913,2.9913,2.9913,2.9913,2.9913,2.9913,2.9913,2.9913,2.9913,2.9913,2.9833,2.9633,2.9539,2.9392,2.9192,2.8366,2.7577,2.6879,2.6191,2.5243,2.3842,2.2391,2.0894,1.9346,1.844,1.7531,1.6438,1.6256,1.6051,3.6133,3.6641,0.0,0.0,0.0,0.0,0.0,0.0,4.2422,0.0,0.0,0.0,0.0,0.0,0.0,0.0,0.0,0.0,0.0,0.0,0.0,0.0,0.0,0.0,0.0,0.0,4.4199,4.373,4.3711,4.3546,4.3068,4.3068,4.2716,4.1695,4.0855,3.9671,3.8289,3.6394,3.4828,3.3425,3.2026,3.0794,2.9913,2.9913,2.9913,2.9913,2.9913,2.9913,2.9913,2.9913,2.9913,2.9913,2.9913,2.9913,2.9913,2.9913,2.9913,2.9913,2.9913,2.9913,2.9913,2.9913,2.9913,2.9913,2.9913,2.9913,2.9913,2.9913,2.9913,2.9913,2.9913,2.9913,2.9913,2.9913,2.9913,2.9913,2.9913,2.9913,2.9913,2.9913,2.9913,2.9913,2.9913,2.9913,2.9913,2.9913,2.9913,2.9913,2.9913,2.9913,2.9913,2.9913,2.9913,2.9913,2.9913,2.9659,2.9486,2.9486,2.9205,2.8871,2.8334,2.7985,2.7097,2.5701,2.4617,2.3304,2.1546,2.0646,1.9733,1.8626,1.8267,1.7811,3.6055,0.0,0.0,0.0,0.0,0.0,0.0,0.0,0.0,0.0,0.0,0.0,0.0,0.0,0.0,0.0,0.0,0.0,0.0,0.0,0.0,0.0,0.0,0.0,0.0,4.3906,4.3848,4.3711,4.3711,4.3711,4.3546,4.3546,4.3214,4.2716,4.2049,4.121,3.9841,3.8289,3.6551,3.4828,3.3425,3.2026,3.0437,3.0093,2.9913,2.9913,2.9913,2.9913,2.9913,2.9913,2.9913,2.9913,2.9913,2.9913,2.9913,2.9913,2.9913,2.9913,2.9913,2.9913,2.9913,2.9913,2.9913,2.9913,2.9913,2.9913,2.9913,2.9913,2.9913,2.9913,2.9913,2.9913,2.9913,2.9913,2.9913,2.9913,2.9913,2.9913,2.9913,2.9913,2.9913,2.9913,2.9913,2.9913,2.9913,2.9913,2.9913,2.9913,2.9913,2.9913,2.9913,2.9913,2.9913,2.9913,2.9913,2.9833,2.978,2.978,2.97,2.9472,2.8884,2.853,2.8092,2.7371,2.6486,2.5343,2.3774,2.3227,2.2128,2.029,2.029,1.9709,3.623,0.0,0.0,0.0,0.0,0.0,0.0,0.0,0.0,0.0,0.0,0.0,0.0,0.0,0.0,0.0,0.0,0.0,0.0,0.0,0.0,0.0,0.0,0.0,4.3711,4.3711,4.3711,4.3711,4.3711,4.3711,4.3711,4.3711,4.3546,4.3399,4.2902,4.2235,4.121,3.9841,3.8289,3.6567,3.4987,3.3425,3.1671,3.0616,3.0093,2.9913,2.9913,2.9913,2.9913,2.9913,2.9913,2.9913,2.9913,2.9913,2.9913,2.9913,2.9913,2.9913,2.9913,2.9913,2.9913,2.9913,2.9913,2.9913,2.9913,2.9913,2.9913,2.9913,2.9913,2.9913,2.9913,2.9913,2.9913,2.9913,2.9913,2.9913,2.9913,2.9913,2.9913,2.9913,2.9913,2.9913,2.9913,2.9913,2.9913,2.9913,2.9913,2.9913,2.9913,2.9913,2.9913,2.9913,2.9913,2.9913,2.9913,2.9913,2.9913,2.9913,2.9913,2.9753,2.9406,2.9198,2.8921,2.8552,2.8,2.7184,2.5901,2.5525,2.4613,2.3137,2.2954,2.2586,0.0,0.0,0.0,0.0,0.0,0.0,0.0,0.0,0.0,0.0,0.0,0.0,0.0,0.0,0.0,0.0,0.0,0.0,0.0,0.0,0.0,0.0,0.0,4.3711,4.3711,4.3711,4.3711,4.3711,4.3711,4.3711,4.3711,4.3711,4.3711,4.3711,4.3399,4.2902,4.2402,4.121,3.9841,3.846,3.6551,3.5003,3.3601,3.1493,3.0437,2.9913,2.9913,2.9913,2.9913,2.9913,2.9913,2.9913,2.9913,2.9913,2.9913,2.9913,2.9913,2.9913,2.9913,2.9913,2.9913,2.9913,2.9913,2.9913,2.9913,2.9913,2.9913,2.9913,2.9913,2.9913,2.9913,2.9913,2.9913,2.9913,2.9913,2.9913,2.9913,2.9913,2.9913,2.9913,2.9913,2.9913,2.9913,2.9913,2.9913,2.9913,2.9913,2.9913,2.9913,2.9913,2.9913,2.9913,2.9913,2.9913,2.9913,2.9913,2.9913,2.9913,2.9913,2.9913,2.9913,2.9913,2.9734,2.9182,2.9182,2.8822,2.792,2.7365,2.7003,2.6446,2.5901,2.5707,0.0,0.0,0.0,0.0,0.0,0.0,0.0,0.0,0.0,0.0,0.0,0.0,0.0,0.0,0.0,0.0,0.0,0.0,0.0,0.0,0.0,0.0,4.3711,4.3711,4.3711,4.3711,4.3711,4.3711,4.3711,4.3711,4.3711,4.3711,4.3711,4.3711,4.3546,4.338,4.2902,4.2235,4.121,4.001,3.846,3.674,3.5003,3.2366,3.0616,2.9913,2.9913,2.9913,2.9913,2.9913,2.9913,2.9913,2.9913,2.9913,2.9913,2.9913,2.9913,2.9913,2.9913,2.9913,2.9913,2.9913,2.9913,2.9913,2.9913,2.9913,2.9913,2.9913,2.9913,2.9913,2.9913,2.9913,2.9913,2.9913,2.9913,2.9913,2.9913,2.9913,2.9913,2.9913,2.9913,2.9913,2.9913,2.9913,2.9913,2.9913,2.9913,2.9913,2.9913,2.9913,2.9913,2.9913,2.9913,2.9913,2.9913,2.9913,2.9913,2.9913,2.9913,2.9913,2.9913,2.9913,2.9913,2.9734,2.9734,2.9554,2.8822,2.8822,2.8269,2.7365,2.7365,2.7003,0.0,0.0,0.0,0.0,0.0,0.0,0.0,0.0,0.0,0.0,0.0,0.0,0.0,0.0,0.0,0.0,0.0,0.0,0.0,0.0,0.0,4.3711,4.3711,4.3711,4.3711,4.3711,4.3711,4.3711,4.3711,4.3711,4.3711,4.3711,4.3711,4.3711,4.3711,4.3546,4.338,4.2902,4.2235,4.1378,4.001,3.8118,3.57,3.2896,3.1151,3.0272,3.0272,3.0093,2.9913,2.9913,2.9913,2.9913,2.9913,2.9913,2.9913,2.9913,2.9913,2.9913,2.9913,2.9913,2.9913,2.9913,2.9913,2.9913,2.9913,2.9913,2.9913,2.9913,2.9913,2.9913,2.9913,2.9913,2.9913,2.9913,2.9913,2.9913,2.9913,2.9913,2.9913,2.9913,2.9913,2.9913,2.9913,2.9913,2.9913,2.9913,2.9913,2.9913,2.9913,2.9913,2.9913,2.9913,2.9913,2.9913,2.9913,2.9913,2.9913,2.9913,2.9913,2.9913,2.9913,2.9913,2.9913,2.9913,2.9913,2.9734,2.9541,2.9541,2.9182,2.8822,2.8822,2.8642,0.0,0.0,0.0,0.0,0.0,0.0,0.0,0.0,0.0,0.0,0.0,0.0,0.0,0.0,0.0,0.0,0.0,0.0,0.0,0.0,4.3711,4.3711,4.3711,4.3711,4.3711,4.3711,4.3711,4.3711,4.3711,4.3711,4.3711,4.3711,4.3711,4.3711,4.3711,4.3711,4.3711,4.338,4.2902,4.2569,4.121,3.9143,3.6567,3.4113,3.2366,3.0973,3.0794,3.0437,3.0093,3.0093,2.9913,2.9913,2.9913,2.9913,2.9913,2.9913,2.9913,2.9913,2.9913,2.9913,2.9913,2.9913,2.9913,2.9913,2.9913,2.9913,2.9913,2.9913,2.9913,2.9913,2.9913,2.9913,2.9913,2.9913,2.9913,2.9913,2.9913,2.9913,2.9913,2.9913,2.9913,2.9913,2.9913,2.9913,2.9913,2.9913,2.9913,2.9913,2.9913,2.9913,2.9913,2.9913,2.9913,2.9913,2.9913,2.9913,2.9913,2.9913,2.9913,2.9913,2.9913,2.9913,2.9913,2.9913,2.9913,2.9913,2.9913,2.9913,2.9913,2.9913,2.9913,2.9913,0.0,0.0,0.0,0.0,0.0,0.0,0.0,0.0,0.0,0.0,0.0,0.0,0.0,0.0,0.0,0.0,0.0,0.0,0.0,4.3711,4.3711,4.3711,4.3711,4.3711,4.3711,4.3711,4.3711,4.3711,4.3711,4.3711,4.3711,4.3711,4.3711,4.3711,4.3711,4.3711,4.3711,4.3711,4.338,4.3068,4.1528,4.0162,3.8648,3.7774,3.5684,3.2366,3.2026,3.1315,3.0437,3.0437,3.0272,2.9913,2.9913,2.9913,2.9913,2.9913,2.9913,2.9913,2.9913,2.9913,2.9913,2.9913,2.9913,2.9913,2.9913,2.9913,2.9913,2.9913,2.9913,2.9913,2.9913,2.9913,2.9913,2.9913,2.9913,2.9913,2.9913,2.9913,2.9913,2.9913,2.9913,2.9913,2.9913,2.9913,2.9913,2.9913,2.9913,2.9913,2.9913,2.9913,2.9913,2.9913,2.9913,2.9913,2.9913,2.9913,2.9913,2.9913,2.9913,2.9913,2.9913,2.9913,2.9913,2.9913,2.9913,2.9913,2.9913,2.9913,2.9913,2.9913,2.9913,2.9913,0.0,0.0,0.0,0.0,0.0,0.0,0.0,0.0,0.0,0.0,0.0,0.0,0.0,0.0,0.0,0.0,0.0,0.0,4.3711,4.3711,4.3711,4.3711,4.3711,4.3711,4.3711,4.3711,4.3711,4.3711,4.3496,4.3359,4.3359,4.3125,4.3105,4.334,4.3359,4.3457,4.3711,4.3711,4.3546,4.3068,4.255,4.1528,4.0518,3.9992,3.774,3.4303,3.3777,3.2896,3.1848,3.1493,3.0973,3.0272,3.0272,3.0093,2.9913,2.9913,2.9913,2.9913,2.9913,2.9913,2.9913,2.9913,2.9913,2.9913,2.9913,2.9913,2.9913,2.9913,2.9913,2.9913,2.9913,2.9913,2.9913,2.9913,2.9913,2.9913,2.9913,2.9913,2.9913,2.9913,2.9913,2.9913,2.9913,2.9913,2.9913,2.9913,2.9913,2.9913,2.9913,2.9913,2.9913,2.9913,2.9913,2.9913,2.9913,2.9913,2.9913,2.9913,2.9913,2.9913,2.9913,2.9913,2.9913,2.9913,2.9913,2.9913,2.9913,2.9913,2.9913,2.9913,2.9913,2.9913,0.0,0.0,0.0,0.0,0.0,0.0,0.0,0.0,0.0,0.0,0.0,0.0,0.0,0.0,0.0,0.0,0.0,4.3711,4.3711,4.3711,4.3711,4.3711,4.3711,4.3711,4.3711,4.3711,4.3652,4.3555,4.3262,4.3027,4.291,4.2598,4.2578,4.2891,4.3027,4.3183,4.3379,4.3496,4.339,4.306,4.3176,4.2882,4.2049,4.1695,3.9974,3.7069,3.6031,3.4813,3.3249,3.2719,3.1848,3.0794,3.0616,3.0258,2.9913,2.9913,2.9913,2.9913,2.9913,2.9913,2.9913,2.9913,2.9913,2.9913,2.9913,2.9913,2.9913,2.9913,2.9913,2.9913,2.9913,2.9913,2.9913,2.9913,2.9913,2.9913,2.9913,2.9913,2.9913,2.9913,2.9913,2.9913,2.9913,2.9913,2.9913,2.9913,2.9913,2.9913,2.9913,2.9913,2.9913,2.9913,2.9913,2.9913,2.9913,2.9913,2.9913,2.9913,2.9913,2.9913,2.9913,2.9913,2.9913,2.9913,2.9913,2.9913,2.9913,2.9913,2.9913,2.9913,2.9913,2.9913,0.0,0.0,0.0,0.0,0.0,0.0,0.0,0.0,0.0,0.0,0.0,0.0,0.0,0.0,0.0,0.0,4.3711,4.3711,4.3711,4.3711,4.3711,4.3711,4.3711,4.3711,4.3711,4.3711,4.3535,4.3144,4.3086,4.2891,4.248,4.2441,4.2441,4.2461,4.2871,4.2891,4.25,4.291,4.3105,4.3125,4.3516,4.338,4.3068,4.3068,4.2383,4.1192,3.9143,3.6724,3.4653,3.4128,3.2896,3.1137,3.0794,3.0258,2.9913,2.9913,2.9913,2.9913,2.9913,2.9913,2.9913,2.9913,2.9913,2.9913,2.9913,2.9913,2.9913,2.9913,2.9913,2.9913,2.9913,2.9913,2.9913,2.9913,2.9913,2.9913,2.9913,2.9913,2.9913,2.9913,2.9913,2.9913,2.9913,2.9913,2.9913,2.9913,2.9913,2.9913,2.9913,2.9913,2.9913,2.9913,2.9913,2.9913,2.9913,2.9913,2.9913,2.9913,2.9913,2.9913,2.9913,2.9913,2.9913,2.9913,2.9913,2.9913,2.9913,2.9913,2.9913,2.9913,2.9913,2.9913,3.4316,0.0,0.0,0.0,0.0,0.0,0.0,0.0,0.0,0.0,0.0,0.0,0.0,0.0,0.0,4.3711,4.3711,4.3711,4.3711,4.3711,4.3711,4.3711,4.3711,4.3711,4.3711,4.3711,4.3535,4.3105,4.2812,4.248,4.2051,4.1777,4.1738,4.2012,4.2168,4.2305,4.2422,4.2578,4.2793,4.3086,4.3223,4.3437,4.3546,4.3546,4.3214,4.255,4.1695,3.9823,3.743,3.6394,3.4828,3.3073,3.1848,3.0973,3.0258,3.0093,2.9913,2.9913,2.9913,2.9913,2.9913,2.9913,2.9913,2.9913,2.9913,2.9913,2.9913,2.9913,2.9913,2.9913,2.9913,2.9913,2.9913,2.9913,2.9913,2.9913,2.9913,2.9913,2.9913,2.9913,2.9913,2.9913,2.9913,2.9913,2.9913,2.9913,2.9913,2.9913,2.9913,2.9913,2.9913,2.9913,2.9913,2.9913,2.9913,2.9913,2.9913,2.9913,2.9913,2.9913,2.9913,2.9913,2.9913,2.9913,2.9913,2.9913,2.9913,2.9913,2.9913,2.9913,2.9913,2.9913,3.3848,3.4512,0.0,0.0,0.0,0.0,0.0,0.0,0.0,0.0,0.0,0.0,0.0,0.0,4.3711,4.3711,4.3711,4.3711,4.3711,4.3711,4.3711,4.3711,4.3711,4.3711,4.3711,4.3711,4.3476,4.2891,4.2598,0.0,4.1621,4.1328,4.1367,4.1797,4.166,4.1797,4.2207,4.2207,4.2363,4.2656,4.293,4.3223,4.3496,4.3633,4.3546,4.3234,4.3234,4.1863,3.9331,3.8135,3.6394,3.4128,3.2719,3.1493,3.0616,3.0093,2.9913,2.9913,2.9913,2.9913,2.9913,2.9913,2.9913,2.9913,2.9913,2.9913,2.9913,2.9913,2.9913,2.9913,2.9913,2.9913,2.9913,2.9913,2.9913,2.9913,2.9913,2.9913,2.9913,2.9913,2.9913,2.9913,2.9913,2.9913,2.9913,2.9913,2.9913,2.9913,2.9913,2.9913,2.9913,2.9913,2.9913,2.9913,2.9913,2.9913,2.9913,2.9913,2.9913,2.9913,2.9913,2.9913,2.9913,2.9913,2.9913,2.9913,2.9913,2.9913,2.9913,2.9913,2.9913,2.9913,0.0,0.0,0.0,0.0,0.0,0.0,0.0,0.0,0.0,0.0,0.0,0.0,0.0,4.3379,4.3691,4.3691,4.3691,4.3711,4.3711,4.3711,4.3691,4.3691,4.3691,4.3691,4.3672,4.3672,4.332,4.248,4.2402,4.2051,4.1211,4.1172,4.1367,4.1758,4.1387,4.1367,4.1777,4.1777,4.1797,4.1816,4.2637,4.3047,4.3086,4.3496,4.3691,4.3711,4.3711,4.2531,4.0349,3.9501,3.743,3.4828,3.3249,3.1848,3.0616,3.0093,2.9913,2.9913,2.9913,2.9913,2.9913,2.9913,2.9913,2.9913,2.9913,2.9913,2.9913,2.9913,2.9913,2.9913,2.9913,2.9913,2.9913,2.9913,2.9913,2.9913,2.9913,2.9913,2.9913,2.9913,2.9913,2.9913,2.9913,2.9913,2.9913,2.9913,2.9913,2.9913,2.9913,2.9913,2.9913,2.9913,2.9913,2.9913,2.9913,2.9913,2.9913,2.9913,2.9913,2.9913,2.9913,2.9913,2.9913,2.9913,2.9913,2.9913,2.9913,2.9913,2.9913,2.9913,2.9913,2.9913,3.3379,0.0,0.0,0.0,0.0,0.0,0.0,0.0,0.0,0.0,0.0,0.0,4.166,4.2558,4.3242,4.3242,4.3496,4.3711,4.3711,4.3711,4.3594,4.3281,4.3242,4.3125,4.2812,4.2773,4.2558,0.0,4.1973,4.1738,4.1211,4.1172,4.123,4.1348,4.123,4.123,4.1348,4.1348,4.1504,4.1797,4.2031,4.248,4.3086,4.3203,4.3418,4.3711,4.3711,4.3048,4.1714,4.0518,3.8631,3.6584,3.4478,3.2896,3.1493,3.0616,3.0272,2.9913,2.9913,2.9913,2.9913,2.9913,2.9913,2.9913,2.9913,2.9913,2.9913,2.9913,2.9913,2.9913,2.9913,2.9913,2.9913,2.9913,2.9913,2.9913,2.9913,2.9913,2.9913,2.9913,2.9913,2.9913,2.9913,2.9913,2.9913,2.9913,2.9913,2.9913,2.9913,2.9913,2.9913,2.9913,2.9913,2.9913,2.9913,2.9913,2.9913,2.9913,2.9913,2.9913,2.9913,2.9913,2.9913,2.9913,2.9913,2.9913,2.9913,2.9913,2.9913,2.9913,2.9913,2.9913,3.3242,3.3613,3.3848,3.4023,0.0,0.0,3.5996,3.6855,0.0,0.0,0.0,4.041,4.0605,4.168,4.2539,4.2539,4.3047,4.3496,4.3691,4.3711,4.3555,4.3125,4.3086,4.291,4.2461,4.2422,4.2246,4.1836,4.1797,4.1621,4.1191,4.1172,4.1172,4.1172,4.1172,4.1172,4.1172,4.1172,4.1308,4.1543,4.1719,4.207,4.2558,4.291,4.3203,4.3457,4.3633,4.3214,4.2402,4.136,3.9653,3.7619,3.57,3.3952,3.2366,3.1315,3.0616,3.0093,2.9913,2.9913,2.9913,2.9913,2.9913,2.9913,2.9913,2.9913,2.9913,2.9913,2.9913,2.9913,2.9913,2.9913,2.9913,2.9913,2.9913,2.9913,2.9913,2.9913,2.9913,2.9913,2.9913,2.9913,2.9913,2.9913,2.9913,2.9913,2.9913,2.9913,2.9913,2.9913,2.9913,2.9913,2.9913,2.9913,2.9913,2.9913,2.9913,2.9913,2.9913,2.9913,2.9913,2.9913,2.9913,2.9913,2.9913,2.9913,2.9913,2.9913,2.9913,2.9913,2.9913,2.9913,3.3301,3.3418,3.3516,3.3906,3.4043,0.0,3.5059,3.5605,3.6172,0.0,0.0,3.9141,3.959,4.0684,4.1523,4.1582,4.2305,4.3047,4.3555,4.3672,4.3535,4.3066,4.3008,4.2812,4.2344,4.2285,4.2129,4.1758,4.1738,4.1562,4.1191,4.1172,4.1172,4.1172,4.1172,4.1172,4.1172,4.1172,4.1172,4.1172,4.1543,4.1758,4.1836,4.2637,4.3027,4.3105,4.3516,4.3214,4.2402,4.2049,4.05,3.8289,3.6913,3.5177,3.3425,3.2026,3.1151,3.0616,3.0093,2.9913,2.9913,3.0093,3.0093,3.0093,3.0093,3.0093,3.0093,2.9913,2.9913,2.9913,2.9913,2.9913,2.9913,2.9913,2.9913,2.9913,2.9913,2.9913,2.9913,2.9913,2.9913,2.9913,2.9913,2.9913,2.9913,2.9913,2.9913,2.9913,2.9913,2.9913,2.9913,2.9913,2.9913,2.9913,2.9913,2.9913,2.9913,2.9913,2.9913,2.9913,2.9913,2.9913,2.9913,2.9913,2.9913,2.9913,2.9913,2.9913,2.9913,2.9913,2.9913,2.9913,3.3301,3.3418,3.3437,3.3535,3.3809,0.0,3.4297,3.4941,3.5664,0.0,3.7012,3.7793,3.8223,3.9082,3.9824,4.0215,4.0976,4.1933,4.3047,4.3496,4.3418,4.2637,4.2558,4.2246,4.1484,4.1426,4.1387,4.1308,4.1289,4.125,4.1172,4.1172,4.1172,4.1172,4.1172,4.1172,4.1172,4.1172,4.1172,4.1172,4.125,4.1484,4.1816,4.2324,4.2754,4.3105,4.3516,4.338,4.2902,4.2902,4.1546,3.9348,3.7791,3.6221,3.4303,3.2896,3.1671,3.0616,3.0437,3.0437,3.0437,3.0973,3.0973,3.0973,3.0973,3.0973,3.0973,3.0616,3.0272,2.9913,2.9913,2.9913,2.9913,2.9913,2.9913,2.9913,2.9913,2.9913,2.9913,2.9913,2.9913,2.9913,2.9913,2.9913,2.9913,2.9913,2.9913,2.9913,2.9913,2.9913,2.9913,2.9913,2.9913,2.9913,2.9913,2.9913,2.9913,2.9913,2.9913,2.9913,2.9913,2.9913,2.9913,2.9913,2.9913,2.9913,2.9913,2.9913,2.9913,2.9913,2.9913,2.9913,3.4004,3.4062,3.4062,3.4062,3.4062,0.0,0.0,3.4154,3.4541,3.4622,3.5181,3.5973,3.6325,3.7061,3.7922,3.8535,3.9492,4.0488,4.1367,4.2402,4.2832,4.2187,4.2109,4.1875,4.123,4.1172,4.1172,4.1172,4.1172,4.1172,4.1172,4.1172,4.1172,4.1172,4.1172,4.1172,4.1172,4.1172,4.1172,4.1172,4.1172,4.1289,4.1504,4.1933,4.2344,4.2773,4.3203,4.3351,4.3068,4.3068,4.2235,4.0873,3.9501,3.7946,3.6378,3.4638,3.3425,3.2189,3.1848,3.1671,3.1671,3.1848,3.2026,3.2026,3.2026,3.1848,3.1493,3.1151,3.0616,3.0272,2.9913,2.9913,2.9913,2.9913,2.9913,2.9913,2.9913,2.9913,2.9913,2.9913,2.9913,2.9913,2.9913,2.9913,2.9913,2.9913,2.9913,2.9913,2.9913,2.9913,2.9913,2.9913,2.9913,2.9913,2.9913,2.9913,2.9913,2.9913,2.9913,2.9913,2.9913,2.9913,2.9913,2.9913,2.9913,2.9913,2.9913,2.9913,2.9913,2.9913,2.9913,2.9913,3.4922,3.4824,3.4726,3.4805,3.4453,3.4062,0.0,0.0,0.0,3.2898,3.3426,0.0,0.0,0.0,0.0,0.0,0.0,0.0,0.0,4.0762,0.0,4.1562,4.1562,4.1426,4.1074,4.1055,4.1016,4.0937,4.0996,4.1055,4.1055,4.1133,4.1172,4.1172,4.1172,4.1172,4.1172,4.1172,4.1172,4.1172,4.1172,4.1172,4.1191,4.1601,4.1992,4.2344,4.2851,4.3117,4.3118,4.3195,4.3068,4.2569,4.1042,3.9671,3.8289,3.6394,3.5177,3.4303,3.3425,3.3249,3.3249,3.3425,3.3601,3.3425,3.3425,3.2896,3.2366,3.2026,3.1493,3.0973,3.0616,3.0451,3.0272,3.0272,3.0093,3.0093,3.0093,2.9913,2.9913,2.9913,2.9913,2.9913,2.9913,2.9913,2.9913,2.9913,2.9913,2.9913,2.9913,2.9913,2.9913,2.9913,2.9913,2.9913,2.9913,2.9913,2.9913,2.9913,2.9913,2.9913,2.9913,2.9913,2.9913,2.9913,2.9913,2.9913,2.9913,2.9913,2.9913,2.9913,2.9913,2.9913,3.5762,3.5293,3.4805,3.5215,3.4687,3.4062,3.3695,0.0,3.2464,3.2152,0.0,3.2335,0.0,0.0,0.0,0.0,0.0,0.0,3.7615,3.8506,3.9414,4.0527,4.0664,4.0644,4.0605,4.0586,4.0449,4.0078,4.0391,4.0586,4.0586,4.0957,4.1172,4.1172,4.1172,4.1172,4.1172,4.1172,4.1172,4.1172,4.1172,4.1172,4.1191,4.1601,4.1836,4.1914,4.2734,4.3105,4.3183,4.3555,4.3546,4.338,4.1546,4.0349,3.9313,3.743,3.6221,3.5352,3.5177,3.5177,3.5352,3.6221,3.6394,3.6394,3.5874,3.5177,3.4303,3.3952,3.3073,3.2366,3.2366,3.2026,3.1848,3.1848,3.1137,3.0437,3.0437,3.0272,2.9913,2.9913,2.9913,2.9913,2.9913,2.9913,2.9913,2.9913,2.9913,2.9913,2.9913,2.9913,2.9913,2.9913,2.9913,2.9913,2.9913,2.9913,2.9913,2.9913,2.9913,2.9913,2.9913,2.9913,2.9913,2.9913,2.9913,2.9913,2.9913,2.9913,2.9913,2.9913,2.9913,2.9913,3.6719,3.6309,3.5898,3.6094,3.5273,3.4303,3.38,3.2765,3.1617,3.1103,0.0,0.0,0.0,0.0,0.0,0.0,3.349,3.4364,0.0,0.0,3.7391,3.9199,0.0,0.0,3.9726,4.0,4.0078,3.9902,4.0273,4.0527,4.0527,4.0937,4.1172,4.1172,4.1172,4.1172,4.1172,4.1172,4.1172,4.1172,4.1172,4.1172,4.1172,4.1348,4.1562,4.1816,4.2187,4.2617,4.3086,4.3262,4.3476,4.3546,4.255,4.1882,4.1024,3.9823,3.8785,3.8272,3.7929,3.7929,3.7929,3.8272,3.8443,3.8443,3.7946,3.743,3.6551,3.5526,3.4828,3.4128,3.3601,3.3425,3.3073,3.2896,3.2366,3.1671,3.1151,3.0616,3.0272,2.9913,2.9913,2.9913,2.9913,2.9913,2.9913,2.9913,2.9913,2.9913,2.9913,2.9913,2.9913,2.9913,2.9913,2.9913,2.9913,2.9913,2.9913,2.9913,2.9913,2.9913,2.9913,2.9913,2.9913,2.9913,2.9913,2.9913,2.9913,2.9913,2.9913,2.9913,2.9913,2.9913,3.7617,3.7246,3.6836,3.6836,3.5859,3.4751,3.3956,3.2655,3.1262,3.0467,2.9529,0.0,0.0,0.0,2.9543,3.0618,0.0,3.2411,3.3108,3.4237,3.5662,3.7553,3.8086,0.0,0.0,3.9082,3.9355,3.9355,3.9746,4.0098,4.0332,4.0762,4.1055,4.1172,4.1172,4.1172,4.1172,4.1172,4.1172,4.1172,4.1172,4.1172,4.1172,4.1172,4.1348,4.1641,4.1758,4.2226,4.291,4.3027,4.332,4.3711,4.338,4.3068,4.255,4.1528,4.1005,4.0668,4.0331,4.0331,4.0331,4.0331,4.0331,4.0331,3.9841,3.9483,3.8785,3.7586,3.6896,3.6551,3.5858,3.551,3.5162,3.4638,3.3937,3.3073,3.2203,3.1671,3.1151,3.0794,3.0616,3.0437,3.0437,3.0093,2.9913,2.9913,2.9913,2.9913,2.9913,2.9913,2.9913,2.9913,2.9913,2.9913,2.9913,2.9913,2.9913,2.9913,2.9913,2.9913,2.9913,2.9913,2.9913,2.9913,2.9913,2.9913,2.9913,2.9913,2.9913,2.9913,2.9913,2.9913,3.8418,0.0,0.0,3.7266,0.0,3.5218,3.4393,3.3066,3.1547,3.0597,2.985,2.9012,2.834,2.8478,2.8753,2.8891,2.9986,0.0,0.0,3.2892,3.4165,3.5451,3.6697,3.7344,0.0,3.7734,3.7988,3.7988,3.8398,3.9004,3.9863,4.0312,4.0742,4.1172,4.1172,4.1172,4.1172,4.1172,4.1172,4.1172,4.1172,4.1172,4.1172,4.1172,4.1172,4.1211,4.1621,4.2051,4.248,4.291,4.332,4.3711,4.3711,4.3711,4.3546,4.2197,4.1695,4.1695,4.1695,4.1882,4.2235,4.2235,4.2235,4.2235,4.1695,4.1341,4.0819,4.0331,3.9805,3.9466,3.9483,3.8802,3.8118,3.7586,3.6031,3.4653,3.4128,3.3249,3.2543,3.2543,3.2203,3.1848,3.1848,3.0794,2.9913,2.9913,2.9913,2.9913,2.9913,2.9913,2.9913,2.9913,2.9913,2.9913,2.9913,2.9913,2.9913,2.9913,2.9913,2.9913,2.9913,2.9913,2.9913,2.9913,2.9913,2.9913,2.9913,2.9913,2.9913,2.9913,2.9913,2.9913,0.0,0.0,3.8144,3.8144,0.0,0.0,3.5258,3.3629,3.2284,3.1996,3.0496,2.9346,2.926,2.883,2.8429,2.8478,2.9243,2.9967,0.0,3.1781,3.3306,3.4406,3.5607,3.6445,3.6445,3.709,3.75,3.75,3.8472,3.9169,3.9465,4.0583,4.1198,4.1183,4.148,4.1483,4.1172,4.1172,4.1172,4.1172,4.1172,4.1172,4.1172,4.1172,4.1172,4.1172,4.1328,4.1777,4.2441,4.2578,4.3066,4.3711,4.3711,4.3711,4.3711,4.3195,4.3029,4.3029,4.3029,4.3214,4.3214,4.3214,4.3214,4.3214,4.2716,4.255,4.2197,4.1528,4.1192,4.0837,4.0687,4.0349,3.9841,3.916,3.8289,3.7258,3.5874,3.5003,3.4303,3.3777,3.3425,3.3249,3.2896,3.2543,3.1848,3.0616,3.0093,2.9913,2.9913,2.9913,2.9913,2.9913,2.9913,2.9913,2.9913,2.9913,2.9913,2.9913,3.0272,3.0437,3.0437,3.0616,3.0794,3.0794,3.1137,3.1315,3.1315,3.1671,3.1671,3.1671,3.1493,3.0794,4.0053,3.9473,0.0,3.8848,3.7734,0.0,3.6282,3.4921,3.3668,3.3513,3.2123,3.0758,3.0684,2.9802,2.8879,2.8542,2.8989,2.9747,0.0,3.1635,3.2772,3.3681,3.4726,3.5391,3.5527,3.6191,3.668,3.6836,3.7924,3.868,3.9156,4.0572,4.1404,4.1554,4.2149,4.2236,4.1793,4.1793,4.1638,4.1483,4.1483,4.1327,4.1172,4.1172,4.1172,4.1172,4.1172,4.166,4.2422,4.2422,4.293,4.3711,4.3711,4.3711,4.3711,4.3711,4.3711,4.3711,4.3711,4.3711,4.3711,4.3711,4.3711,4.3711,4.338,4.338,4.3214,4.2531,4.2364,4.2364,4.203,4.1882,4.1546,4.0873,4.018,3.9313,3.7946,3.7241,3.6724,3.6188,3.5858,3.551,3.5162,3.4638,3.3601,3.1671,3.1151,3.0794,3.0616,3.0616,3.0437,3.0272,3.0093,3.0093,2.9913,3.0093,3.0093,3.0093,3.0794,3.1151,3.1151,3.1671,3.2026,3.2026,3.2543,3.2719,3.2719,3.3073,3.3249,3.3249,3.2896,3.2203]},{"header":{"parameterUnit":"m.s-1","parameterCategory":1,"la1":30.6,"la2":29.2853,"lo1":-89.7004,"lo2":-87.6739,"dy":0.0162,"dx":0.0183,"nx":112,"ny":82,"refTime":"2025-03-16T06:00:00:Z","depth":0,"parameterNumber":3,"parameterNumberName":"V-component_of_WINDS"},"data":[0.0,0.0,0.0,0.0,0.0,0.0,0.0,0.0,0.0,0.0,0.0,0.0,0.0,0.0,0.0,0.0,0.0,0.0,0.0,0.0,0.0,0.0,0.0,0.0,0.0,0.0,0.0,0.0,0.0,0.0,0.0,0.0,0.0,0.0,0.0,0.0,0.0,0.0,0.0,0.0,0.0,0.0,0.0,0.0,0.0,0.0,0.0,0.0,0.0,0.0,0.0,0.0,0.0,0.0,0.0,0.0,0.0,0.0,0.0,0.0,0.0,0.0,0.0,0.0,0.0,0.0,0.0,0.0,0.0,0.0,0.0,0.0,0.0,0.0,0.0,0.0,0.0,0.0,0.0,0.0,0.0,0.0,0.0,0.0,0.0,0.0,0.0,0.0,0.0,0.0,-5.2195,-5.4986,-5.7716,-5.8796,-5.7389,-5.7384,-5.6121,-5.3124,0.0,0.0,0.0,0.0,0.0,0.0,0.0,0.0,0.0,0.0,0.0,0.0,0.0,0.0,0.0,0.0,0.0,0.0,0.0,0.0,0.0,0.0,0.0,0.0,0.0,0.0,0.0,0.0,0.0,0.0,0.0,0.0,0.0,0.0,0.0,0.0,0.0,0.0,0.0,0.0,0.0,0.0,0.0,0.0,0.0,0.0,0.0,0.0,0.0,0.0,0.0,0.0,0.0,0.0,0.0,0.0,0.0,0.0,0.0,0.0,0.0,0.0,0.0,0.0,0.0,0.0,0.0,0.0,0.0,0.0,0.0,0.0,0.0,0.0,0.0,0.0,0.0,0.0,0.0,0.0,0.0,0.0,0.0,0.0,0.0,0.0,0.0,0.0,0.0,0.0,0.0,0.0,0.0,0.0,0.0,0.0,0.0,0.0,0.0,0.0,0.0,0.0,0.0,0.0,-5.2605,-5.6217,-5.8417,-5.9303,-5.8419,-5.7916,-5.6567,-5.4053,0.0,0.0,0.0,0.0,0.0,0.0,0.0,0.0,0.0,0.0,0.0,0.0,0.0,0.0,0.0,0.0,0.0,0.0,0.0,0.0,0.0,0.0,0.0,0.0,0.0,0.0,0.0,0.0,0.0,0.0,0.0,0.0,0.0,0.0,0.0,0.0,0.0,0.0,0.0,0.0,0.0,0.0,0.0,0.0,0.0,0.0,0.0,0.0,0.0,0.0,0.0,0.0,0.0,0.0,0.0,0.0,0.0,0.0,0.0,0.0,0.0,0.0,0.0,0.0,0.0,0.0,0.0,0.0,0.0,0.0,0.0,0.0,0.0,0.0,0.0,0.0,0.0,0.0,0.0,0.0,0.0,0.0,0.0,0.0,0.0,0.0,0.0,0.0,0.0,0.0,0.0,0.0,0.0,0.0,0.0,0.0,0.0,0.0,0.0,0.0,0.0,0.0,0.0,-5.32,-5.5025,-5.7302,-5.8933,-5.9322,-5.8097,-5.7873,-5.6575,-5.3704,-5.3177,0.0,0.0,0.0,0.0,0.0,0.0,0.0,0.0,0.0,0.0,0.0,0.0,0.0,0.0,0.0,0.0,0.0,0.0,0.0,0.0,0.0,0.0,0.0,0.0,0.0,0.0,0.0,0.0,0.0,0.0,0.0,0.0,0.0,0.0,0.0,0.0,0.0,0.0,0.0,0.0,0.0,0.0,0.0,0.0,0.0,0.0,0.0,0.0,0.0,0.0,0.0,0.0,0.0,0.0,0.0,0.0,0.0,0.0,0.0,0.0,0.0,0.0,0.0,0.0,0.0,0.0,0.0,0.0,0.0,0.0,0.0,0.0,0.0,0.0,0.0,0.0,0.0,0.0,0.0,0.0,0.0,0.0,0.0,0.0,0.0,0.0,0.0,0.0,0.0,0.0,0.0,0.0,0.0,0.0,0.0,0.0,0.0,0.0,0.0,0.0,0.0,0.0,-5.4876,-5.7005,-5.794,-5.8971,-5.9014,-5.7628,-5.7576,-5.6294,-5.3222,-5.314,0.0,0.0,0.0,0.0,0.0,0.0,0.0,0.0,0.0,0.0,0.0,0.0,0.0,0.0,0.0,0.0,0.0,0.0,0.0,0.0,0.0,0.0,0.0,0.0,0.0,0.0,0.0,0.0,0.0,0.0,0.0,0.0,0.0,0.0,0.0,0.0,0.0,0.0,0.0,0.0,0.0,0.0,0.0,0.0,0.0,0.0,0.0,0.0,0.0,0.0,0.0,0.0,0.0,0.0,0.0,0.0,0.0,0.0,0.0,0.0,0.0,0.0,0.0,0.0,0.0,0.0,0.0,0.0,0.0,0.0,0.0,0.0,0.0,0.0,0.0,0.0,0.0,0.0,0.0,0.0,0.0,0.0,0.0,0.0,0.0,0.0,0.0,0.0,0.0,0.0,0.0,0.0,0.0,0.0,0.0,0.0,0.0,0.0,0.0,0.0,0.0,0.0,-5.4723,-5.6817,-5.7791,-5.8339,-5.8305,-5.7552,-5.7069,-5.5681,-5.3146,-5.314,0.0,0.0,0.0,0.0,0.0,0.0,0.0,0.0,0.0,0.0,0.0,0.0,0.0,0.0,0.0,0.0,0.0,0.0,0.0,0.0,0.0,0.0,0.0,0.0,0.0,0.0,0.0,0.0,0.0,0.0,0.0,0.0,0.0,0.0,0.0,0.0,0.0,0.0,0.0,0.0,0.0,0.0,0.0,0.0,0.0,0.0,0.0,0.0,0.0,0.0,0.0,0.0,0.0,0.0,0.0,0.0,0.0,0.0,0.0,0.0,0.0,0.0,0.0,0.0,0.0,0.0,0.0,0.0,0.0,0.0,0.0,0.0,0.0,0.0,0.0,0.0,0.0,0.0,0.0,0.0,0.0,0.0,0.0,0.0,0.0,0.0,0.0,0.0,0.0,0.0,0.0,0.0,0.0,0.0,0.0,0.0,0.0,0.0,0.0,0.0,0.0,0.0,-5.5173,-5.7117,-5.8615,-5.8603,-5.8229,-5.7612,-5.703,-5.5667,-5.3229,0.0,0.0,0.0,0.0,0.0,0.0,0.0,0.0,0.0,0.0,0.0,0.0,0.0,0.0,0.0,0.0,0.0,0.0,0.0,0.0,0.0,0.0,0.0,0.0,0.0,0.0,0.0,0.0,0.0,0.0,0.0,0.0,0.0,0.0,0.0,0.0,0.0,0.0,0.0,0.0,0.0,0.0,0.0,0.0,0.0,0.0,0.0,0.0,0.0,0.0,0.0,0.0,0.0,0.0,0.0,0.0,0.0,0.0,0.0,0.0,0.0,0.0,0.0,0.0,0.0,0.0,0.0,0.0,0.0,0.0,0.0,0.0,0.0,0.0,0.0,0.0,0.0,0.0,0.0,0.0,0.0,0.0,0.0,0.0,0.0,0.0,0.0,0.0,0.0,0.0,0.0,0.0,0.0,0.0,0.0,0.0,0.0,0.0,0.0,0.0,0.0,0.0,-5.3571,-5.5473,-5.7342,-5.9139,-5.8857,-5.8325,-5.7701,-5.7084,-5.5691,-5.3251,0.0,0.0,0.0,0.0,0.0,0.0,0.0,0.0,0.0,0.0,0.0,0.0,0.0,0.0,0.0,0.0,0.0,0.0,0.0,0.0,0.0,0.0,0.0,0.0,0.0,0.0,0.0,0.0,0.0,0.0,0.0,0.0,0.0,0.0,0.0,0.0,0.0,0.0,0.0,0.0,0.0,0.0,0.0,0.0,0.0,0.0,0.0,0.0,0.0,0.0,0.0,0.0,0.0,0.0,0.0,0.0,0.0,0.0,0.0,0.0,0.0,0.0,0.0,0.0,0.0,0.0,0.0,0.0,0.0,0.0,0.0,0.0,0.0,0.0,0.0,0.0,0.0,0.0,0.0,0.0,0.0,0.0,0.0,0.0,0.0,0.0,0.0,0.0,0.0,0.0,0.0,0.0,0.0,0.0,0.0,0.0,0.0,0.0,0.0,0.0,0.0,0.0,-5.3571,-5.551,-5.7414,-5.9248,-5.8987,-5.8441,-5.7787,-5.7124,-5.5738,0.0,0.0,0.0,0.0,0.0,0.0,0.0,0.0,0.0,0.0,0.0,0.0,0.0,0.0,0.0,0.0,0.0,0.0,0.0,0.0,0.0,0.0,0.0,0.0,0.0,0.0,0.0,0.0,0.0,0.0,0.0,0.0,0.0,0.0,0.0,0.0,0.0,0.0,0.0,0.0,0.0,0.0,0.0,0.0,0.0,0.0,0.0,0.0,0.0,0.0,0.0,0.0,0.0,0.0,0.0,0.0,0.0,0.0,0.0,0.0,0.0,0.0,0.0,0.0,0.0,0.0,0.0,0.0,0.0,0.0,0.0,0.0,0.0,0.0,0.0,0.0,0.0,0.0,0.0,0.0,0.0,0.0,0.0,0.0,0.0,0.0,0.0,0.0,0.0,0.0,0.0,0.0,0.0,0.0,0.0,0.0,0.0,0.0,0.0,0.0,0.0,0.0,0.0,-5.4129,-5.5993,-5.7819,-5.9747,-5.9367,-5.8939,-5.8846,-5.7632,-5.6076,-5.422,0.0,0.0,0.0,0.0,0.0,0.0,0.0,0.0,0.0,0.0,0.0,0.0,0.0,0.0,0.0,0.0,0.0,0.0,0.0,0.0,0.0,0.0,0.0,0.0,0.0,0.0,0.0,0.0,0.0,0.0,0.0,0.0,0.0,0.0,0.0,0.0,0.0,0.0,0.0,0.0,0.0,0.0,0.0,0.0,0.0,0.0,0.0,0.0,0.0,0.0,0.0,0.0,0.0,0.0,0.0,0.0,0.0,0.0,0.0,0.0,0.0,0.0,0.0,0.0,0.0,0.0,0.0,0.0,0.0,0.0,0.0,0.0,0.0,0.0,0.0,0.0,0.0,0.0,0.0,0.0,0.0,0.0,0.0,0.0,0.0,0.0,0.0,0.0,0.0,0.0,0.0,0.0,0.0,0.0,0.0,0.0,0.0,0.0,0.0,0.0,0.0,0.0,-5.4511,-5.6337,-5.8196,-6.0113,-5.9993,-5.9613,-5.9344,-5.8189,-5.6621,-5.4626,0.0,0.0,0.0,0.0,0.0,0.0,0.0,0.0,0.0,0.0,0.0,0.0,0.0,0.0,0.0,0.0,0.0,0.0,0.0,0.0,0.0,0.0,0.0,0.0,0.0,0.0,0.0,0.0,0.0,0.0,0.0,0.0,0.0,0.0,0.0,0.0,0.0,0.0,0.0,0.0,0.0,0.0,0.0,0.0,0.0,0.0,0.0,0.0,0.0,0.0,0.0,0.0,0.0,0.0,0.0,0.0,0.0,0.0,0.0,0.0,0.0,0.0,0.0,0.0,0.0,0.0,0.0,0.0,0.0,0.0,0.0,0.0,0.0,0.0,0.0,0.0,0.0,0.0,0.0,0.0,0.0,0.0,0.0,0.0,0.0,0.0,0.0,0.0,0.0,0.0,0.0,0.0,0.0,0.0,0.0,0.0,0.0,0.0,0.0,0.0,0.0,0.0,-5.4762,-5.6643,-5.8459,-6.0353,-6.0635,-6.0402,-5.9571,-5.8796,-5.728,-5.4895,0.0,0.0,0.0,0.0,0.0,0.0,0.0,0.0,0.0,0.0,0.0,0.0,0.0,0.0,0.0,0.0,0.0,0.0,0.0,0.0,0.0,0.0,0.0,0.0,0.0,0.0,0.0,0.0,0.0,0.0,0.0,0.0,0.0,0.0,0.0,0.0,0.0,0.0,0.0,0.0,0.0,0.0,0.0,0.0,0.0,0.0,0.0,0.0,0.0,0.0,0.0,0.0,0.0,0.0,0.0,0.0,0.0,0.0,0.0,0.0,-5.6902,0.0,0.0,0.0,0.0,0.0,0.0,0.0,0.0,0.0,0.0,0.0,0.0,0.0,0.0,0.0,0.0,0.0,0.0,0.0,0.0,0.0,0.0,0.0,0.0,0.0,0.0,0.0,0.0,0.0,0.0,0.0,0.0,0.0,0.0,0.0,0.0,0.0,0.0,0.0,0.0,0.0,-5.5082,-5.6956,-5.8755,-6.0556,-6.0757,-6.0681,-6.0527,-5.9165,-5.778,-5.6549,-5.3587,0.0,0.0,0.0,0.0,0.0,0.0,0.0,0.0,0.0,0.0,0.0,0.0,0.0,0.0,0.0,0.0,0.0,0.0,0.0,0.0,0.0,0.0,0.0,0.0,0.0,0.0,0.0,0.0,0.0,0.0,0.0,0.0,0.0,0.0,0.0,0.0,0.0,0.0,0.0,0.0,0.0,0.0,0.0,0.0,0.0,0.0,0.0,0.0,0.0,0.0,0.0,0.0,0.0,0.0,0.0,0.0,0.0,0.0,0.0,0.0,-5.8103,0.0,0.0,0.0,0.0,0.0,0.0,0.0,0.0,0.0,0.0,0.0,0.0,0.0,0.0,0.0,0.0,0.0,0.0,0.0,0.0,0.0,0.0,0.0,0.0,0.0,0.0,0.0,0.0,0.0,0.0,0.0,0.0,0.0,0.0,0.0,0.0,0.0,0.0,0.0,0.0,-5.5972,-5.7807,-5.943,-6.0783,-6.0959,-6.0959,-6.0959,-5.978,-5.8487,-5.7176,-5.4631,0.0,0.0,0.0,0.0,0.0,0.0,0.0,0.0,0.0,0.0,0.0,0.0,0.0,0.0,0.0,0.0,0.0,0.0,0.0,0.0,0.0,0.0,0.0,0.0,0.0,0.0,0.0,0.0,0.0,0.0,0.0,0.0,0.0,0.0,0.0,0.0,0.0,0.0,0.0,0.0,0.0,0.0,0.0,0.0,0.0,0.0,0.0,0.0,0.0,0.0,0.0,0.0,0.0,-6.1534,-6.1915,-6.2531,-6.2838,-6.2964,-6.2891,-6.1277,-6.042,-6.0085,-5.9676,0.0,0.0,0.0,0.0,0.0,0.0,0.0,0.0,0.0,0.0,0.0,0.0,0.0,0.0,0.0,0.0,0.0,0.0,0.0,0.0,0.0,0.0,-5.7301,-5.8386,-5.8017,-5.7046,-5.5721,0.0,0.0,0.0,0.0,0.0,0.0,0.0,0.0,0.0,0.0,0.0,-5.712,-5.8876,-6.0383,-6.1446,-6.1407,-6.133,-6.133,-6.0422,-5.9186,-5.7755,-5.5865,-5.3841,0.0,0.0,0.0,0.0,0.0,0.0,0.0,0.0,0.0,0.0,0.0,0.0,0.0,0.0,0.0,0.0,0.0,0.0,0.0,0.0,0.0,0.0,0.0,0.0,0.0,0.0,0.0,0.0,0.0,0.0,0.0,0.0,-6.3407,-6.2795,0.0,0.0,0.0,0.0,0.0,0.0,0.0,0.0,0.0,0.0,0.0,0.0,0.0,-6.3323,-6.3531,-6.3852,-6.3964,-6.4056,-6.5059,-6.5257,-6.4709,-6.551,-6.5946,-6.5909,-6.494,0.0,-6.1361,-6.1529,0.0,0.0,0.0,0.0,0.0,0.0,0.0,0.0,0.0,0.0,0.0,0.0,0.0,0.0,0.0,0.0,0.0,0.0,0.0,0.0,0.0,0.0,-5.9407,-6.1083,-6.0825,-6.0411,-6.0926,-5.7958,-5.4956,-5.4172,-5.4105,-5.3589,0.0,0.0,0.0,0.0,0.0,0.0,-5.8164,-5.9963,-6.163,-6.3275,-6.2771,-6.2327,-6.2327,-6.0816,-5.9791,-5.9564,-5.7224,-5.5697,-5.5299,-5.236,0.0,0.0,0.0,0.0,0.0,0.0,0.0,0.0,0.0,0.0,0.0,0.0,0.0,0.0,0.0,0.0,0.0,0.0,0.0,0.0,0.0,0.0,0.0,0.0,0.0,0.0,0.0,0.0,0.0,-6.3611,-6.3972,-6.4074,-6.4393,-6.4002,0.0,0.0,0.0,0.0,0.0,0.0,0.0,0.0,0.0,-6.5274,-6.5429,-6.57,-6.6041,-6.6189,-6.6519,-6.7012,-6.7488,-6.7799,-6.7963,-6.8348,-6.8586,-6.8603,-6.8235,-6.7414,-6.6086,-6.3789,-6.2599,-6.2113,0.0,0.0,0.0,0.0,-6.0643,-6.0747,-6.1292,-6.1538,-6.1492,-6.1086,0.0,0.0,0.0,0.0,0.0,0.0,0.0,-5.8702,-6.0012,-6.1042,-6.1957,-6.2772,-6.2716,-6.2523,-6.2909,-6.152,-5.9472,-5.7054,-5.5923,-5.4959,-5.3721,-5.3204,0.0,0.0,0.0,-5.7884,-5.9996,-6.1783,-6.3118,-6.3881,-6.3609,-6.339,-6.339,-6.2692,-6.1849,-6.0851,-5.9657,-5.8372,-5.6907,-5.4929,-5.3222,0.0,0.0,0.0,0.0,0.0,0.0,0.0,0.0,0.0,0.0,0.0,0.0,0.0,0.0,0.0,0.0,0.0,0.0,0.0,0.0,0.0,0.0,0.0,0.0,0.0,0.0,0.0,0.0,-6.3951,-6.4596,-6.5346,-6.5405,-6.5164,0.0,0.0,0.0,0.0,0.0,0.0,-6.5812,-6.6151,-6.6954,-6.8182,-6.8299,-6.8398,-6.8476,-6.8476,-6.8715,-6.9229,-6.9412,-6.9743,-7.011,-7.0293,-7.0459,-7.0587,-7.0458,-7.0406,-7.0225,-6.6453,-6.4843,-6.4697,-6.365,-6.3213,-6.3117,-6.3283,-6.349,-6.3741,-6.377,-6.402,-6.4116,-6.3072,-6.2268,-6.1387,-5.9511,0.0,0.0,0.0,0.0,-6.1456,-6.2604,-6.3438,-6.4019,-6.429,-6.4367,-6.4367,-6.4367,-6.4211,-6.3129,-5.9958,-5.8278,-5.7013,-5.5939,-5.5137,0.0,-5.6691,-5.8254,-5.9971,-6.1938,-6.3536,-6.4548,-6.4782,-6.4587,-6.4481,-6.4442,-6.4246,-6.3553,-6.2249,-6.1673,-6.0526,-5.8635,-5.7067,-5.5357,-5.3475,0.0,0.0,0.0,0.0,0.0,0.0,0.0,0.0,0.0,0.0,0.0,0.0,0.0,0.0,0.0,0.0,0.0,0.0,0.0,0.0,0.0,0.0,0.0,0.0,0.0,0.0,0.0,0.0,0.0,-6.5888,-6.636,0.0,0.0,0.0,0.0,-6.5597,-6.594,-6.7053,-6.9031,-6.9163,-7.0069,-7.197,-7.2043,-7.1736,-7.1081,-7.1138,-7.077,-7.0036,-7.0807,-7.0807,-7.011,-7.0881,-7.1304,-7.1398,-7.0786,-7.1139,-7.1976,-6.9677,-6.809,-6.7087,-6.6425,-6.5824,-6.5253,-6.5312,-6.5877,-6.6595,-6.6737,-6.733,-6.7752,-6.6218,-6.4026,-6.205,-6.1935,-6.1328,0.0,0.0,-6.2161,-6.2723,-6.4425,-6.4906,-6.5136,-6.5989,-6.6183,-6.6183,-6.6183,-6.5591,-6.4481,-6.2581,-6.1569,-6.0522,-5.8894,0.0,-5.7798,-5.8734,-5.962,-6.1151,-6.3745,-6.4843,-6.5736,-6.6595,-6.5931,-6.5424,-6.5424,-6.4682,-6.4163,-6.4053,-6.2485,-6.1509,-6.1406,-5.8165,-5.6319,-5.6191,-5.2957,0.0,0.0,0.0,0.0,0.0,0.0,0.0,0.0,0.0,0.0,0.0,0.0,0.0,0.0,0.0,0.0,0.0,0.0,0.0,0.0,0.0,0.0,0.0,0.0,0.0,0.0,0.0,0.0,-6.8064,-6.8254,0.0,-6.8482,-6.8535,-6.8745,-6.9095,-6.9668,-7.0568,-7.1998,-7.2094,-7.2724,-7.3919,-7.4015,-7.3868,-7.3634,-7.312,-7.2679,-7.2422,-7.2165,-7.1908,-7.1651,-7.1945,-7.2206,-7.2447,-7.2331,-7.2795,-7.3513,-7.2482,-7.0799,-6.8939,-6.845,-6.7867,-6.7285,-6.7341,-6.756,-6.7829,-6.7883,-6.8075,-6.8179,-6.7051,-6.5705,-6.4436,-6.3858,-6.3137,-6.2706,-6.3604,-6.398,-6.4364,-6.564,-6.5995,-6.6135,-6.6461,-6.6553,-6.6553,-6.6553,-6.6334,-6.5933,-6.5272,-6.3586,-6.2057,-6.1484,-6.075,-6.0525,-6.1452,-6.2323,-6.3427,-6.4926,-6.5847,-6.6519,-6.683,-6.6596,-6.64,-6.64,-6.6127,-6.5463,-6.4326,-6.3689,-6.2813,-6.1705,-5.9378,-5.7882,-5.7317,-5.5031,-5.3053,0.0,0.0,0.0,0.0,0.0,0.0,0.0,0.0,0.0,0.0,0.0,0.0,0.0,0.0,0.0,0.0,0.0,0.0,0.0,0.0,0.0,0.0,0.0,0.0,0.0,0.0,-6.8116,-6.9968,-7.0206,-7.0545,-7.1315,-7.1572,-7.1977,-7.2762,-7.328,-7.4117,-7.5202,-7.5005,-7.5285,-7.613,-7.5873,-7.5579,-7.5322,-7.4771,-7.4221,-7.367,-7.3156,-7.2753,-7.2496,-7.2496,-7.2667,-7.3037,-7.3231,-7.3703,-7.4312,-7.4212,-7.3041,-7.1284,-7.0515,-6.9999,-6.9575,-6.9333,-6.9244,-6.9244,-6.9244,-6.909,-6.8744,-6.8167,-6.7436,-6.6628,-6.6051,-6.5331,-6.4849,-6.5522,-6.5606,-6.5669,-6.6361,-6.6567,-6.6633,-6.6708,-6.6708,-6.6708,-6.6719,-6.673,-6.6751,-6.6711,-6.5104,-6.3709,-6.373,-6.3054,-6.2811,-6.375,-6.4353,-6.5062,-6.5922,-6.6521,-6.6914,-6.6914,-6.6914,-6.6914,-6.6914,-6.664,-6.5976,-6.4805,-6.4177,-6.3354,-6.2184,-6.0457,-5.9123,-5.8303,-5.6317,-5.4171,-5.1828,0.0,0.0,0.0,0.0,0.0,0.0,0.0,0.0,0.0,0.0,0.0,0.0,0.0,0.0,0.0,0.0,0.0,0.0,0.0,0.0,0.0,0.0,0.0,-6.5963,-6.7167,-6.9015,-7.1464,-7.214,-7.3031,-7.459,-7.4865,-7.5334,-7.628,-7.668,-7.7368,-7.8589,-7.7855,-7.7781,-7.8552,-7.7781,-7.6974,-7.6166,-7.613,-7.5322,-7.378,-7.3744,-7.3303,-7.2532,-7.2532,-7.2704,-7.3037,-7.3231,-7.3703,-7.435,-7.4819,-7.4751,-7.4183,-7.2763,-7.2188,-7.2091,-7.1245,-7.0937,-7.0898,-7.0898,-7.0398,-6.9744,-6.9706,-6.9129,-6.8436,-6.8398,-6.7898,-6.7386,-6.7497,-6.7056,-6.6601,-6.6646,-6.6747,-6.679,-6.678,-6.6789,-6.6789,-6.6876,-6.6869,-6.685,-6.6834,-6.6151,-6.5533,-6.5535,-6.4882,-6.4653,-6.5512,-6.5658,0.0,-6.6797,-6.6914,-6.6914,-6.6914,-6.6914,-6.6914,-6.6914,-6.6094,-6.5586,-6.5547,-6.3945,-6.3008,-6.2969,-6.1328,-6.0039,-5.9219,-5.6676,-5.4564,-5.2843,0.0,0.0,0.0,0.0,0.0,0.0,0.0,0.0,0.0,0.0,0.0,0.0,0.0,0.0,0.0,0.0,0.0,0.0,0.0,0.0,0.0,-6.844,-6.9713,-6.9151,-7.0408,-7.2072,-7.3791,-7.4429,-7.5053,-7.5916,-7.66,-7.7344,-7.8187,-7.8588,-7.8986,-7.9433,-7.925,-7.8956,-7.8589,-7.8369,-7.7855,-7.7011,-7.6387,-7.5873,-7.5432,-7.4845,-7.4147,-7.3377,-7.3377,-7.3219,-7.3037,-7.3335,-7.3811,-7.4406,-7.498,-7.5274,-7.52,-7.429,-7.3226,-7.2168,-7.1937,-7.1437,-7.0898,-7.0898,-7.0744,-7.0475,-6.9898,-6.9552,-6.9206,-6.859,-6.8296,-6.8203,-6.832,-6.8258,-6.823,-6.8356,-6.8448,-6.8533,-6.8577,-6.8593,-6.8578,-6.8606,-6.8166,-6.775,-6.7815,-6.7097,-6.6505,-6.6522,-6.6315,-6.6286,-6.6521,-6.6523,-6.664,-6.6875,-6.6914,-6.6914,-6.6914,-6.6914,-6.6914,-6.6914,-6.6094,-6.5312,-6.4687,-6.3594,-6.2734,-6.207,-6.0976,-6.0039,-5.9219,-5.7851,-5.6952,0.0,0.0,0.0,0.0,0.0,0.0,0.0,0.0,0.0,0.0,0.0,0.0,0.0,0.0,0.0,0.0,0.0,0.0,0.0,0.0,0.0,0.0,-7.118,-7.2589,-7.3498,-7.381,-7.4441,-7.579,-7.6545,-7.7217,-7.7937,-7.8627,-7.9324,-8.0026,-8.0363,-8.0561,-8.0791,-8.0498,-7.991,-7.914,-7.8772,-7.8185,-7.7341,-7.6864,-7.6423,-7.6093,-7.5616,-7.4992,-7.4184,-7.4184,-7.3955,-7.3499,-7.384,-7.4099,-7.445,-7.498,-7.5424,-7.5616,0.0,0.0,0.0,0.0,-7.1629,-7.0898,-7.0898,-7.0898,-7.0821,-7.036,-7.0206,-7.0129,-6.959,-6.9258,-6.9065,-6.9123,-6.8988,-6.8781,-6.8929,-6.8987,-6.907,-6.9133,-6.9163,-6.9195,-6.9233,-6.8892,-6.8596,-6.8652,-6.8267,0.0,-6.7966,-6.7375,-6.6914,-6.6914,-6.6914,-6.6914,-6.6914,-6.6914,-6.6914,-6.6914,-6.6914,-6.6914,-6.6914,-6.6094,0.0,0.0,0.0,-6.2617,-6.1758,-6.0859,0.0,0.0,0.0,0.0,0.0,0.0,0.0,0.0,-5.5134,-5.5343,0.0,0.0,0.0,0.0,0.0,0.0,0.0,0.0,0.0,0.0,0.0,0.0,0.0,0.0,0.0,0.0,-7.4225,-7.5693,-7.8207,-7.7362,-7.6807,-7.7661,-7.8458,-7.9365,-8.0139,-8.0548,-8.1055,-8.1579,-8.1818,-8.2055,-8.2186,0.0,0.0,0.0,0.0,-7.8332,-7.7488,-7.7378,-7.6937,-7.624,-7.624,-7.5799,-7.5065,-7.5065,-7.4801,-7.4349,-7.4566,-7.4574,-7.4563,-7.4941,-7.5351,-7.5648,-7.4956,-7.4707,-7.4514,-7.2937,-7.186,-7.1168,-7.1091,0.0,0.0,-7.0937,-7.0898,-7.0898,-7.0898,-7.0452,-6.9926,-6.9924,-6.9479,-6.8988,-6.9051,-6.9052,-6.911,-6.9239,-6.9273,-6.9321,-6.9421,-6.9382,-6.935,-6.9428,-6.9412,-6.9393,-6.9393,-6.8148,-6.7187,-6.7187,-6.7187,-6.7148,-6.703,-6.7031,-6.6992,-6.6914,-6.6914,0.0,-6.6914,-6.6093,-6.5273,-6.4492,-6.3633,-6.2812,-6.2031,-6.125,-6.0859,-6.0859,-6.0156,-5.9765,-5.9765,-6.0508,-6.0859,-6.0781,-5.906,-5.8315,0.0,0.0,0.0,0.0,0.0,0.0,0.0,0.0,0.0,0.0,0.0,0.0,0.0,0.0,0.0,-7.6944,-7.8709,-8.0153,-8.131,-8.1778,-8.1443,-7.9992,-8.0143,-8.0438,-8.0768,-8.1232,-8.151,-8.1818,-8.2055,-8.2186,-8.2186,-8.2039,-8.1599,-8.0791,-7.9984,-7.9176,-7.8369,-7.7671,-7.7231,-7.7084,0.0,0.0,-7.5873,-7.5873,-7.561,-7.5124,-7.4821,-7.4971,-7.5431,-7.5323,-7.5527,-7.587,-7.5024,-7.4707,-7.4591,-7.363,-7.3129,-7.2899,-7.2206,-7.1937,-7.1822,-7.1129,-7.0898,-7.0898,-7.0898,-7.0783,0.0,-7.0735,-7.0645,-7.058,-7.0699,-7.0744,-7.0767,-7.0831,-7.0854,-7.0913,-7.1021,-7.0503,-7.007,-7.0208,-6.9694,-6.9255,-6.9317,-6.9085,-6.8917,-6.8917,-6.8917,-6.8644,-6.7941,-6.7877,-6.7609,-6.6906,-6.6867,-6.6906,-6.6906,-6.6086,-6.5543,-6.5351,-6.4531,-6.3984,-6.3789,-6.3633,-6.3555,-6.3555,-6.3398,-6.332,-6.332,-6.3476,-6.3555,-6.3515,-6.1758,-6.1328,0.0,0.0,0.0,0.0,0.0,0.0,0.0,0.0,0.0,0.0,0.0,-7.382,-7.561,0.0,-7.7788,-8.0353,-8.1878,-8.3041,-8.3913,-8.4421,-8.4026,-8.2287,-8.178,-8.1742,-8.206,-8.1902,-8.1818,-8.2018,-8.2121,-8.2186,-8.2186,-8.2186,-8.1819,-8.1048,-8.0608,-7.98,-7.8589,-7.8185,-7.7745,-7.7304,-7.7304,-7.7121,-7.6717,-7.6717,-7.6457,-7.5937,-7.549,-7.5458,-7.5695,-7.5588,-7.5731,-7.5976,-7.5515,-7.5091,-7.4668,-7.4245,-7.386,-7.3437,-7.3014,-7.286,-7.2706,-7.1822,-7.1552,-7.1475,-7.1014,-7.0898,-7.0898,-7.0952,-7.0952,-7.0979,-7.103,-7.1056,-7.1081,-7.113,-7.1139,-7.1186,-7.1317,-7.1029,-7.0795,-7.086,-7.058,-7.0308,-7.0338,-7.0367,-7.0146,-6.946,-6.9353,-6.9197,-6.8768,-6.8717,-6.8515,-6.8117,-6.8083,-6.7927,-6.7537,-6.6288,-6.5555,-6.5537,-6.4717,-6.4289,-6.4294,-6.4294,-6.4295,-6.4297,-6.4297,-6.4297,-6.4297,-6.4726,-6.4961,-6.4922,-6.4492,-6.4062,0.0,0.0,0.0,0.0,0.0,0.0,0.0,0.0,-7.5073,-7.5901,-7.6735,-7.7855,-7.9646,-8.0047,-8.0953,-8.349,-8.4552,-8.5427,-8.6371,-8.6481,-8.605,-8.4824,-8.366,-8.2964,-8.3129,-8.2575,-8.2201,-8.2186,-8.2186,-8.2186,-8.2186,-8.2186,-8.1893,-8.1269,-8.1085,-8.0388,-7.9066,-7.8772,-7.8259,-7.7561,-7.7414,-7.7304,-7.7304,-7.7304,-7.7156,-7.6786,-7.6266,-7.5866,-7.5603,-7.5618,-7.5794,-7.5985,-7.6015,-7.5553,-7.4938,-7.4938,-7.4553,-7.3976,-7.3783,-7.3745,-7.3591,-7.2745,-7.2322,-7.2052,-7.136,-7.1014,-7.0898,-7.0898,-7.0898,-7.0898,-7.0898,-7.0898,-7.0925,-7.0979,-7.0979,-7.103,-7.1154,-7.1201,-7.1269,-7.1296,-7.1299,-7.1378,-7.1378,-7.1378,-7.1009,-6.9881,-6.9716,-6.9639,-6.9468,-6.9459,-6.9396,-6.9226,-6.9245,-6.9021,-6.8358,-6.704,-6.6159,-6.5998,-6.5328,-6.4905,-6.477,-6.4778,-6.4753,-6.4762,-6.4763,-6.4803,-6.4803,-6.5506,-6.5819,-6.5858,-6.6561,-6.6132,-7.5395,-7.4932,-7.4492,-7.5238,-7.5471,-7.5885,0.0,0.0,-7.9141,-8.0294,-8.1103,-8.2049,-8.3124,-8.3807,-8.4809,-8.6538,-8.7358,-8.8059,-8.8904,-8.9014,-8.872,-8.7806,-8.5752,-8.4101,-8.3404,-8.3258,-8.2994,-8.226,-8.2186,-8.2186,-8.2186,-8.2186,-8.215,-8.2076,-8.1379,-8.0901,-8.0718,-7.9323,-7.8552,-7.8442,-7.7671,-7.7304,-7.7304,-7.7304,-7.745,-7.7657,-7.6942,-7.6035,-7.5171,-7.5462,-7.5699,-7.5925,-7.5985,-7.5938,-7.5861,-7.5861,-7.5784,-7.563,-7.4822,-7.4591,-7.4437,-7.363,-7.2822,-7.2168,-7.2091,-7.1514,-7.0898,-7.0898,-7.0898,-7.0898,-7.0898,-7.0898,-7.0898,-7.0898,-7.0898,-7.0925,-7.1005,-7.103,-7.1081,-7.1201,-7.1224,-7.1247,-7.1313,-7.1313,-7.1278,-7.1203,-7.1164,-7.0893,-7.0117,-7.0072,-6.9788,-6.9026,-6.9045,-6.9085,-6.9007,-6.8872,-6.8476,-6.7667,-6.7587,-6.7241,-6.6474,-6.6447,-6.6447,-6.6414,-6.6478,-6.6531,-6.6531,-6.6609,-6.6687,-6.6687,-6.6766,-6.6745,-7.6387,-7.6203,-7.6497,0.0,-7.8196,-7.9333,-8.1139,-8.2159,-8.306,-8.4213,-8.5152,-8.6128,-8.7007,-8.7328,-8.7767,0.0,-8.9399,-8.9853,-9.022,-8.9782,-8.9307,-8.894,-8.7178,-8.549,-8.4242,-8.3691,-8.3067,-8.226,-8.2186,-8.2186,-8.2186,-8.2186,-8.2186,-8.2186,-8.1856,-8.1489,-8.1012,-8.0351,-7.9543,-7.8589,-7.8222,-7.7818,-7.7304,-7.7304,-7.7289,-7.7293,-7.6705,-7.6173,-7.5741,-7.5544,-7.5666,-7.5895,-7.5985,-7.6015,-7.6015,-7.6015,-7.6015,-7.5938,-7.5592,-7.5476,-7.5322,-7.4476,-7.3937,-7.3553,-7.3091,-7.2706,-7.2399,-7.2399,-7.2399,-7.2399,-7.2399,-7.2399,-7.2399,-7.2399,-7.2399,-7.2399,-7.2426,-7.2426,-7.2454,-7.2507,-7.2534,-7.2534,-7.2559,-7.2559,-7.2585,-7.2597,-7.1888,-7.1201,-7.0852,-7.0815,-7.07,-7.0331,-6.9938,-6.97,-6.97,-6.9228,-6.8831,-6.8428,-6.8451,-6.8101,-6.7291,-6.7269,-6.7069,-6.6663,-6.6681,-6.6681,-6.6732,-6.6732,-6.6732,-6.6732,-6.6732,-6.6759,-7.7268,-7.7378,-7.8295,-7.9617,-8.0975,-8.2545,-8.4645,-8.5835,-8.6831,-8.7823,-8.8787,-8.9556,-8.999,-9.0031,-9.018,-9.062,-9.1105,-9.1385,-9.1385,-9.0475,-8.9745,-8.9525,-8.7986,-8.6371,-8.4756,-8.4058,-8.3324,-8.226,-8.2186,-8.2186,-8.2186,-8.2186,-8.2186,-8.2186,-8.2186,-8.1929,-8.1342,-8.1122,-8.0424,-7.925,-7.8809,-7.8259,-7.7671,-7.7476,-7.7223,-7.6958,-7.6766,-7.6601,-7.6417,-7.5968,-7.5906,-7.6171,-7.6062,-7.6015,-7.6015,-7.6015,-7.6015,-7.6015,-7.6015,-7.6015,-7.5899,-7.5245,-7.4899,-7.4591,-7.4014,-7.3668,-7.3514,-7.3514,-7.3514,-7.3514,-7.3514,-7.3514,-7.3514,-7.3514,-7.3514,-7.3514,-7.3514,-7.3514,-7.3514,-7.3514,-7.3514,-7.3514,-7.3514,-7.3514,-7.3514,-7.3514,-7.2598,-7.1819,-7.1588,-7.1356,-7.1208,-7.1253,-7.0715,-7.0388,-7.0388,-6.9827,-6.9362,-6.913,-6.9111,-6.88,-6.8019,-6.7997,-6.7752,-6.723,-6.7204,-6.723,-6.7291,-6.7291,-6.7291,-6.7291,-6.7291,-6.7306,-7.8552,-7.9103,-8.0277,-8.2663,-8.3875,-8.519,-8.8022,-8.9329,-9.0212,-9.0969,-9.1762,-9.2196,-9.1525,-9.1777,-9.2094,-9.1944,-9.2328,-9.2647,-9.2647,-9.1602,-9.0582,-8.9772,-8.8125,-8.6371,-8.4756,-8.4572,-8.3911,-8.2296,-8.2186,-8.2186,-8.2186,-8.2186,-8.2186,-8.2186,-8.2186,-8.2186,-8.215,-8.1379,-8.0975,-8.0901,-7.936,-7.8589,-7.8516,-7.8012,-7.7435,-7.6829,-7.7503,-7.7504,-7.7041,-7.677,-7.679,-7.6881,-7.6263,-7.6015,-7.6015,-7.6015,-7.6015,-7.6015,-7.6015,-7.6015,-7.6015,-7.5976,-7.5399,-7.4707,-7.4668,-7.413,-7.3514,-7.3514,-7.3514,-7.3514,-7.3514,-7.3514,-7.3514,-7.3514,-7.3514,-7.3514,-7.3514,-7.3514,-7.3514,-7.3514,-7.3514,-7.3514,-7.3514,-7.3514,-7.3514,-7.3514,-7.3476,-7.3129,-7.2272,-7.1479,-7.103,-7.1106,-7.1067,-7.1067,-7.1067,-7.1101,-7.0776,-6.9926,-6.9933,-6.9589,-6.87,-6.8741,-6.8781,-6.8743,-6.8704,-6.8741,-6.8741,-6.8741,-6.8741,-6.8741,-6.8741,-6.8816,-7.925,0.0,-8.2627,-8.4535,-8.6407,-8.8349,-9.0541,-9.185,-9.2781,-9.3237,-9.3387,-9.3214,-9.2446,-9.2013,-9.1837,-9.2278,-9.2141,-9.2253,-9.2773,-9.1296,-8.9993,-8.9698,-8.7647,-8.5783,-8.4719,-8.4132,0.0,-8.226,-8.2186,-8.2186,-8.2186,-8.2186,-8.2186,-8.2186,-8.2186,-8.2186,-8.2186,-8.1929,-8.1525,-8.0975,-7.936,-7.8589,-7.8552,-7.7989,-7.7673,-7.757,-7.7662,-7.7758,-7.7874,-7.7646,-7.7632,-7.7834,-7.7109,-7.6861,-7.6784,-7.6207,-7.6015,-7.6015,-7.6015,-7.6015,-7.6015,-7.6015,-7.5784,-7.5553,-7.5553,-7.5361,-7.5168,-7.5168,-7.5168,-7.5168,-7.5168,-7.5168,-7.5168,-7.5168,-7.5168,-7.5168,-7.5168,-7.5168,-7.5168,-7.5168,-7.5168,-7.5168,-7.5168,-7.5168,-7.4976,-7.4399,-7.386,-7.3399,-7.3091,-7.2311,-7.1799,-7.1826,-7.1325,-7.0979,-7.0979,-7.1005,-7.0889,-7.0581,-7.0607,-7.0246,-6.9447,-6.9471,-6.9208,-6.8696,-6.8678,-6.87,-6.8741,-6.8741,-6.8741,-6.8741,-6.8741,-6.8761,-8.0287,-8.2406,-8.4719,-8.6628,-8.8683,-9.0774,-9.2498,-9.3558,-9.4128,-9.3871,-9.3737,-9.3223,-9.1799,-9.1446,-9.1484,-9.1829,-9.1858,-9.205,-9.2868,-9.1431,-9.0168,-8.9873,-8.7647,-8.5894,-8.5123,-8.4315,0.0,-8.226,-8.248,-8.2517,-8.2223,-8.248,-8.248,-8.2186,-8.2186,-8.2186,-8.2186,-8.2186,-8.1782,-8.0975,-7.9653,-7.8883,-7.8552,-7.8012,-7.7842,-7.8053,-7.8241,-7.8548,-7.8874,-7.8561,-7.8616,-7.8749,-7.7993,-7.7707,-7.7669,-7.7092,-7.6707,-7.6399,-7.6092,-7.6015,-7.6015,-7.6015,-7.6015,-7.6015,-7.6015,-7.6015,-7.6015,-7.6015,-7.6015,-7.6015,-7.6015,-7.6015,-7.6015,-7.6015,-7.6015,-7.6015,-7.6015,-7.6015,-7.6015,-7.6015,-7.6015,-7.6015,-7.6015,-7.6015,-7.5822,-7.5245,-7.4707,-7.4168,-7.3591,-7.3014,-7.2668,-7.2668,-7.186,-7.136,-7.136,-7.1091,-7.0898,-7.0898,-7.0898,-7.0695,-7.0182,-7.0182,-6.9964,-6.9423,-6.9423,-6.9447,-6.9494,-6.9494,-6.9494,-6.9494,-6.9494,-6.9494,-8.1864,-8.4095,-8.6481,-8.894,-9.0702,-9.2354,-9.4081,-9.463,-9.4327,-9.3115,-9.2933,-9.2242,0.0,0.0,-9.0751,-9.074,-9.1422,-9.2279,-9.3136,-9.2084,-9.0969,0.0,0.0,0.0,0.0,0.0,0.0,-8.2443,0.0,-8.3141,-8.237,-8.303,-8.3067,-8.2296,-8.2223,-8.2186,-8.2186,-8.2251,-8.1884,-8.1112,-8.0304,-7.9496,-7.8688,-7.8285,-7.8127,-7.8312,-7.9198,-7.9702,-7.9882,-7.9698,-7.967,-7.9659,-7.8869,-7.8554,-7.8554,-7.8515,-7.8015,-7.7246,-7.6399,-7.6092,-7.6015,-7.6015,-7.6015,-7.6015,-7.6015,-7.6015,-7.6015,-7.6015,-7.6015,-7.6015,-7.6015,-7.6015,-7.6015,-7.6015,-7.6015,-7.6015,-7.6015,-7.6015,-7.6015,-7.6053,-7.6092,-7.613,-7.613,-7.6092,-7.6053,-7.6053,-7.6015,-7.5438,-7.3822,-7.3591,-7.3553,-7.3553,-7.2783,-7.2283,-7.2283,-7.1475,-7.0975,-7.0975,-7.0937,-7.0898,-7.0898,-7.0898,-7.0898,-7.0898,-7.0898,-7.0898,-7.0898,-7.0898,-7.0898,-7.0898,-7.0898,-7.0925,-8.4211,-8.6187,-8.8169,-9.0592,-9.1987,-9.3051,-9.4117,-9.4007,-9.3487,-9.2524,-9.1098,-8.9665,-8.8504,0.0,0.0,-8.9485,-9.0694,0.0,-9.3523,-9.2663,0.0,-9.1573,0.0,-8.6921,-8.6701,-8.5416,0.0,0.0,-8.4168,-8.4205,-8.3985,-8.3618,-8.3324,-8.3104,-8.2517,-8.2251,-8.2343,-8.2597,-8.261,-8.2388,-8.1696,-8.0941,-8.0126,-7.9614,-7.9231,-7.8854,-7.9487,-7.9958,-8.0238,-8.0455,-8.0548,-8.0504,-7.9729,-7.9383,-7.9307,-7.8628,-7.8212,-7.802,-7.7854,-7.6993,-7.6015,-7.6015,-7.6015,-7.6015,-7.6015,-7.6015,-7.6015,-7.6015,-7.6015,-7.6015,-7.6015,-7.6015,-7.6015,-7.6015,-7.6015,-7.6015,-7.6015,-7.6015,-7.6207,-7.6823,-7.7438,-7.7861,-7.7861,-7.7361,-7.6976,-7.6976,-7.6399,-7.5861,-7.5438,-7.4822,-7.4399,-7.4399,-7.3668,-7.3168,-7.3168,-7.236,-7.186,-7.186,-7.1245,-7.0898,-7.0898,-7.0898,-7.0898,-7.0898,-7.0898,-7.0898,-7.0898,-7.0898,-7.0898,-7.0898,-7.0898,-7.0898,-8.5788,-8.7766,-8.9674,-9.14,-9.2464,-9.3235,-9.3675,-9.2905,-9.1801,-9.0625,-8.892,-8.7247,-8.6066,-8.6195,-8.6952,0.0,0.0,0.0,-9.3546,-9.3152,-9.2496,0.0,-9.0037,0.0,-8.8096,-8.7252,-8.6554,0.0,-8.5527,-8.4976,-8.4609,-8.4602,-8.4264,-8.3529,-8.3181,-8.2966,-8.2806,-8.2987,-8.3106,-8.3127,-8.2424,-8.1848,-8.1401,-8.0923,-8.0355,-7.9725,-8.0401,-8.0542,-8.0392,-8.0685,-8.0754,-8.0716,-8.0221,-8.0068,-7.9957,-7.9462,-7.9079,-7.8769,-7.887,-7.8084,-7.6993,-7.6707,-7.6322,-7.6015,-7.6015,-7.6015,-7.6015,-7.6015,-7.6015,-7.6015,-7.6015,-7.6015,-7.6015,-7.6015,-7.6015,-7.6015,-7.6015,-7.6284,-7.6823,-7.7669,-7.8169,-7.8477,-7.8477,-7.813,-7.7823,-7.7823,-7.7092,-7.6553,-7.6553,-7.5822,-7.5284,-7.5284,-7.4514,-7.4053,-7.4053,-7.3245,-7.2591,-7.2206,-7.1745,-7.1283,-7.0937,-7.0898,-7.0898,-7.0898,-7.0898,-7.0898,-7.0898,-7.1283,-7.1475,-7.1475,-7.186,-7.2052,-8.6966,-8.894,-9.0849,-9.1803,-9.2427,-9.2758,-9.2758,-9.14,-8.9674,-8.8059,-8.6518,-8.5013,-8.3544,-8.4706,-8.6133,-8.701,0.0,-9.1639,-9.3189,-9.3342,-9.2977,-9.2278,-9.1252,-9.0335,-8.9638,-8.9491,-8.9124,-8.8426,-8.6958,-8.5747,-8.4976,-8.5692,-8.5316,-8.3751,-8.4028,-8.3982,-8.3358,-8.3471,-8.3545,-8.3618,-8.296,-8.2639,-8.2526,-8.2134,-8.1585,-8.0969,-8.1451,-8.1309,-8.0696,-8.0616,-8.0614,-8.0614,-8.0505,-8.0506,-8.0468,-8.0468,-8.0084,-7.9545,-7.9612,-7.9177,-7.843,-7.7716,-7.6861,-7.6169,-7.6169,-7.6092,-7.6015,-7.6015,-7.6015,-7.6015,-7.613,-7.6169,-7.6207,-7.6322,-7.6322,-7.6322,-7.6322,-7.7015,-7.7823,-7.8554,-7.8746,-7.8861,-7.8861,-7.8746,-7.8669,-7.8669,-7.7977,-7.74,-7.7323,-7.6553,-7.6015,-7.6015,-7.5322,-7.4861,-7.4861,-7.413,-7.336,-7.2591,-7.2437,-7.2014,-7.1283,-7.1245,-7.1245,-7.1245,-7.1245,-7.1245,-7.1245,-7.2014,-7.236,-7.2399,-7.3168,-7.3514,-8.8468,-8.9784,-9.0959,-9.2501,-9.195,-9.1033,-9.1033,-8.9271,0.0,-8.5563,-8.4462,-8.3544,-8.259,-8.3728,-8.5153,-8.5925,0.0,0.0,-9.195,-9.2721,-9.3125,0.0,-9.1546,-9.0555,-9.0408,-8.9821,0.0,0.0,0.0,-8.7435,-8.6628,-8.625,-8.5512,-8.4248,-8.4588,-8.4516,-8.3817,-8.4242,-8.4438,-8.4486,-8.4605,-8.4278,-8.3633,-8.3616,-8.3247,-8.2567,-8.2072,0.0,-8.1754,-8.0956,-8.0614,-8.0578,-8.043,-8.0354,-8.0315,-8.0275,-8.0238,-8.024,-8.0387,-7.9918,-7.9177,-7.8492,-7.7746,-7.7053,-7.7053,-7.6553,-7.6015,-7.6015,-7.6015,-7.6169,-7.6899,-7.7053,-7.7246,-7.79,-7.8054,-7.8054,-7.8054,-7.8746,-7.94,-7.9554,-8.0169,-8.0631,-8.0631,-8.0054,-7.9592,-7.9592,-7.8823,-7.8054,-7.74,-7.6553,-7.6015,-7.6015,-7.5861,-7.5784,-7.5784,-7.4976,-7.4437,-7.4284,-7.363,-7.3206,-7.3053,-7.3053,-7.3053,-7.3053,-7.3053,-7.3053,-7.3053,-7.3206,-7.3283,-7.3283,-7.3437,-7.3514,-8.8468,-8.9786,-9.0883,-9.1249,-9.0886,-9.0117,-8.8871,0.0,0.0,-8.3691,-8.237,-8.1525,-8.1562,0.0,0.0,0.0,0.0,0.0,0.0,0.0,0.0,-9.3051,-9.1987,-9.1216,0.0,0.0,0.0,0.0,0.0,-8.8463,-8.7655,-8.6819,-8.6078,-8.5432,-8.53,-8.5033,-8.4524,-8.4757,-8.4975,-8.5105,-8.527,-8.5082,-8.4739,-8.4822,-8.4442,-8.3678,-8.337,-8.2756,-8.1949,-8.127,-8.0774,-8.0354,-8.0157,-8.0116,-8.0157,-8.0075,-8.0235,-8.0468,-8.0578,-8.0451,-8.0202,-7.9946,-7.8977,-7.79,-7.79,-7.763,-7.7284,-7.7284,-7.7284,-7.74,-7.7823,-7.79,-7.8015,-7.84,-7.8477,-7.8631,-7.9092,-7.9515,-7.9939,-8.04,-8.0823,-8.1093,-8.1093,-8.0746,-8.0477,-8.0477,-7.9746,-7.9054,-7.8669,-7.7823,-7.6976,-7.6092,-7.6015,-7.6015,-7.6015,-7.563,-7.5168,-7.4745,-7.4361,-7.3937,-7.3514,-7.3514,-7.3514,-7.3514,-7.3514,-7.3514,-7.3514,-7.3937,-7.413,-7.413,-7.4591,-7.4822,-8.7847,-8.9205,-9.0305,-8.9688,-8.956,-8.8983,-8.6792,-8.5138,-8.3551,-8.1937,-8.0681,-7.991,-8.0388,0.0,-8.259,0.0,-8.6114,-8.8206,0.0,0.0,0.0,0.0,-9.2097,0.0,-9.1803,0.0,0.0,0.0,0.0,0.0,-8.8125,-8.7276,-8.6832,-8.6629,-8.611,-8.5636,-8.5323,-8.5219,-8.527,-8.5511,-8.5551,-8.5551,-8.5628,-8.5743,-8.5397,-8.4746,-8.4554,-8.3635,-8.2181,-8.1728,-8.1039,-8.0275,-8.0072,-8.0072,-8.0116,-8.0116,-8.0276,-8.0505,-8.0614,-8.0754,-8.0888,-8.1061,-8.0054,-7.8784,-7.8784,-7.8631,-7.8477,-7.8477,-7.8477,-7.8515,-7.8707,-7.8784,-7.8823,-7.9015,-7.9054,-7.9246,-7.9939,-8.0092,-8.0285,-8.0977,-8.1093,-8.1093,-8.1093,-8.1093,-8.1093,-8.1093,-8.0516,-8.0015,-7.9823,-7.9208,-7.8207,-7.6707,-7.6361,-7.6207,-7.6015,-7.6015,-7.5707,-7.5014,-7.4976,-7.4707,-7.4053,-7.4053,-7.4053,-7.4053,-7.4053,-7.4053,-7.4053,-7.4668,-7.4976,-7.5014,-7.5668,-7.6015,-8.7088,-8.8212,-8.8942,-8.8995,-8.8185,-8.6931,-8.5373,0.0,-8.1666,-8.0121,-7.9746,-7.958,-7.8919,-8.0681,-8.226,-8.2406,0.0,-8.6334,0.0,0.0,0.0,0.0,0.0,0.0,0.0,0.0,0.0,0.0,0.0,0.0,-8.7616,-8.7628,-8.7626,-8.7417,-8.6975,-8.6505,-8.6,-8.5524,-8.5352,-8.5511,-8.5628,-8.578,-8.5961,-8.5961,-8.5954,-8.5906,-8.5036,-8.4157,-8.3274,-8.2294,-8.1343,-8.0578,-8.0506,-8.0468,-8.0468,-8.0468,-8.0505,-8.0614,-8.0758,-8.086,-8.0888,-8.1061,-8.0477,-7.9669,-7.9669,-7.9131,-7.8477,-7.8477,-7.8477,-7.8669,-7.9477,-7.9669,-7.99,-8.0669,-8.0862,-8.0862,-8.0977,-8.0977,-8.1016,-8.1093,-8.1093,-8.1093,-8.1093,-8.1093,-8.1093,-8.1093,-8.1016,-8.0708,-7.99,-7.9746,-7.9323,-7.8361,-7.763,-7.6861,-7.6053,-7.6015,-7.5976,-7.5899,-7.5861,-7.5861,-7.5784,-7.5784,-7.5784,-7.5784,-7.5784,-7.5784,-7.5784,-7.5822,-7.5861,-7.5861,-7.5976,-7.6015,-8.4617,-8.5993,-8.6857,-8.703,-8.6358,-8.5231,-8.3479,-8.1993,-8.0582,-7.9105,-7.85,-7.8369,-7.8552,-7.9396,-8.0351,-8.1305,-8.27,-8.4058,-8.538,0.0,0.0,0.0,0.0,0.0,0.0,0.0,0.0,0.0,0.0,0.0,-8.7409,-8.7534,-8.7513,-8.7358,-8.6779,-8.6327,-8.6038,-8.5303,-8.5062,-8.5232,-8.5393,-8.5473,-8.559,-8.5667,-8.5704,-8.5704,-8.5246,-8.4634,-8.3905,-8.2798,-8.1958,-8.1193,-8.0621,-8.0468,-8.0542,-8.0542,-8.065,-8.0788,-8.0822,-8.0926,-8.1061,-8.1093,-8.0862,-8.0592,-8.0592,-8.0323,-8.0054,-8.0054,-8.0054,-8.0131,-8.0477,-8.0523,-8.0651,-8.1431,-8.1623,-8.1776,-8.2342,-8.2457,-8.2336,-8.19,-8.1823,-8.167,-8.117,-8.1093,-8.1093,-8.1093,-8.1093,-8.0977,-8.0631,-8.0592,-8.0246,-7.9361,-7.8092,-7.7169,-7.6823,-7.6284,-7.6015,-7.6015,-7.6015,-7.6015,-7.6015,-7.6015,-7.6015,-7.6015,-7.6015,-7.6015,-7.6015,-7.6015,-7.6015,-7.6015,-7.6015,-7.6015,-8.2419,-8.3729,-8.4481,-8.4788,-8.4349,-8.3504,-8.165,-8.0478,-7.9444,-7.8362,-7.7641,-7.7463,-7.8112,-7.8442,-7.9066,-8.0424,-8.124,-8.2341,-8.3955,-8.528,0.0,0.0,0.0,0.0,0.0,0.0,0.0,0.0,0.0,0.0,-8.7311,-8.7335,-8.7258,-8.7026,-8.6383,-8.5862,-8.5613,-8.4794,-8.4486,-8.4757,-8.4848,-8.4937,-8.5148,-8.519,-8.5311,-8.5393,-8.5273,-8.4816,-8.4093,-8.3361,-8.2678,-8.1957,-8.1347,-8.1231,-8.1341,-8.1413,-8.1517,-8.1656,-8.1689,-8.1792,-8.1823,-8.1823,-8.1823,-8.1785,-8.1516,-8.1285,-8.1093,-8.1061,-8.1183,-8.131,-8.131,-8.1397,-8.1566,-8.2107,-8.226,-8.2449,-8.306,-8.3246,-8.3163,-8.2655,-8.2413,-8.2099,-8.1523,-8.1215,-8.1093,-8.1093,-8.1093,-8.1093,-8.1093,-8.1093,-8.0862,-8.0246,-7.89,-7.7938,-7.7669,-7.6861,-7.6361,-7.6361,-7.613,-7.6015,-7.6015,-7.6015,-7.6015,-7.6015,-7.6015,-7.6015,-7.6015,-7.6245,-7.6361,-7.6399,-7.663,-7.6746,-8.0948,-8.1871,-8.1965,-8.243,-8.2222,-8.152,-7.9853,-7.8881,-7.8167,-7.7783,-7.7348,-7.7155,-7.7279,-7.8038,-7.8883,-7.9653,-8.0332,-8.13,-8.291,-8.3724,0.0,0.0,0.0,0.0,0.0,0.0,0.0,0.0,0.0,0.0,-8.7068,-8.6995,-8.69,-8.6608,-8.5905,-8.5232,-8.4626,-8.3882,-8.3655,-8.3922,-8.3922,-8.4193,-8.4711,-8.4711,-8.4848,-8.5105,-8.5105,-8.461,-8.3811,-8.3974,-8.3478,-8.2832,-8.299,-8.3065,-8.3102,-8.3316,-8.3384,-8.3384,-8.3522,-8.3555,-8.3555,-8.3555,-8.3555,-8.3401,-8.2554,-8.1747,-8.1061,-8.0959,-8.1368,-8.1877,-8.1877,-8.234,-8.2754,-8.2792,-8.2792,-8.2792,-8.2792,-8.299,-8.3102,-8.3102,-8.2595,-8.2194,-8.2194,-8.1568,-8.1093,-8.1093,-8.1093,-8.1093,-8.1093,-8.1093,-8.1093,-8.1093,-8.0285,-7.9438,-7.8554,-7.7746,-7.7284,-7.7284,-7.6476,-7.6015,-7.6015,-7.6015,-7.6015,-7.6015,-7.6015,-7.6015,-7.6015,-7.6861,-7.7284,-7.7323,-7.8092,-7.8477,-7.7611,-7.8586,-7.8982,-8.0519,-7.9935,-7.8763,-7.8341,-7.7566,-7.6805,-7.6439,-7.659,-7.6773,-7.6773,-7.7121,-7.7651,-7.8455,-7.9194,-8.0041,-8.1099,0.0,0.0,0.0,0.0,0.0,0.0,0.0,0.0,0.0,0.0,0.0,-8.7031,-8.6481,-8.6213,-8.6222,-8.5438,-8.478,-8.4272,-8.3514,-8.3186,-8.3358,-8.3471,-8.3545,-8.3763,-8.3832,-8.3937,-8.3989,-8.3989,-8.3941,-8.3828,-8.3311,-8.3209,-8.3215,-8.2694,-8.2634,-8.2912,-8.299,-8.3066,-8.314,-8.3249,-8.3285,-8.3285,-8.3423,-8.3423,-8.3351,-8.3149,-8.2496,-8.181,-8.153,-8.1537,-8.1728,-8.2019,-8.2276,-8.2488,-8.2922,-8.3028,-8.3225,-8.3936,-8.4138,-8.4115,-8.3788,-8.3639,-8.3217,-8.2179,-8.1935,-8.165,-8.1036,-8.1061,-8.1093,-8.1093,-8.1093,-8.1093,-8.1093,-8.0862,-8.0323,-7.9477,-7.8592,-7.813,-7.813,-7.7361,-7.6899,-7.6899,-7.6322,-7.6015,-7.6015,-7.6015,-7.6284,-7.6899,-7.7169,-7.7592,-7.813,-7.8361,-7.8477,-7.4728,-7.5906,-7.6503,-7.7896,-7.7446,-7.6607,-7.6419,-7.5759,-7.5245,-7.4941,-7.5076,-7.5277,-7.5737,-7.5937,-7.6432,-7.7625,-7.8462,-7.9299,-8.0099,0.0,0.0,0.0,0.0,0.0,0.0,0.0,0.0,0.0,0.0,0.0,-8.6453,-8.6009,-8.5594,-8.5073,-8.4522,-8.3991,-8.3398,-8.2917,-8.2721,-8.2806,-8.2927,-8.3047,-8.3165,-8.3244,-8.3301,-8.3358,-8.3358,-8.3434,0.0,-8.3131,-8.3119,-8.3389,-8.2971,-8.2973,-8.324,-8.3416,-8.3582,-8.3666,-8.379,-8.3907,-8.3945,-8.4096,-8.3905,-8.3637,-8.36,-8.3024,-8.2336,-8.2071,-8.2019,-8.2102,-8.2321,-8.2508,-8.2699,-8.3111,-8.3171,-8.3336,-8.4029,-8.4292,-8.4287,-8.4029,-8.3954,-8.3669,-8.272,-8.2492,-8.2256,-8.1789,-8.1781,-8.1887,-8.1952,-8.1683,-8.1523,-8.1554,-8.1285,-8.09,-8.0323,-7.9477,-7.8977,-7.8977,-7.8207,-7.7746,-7.7746,-7.7246,-7.6938,-7.6938,-7.6938,-7.7207,-7.7746,-7.8092,-7.8669,-7.9477,-7.9477,-7.9477,0.0,-7.368,-7.4484,-7.4704,-7.4946,-7.4864,-7.4187,-7.3682,0.0,-7.3354,-7.3011,-7.3047,-7.4113,-7.4536,-7.5245,-7.6968,-7.8017,-7.8886,0.0,0.0,0.0,0.0,0.0,0.0,0.0,0.0,0.0,0.0,0.0,0.0,-8.5544,-8.5536,-8.4939,-8.3471,-8.3361,-8.2957,-8.2186,-8.2186,-8.2251,-8.2407,-8.2407,-8.2534,-8.2843,-8.2843,-8.2927,-8.3047,-8.3047,-8.3047,-8.3047,-8.3186,-8.3244,-8.3301,-8.3655,-8.387,-8.3922,-8.439,-8.4618,-8.4627,-8.4937,-8.5105,-8.519,-8.5228,-8.478,-8.421,-8.4001,-8.3396,-8.2713,-8.2499,-8.2614,-8.2861,-8.2744,-8.3022,-8.3244,-8.3244,-8.3281,-8.3244,-8.3244,-8.3545,-8.3817,-8.387,-8.3677,-8.3528,-8.3626,-8.3198,-8.2871,-8.299,-8.3065,-8.3177,-8.3316,-8.2736,-8.2271,-8.2253,-8.16,-8.1138,-8.1061,-8.0331,-7.99,-7.99,-7.9054,-7.8592,-7.8592,-7.8515,-7.8477,-7.8477,-7.8554,-7.8592,-7.8592,-7.9477,-8.0323,-8.1093,-8.1093,-8.1093,-6.7996,0.0,-7.2316,-7.313,-7.2914,-7.2546,0.0,-7.1926,-7.1215,0.0,0.0,-7.1964,-7.2215,-7.3223,-7.4083,-7.4512,-7.6554,-7.7989,-7.8057,0.0,0.0,0.0,0.0,0.0,0.0,0.0,0.0,0.0,0.0,-8.5191,-8.5297,-8.4268,-8.3631,-8.3434,-8.281,-8.237,-8.2186,-8.2186,-8.2186,-8.2251,-8.2251,-8.2316,-8.238,-8.238,-8.238,-8.2407,-8.2407,-8.2471,-8.2597,-8.256,-8.2745,-8.2987,-8.3106,-8.3244,-8.3471,-8.36,-8.3709,-8.3832,-8.4092,-8.4193,-8.428,-8.4514,-8.4597,-8.4499,-8.4211,-8.3285,-8.2361,-8.2583,-8.2571,-8.2499,-8.2739,-8.2898,-8.2927,-8.2843,-8.2843,-8.2843,-8.2927,-8.3047,-8.3186,-8.3415,-8.3559,-8.3486,-8.3038,-8.3162,-8.3139,-8.2499,-8.2672,-8.2912,-8.2951,-8.2875,-8.2568,-8.1915,-8.1686,-8.1341,-8.069,-8.074,-8.0785,-8.0785,-7.9977,-7.9477,-7.9477,-7.8861,-7.8477,-7.8477,-7.9131,-7.9477,-7.9515,-8.0362,-8.09,-8.1093,-8.1093,-8.1093,-6.6102,-6.7996,-6.9925,-7.088,-7.0744,-7.0493,-7.0926,0.0,0.0,0.0,0.0,0.0,-7.0906,0.0,0.0,-7.4011,-7.5838,0.0,0.0,0.0,0.0,0.0,0.0,0.0,0.0,0.0,0.0,0.0,0.0,-8.435,-8.4392,-8.3545,-8.3014,-8.2847,-8.2443,-8.2186,-8.2186,-8.2186,-8.2186,-8.2186,-8.2186,-8.2186,-8.2186,-8.2186,-8.2186,-8.2186,-8.2186,-8.2251,-8.2316,-8.2316,-8.2407,-8.2597,-8.2659,-8.2745,-8.2927,-8.3047,-8.3127,-8.3244,-8.3434,-8.3545,-8.3655,-8.3907,-8.4078,-8.4092,-8.3854,-8.3269,-8.2683,-8.2906,-8.2743,-8.2607,-8.2634,-8.2597,-8.2534,-8.2508,-8.2444,-8.2508,-8.2534,-8.2659,-8.2684,-8.2867,-8.3127,-8.3209,-8.2929,-8.3179,-8.3301,-8.3047,-8.32,-8.3385,-8.3606,-8.3388,-8.3053,-8.2718,-8.1993,-8.1345,-8.0887,-8.0733,-8.0685,-8.0826,-8.04,-8.0169,-8.0169,-7.9806,-7.9638,-7.9669,-8.0169,-8.04,-8.04,-8.0862,-8.1093,-8.1093,-8.1093,-8.1093,-6.529,-6.644,-6.7658,-6.8808,-6.9113,-6.9166,-6.9304,0.0,0.0,0.0,0.0,0.0,0.0,0.0,0.0,0.0,0.0,0.0,0.0,0.0,0.0,0.0,0.0,0.0,0.0,0.0,0.0,0.0,0.0,-8.3307,-8.3043,-8.2863,-8.255,-8.2157,-8.2121,-8.2186,-8.2186,-8.2186,-8.2186,-8.2186,-8.2186,-8.2186,-8.2186,-8.2186,-8.2186,-8.2186,-8.2186,0.0,-8.2186,-8.2186,-8.2186,-8.2186,-8.2316,-8.2343,-8.2407,-8.2721,-8.2782,-8.2843,-8.2927,-8.3106,-8.3244,-8.3358,-8.3378,-8.3378,-8.3244,-8.3165,-8.3047,-8.3127,-8.2987,-8.2782,-8.2471,-8.2316,-8.2186,-8.2186,-8.2186,-8.2186,-8.2186,-8.2316,-8.2343,-8.2343,-8.2597,-8.2867,-8.2987,-8.3165,-8.3358,-8.3709,-8.3763,-8.3937,-8.4438,-8.3919,-8.352,-8.355,-8.2304,-8.1355,-8.1089,-8.0444,-8.011,-8.0199,-8.0392,-8.054,-8.054,-8.0754,-8.0926,-8.1061,-8.1061,-8.1093,-8.1093,-8.1093,-8.1093,-8.1093,-8.1093,-8.1093,-6.441,-6.4918,-6.5764,-6.8436,-6.9113,-6.9113,-6.9166,-6.8082,0.0,0.0,0.0,0.0,0.0,0.0,0.0,0.0,0.0,0.0,0.0,0.0,0.0,0.0,0.0,0.0,0.0,0.0,0.0,0.0,0.0,-8.1402,-8.1573,-8.1235,-8.1341,-8.1885,-8.1952,-8.2055,-8.2186,-8.2186,-8.2186,-8.2186,-8.2186,-8.2186,-8.2186,-8.2186,-8.2186,-8.2186,0.0,-8.2186,-8.2186,-8.2186,-8.2186,-8.2186,-8.2251,-8.2251,-8.2251,-8.2316,-8.2316,-8.2316,-8.2471,-8.2721,-8.2964,-8.2843,-8.2904,-8.2927,-8.2843,-8.2758,-8.2758,-8.2597,-8.2534,-8.2407,-8.2251,-8.2186,-8.2186,-8.2186,-8.2186,-8.2186,-8.2186,-8.2186,-8.2251,-8.2251,-8.2343,-8.2471,-8.2534,-8.2745,-8.2987,-8.3047,-8.3244,-8.3415,-8.349,-8.3488,-8.326,-8.2601,-8.2302,-8.1589,-8.0114,-7.9889,-7.9566,-7.8904,-7.9708,-8.0239,-8.0391,-8.0576,-8.0754,-8.0926,-8.0959,-8.0991,-8.1093,-8.1093,-8.1093,-8.1093,-8.1093,-8.1093,-6.4208,-6.4884,-6.573,-6.7895,-6.8166,-6.8098,-6.891,-6.8233,0.0,0.0,0.0,0.0,0.0,0.0,0.0,0.0,0.0,0.0,0.0,0.0,0.0,0.0,0.0,0.0,0.0,0.0,0.0,0.0,0.0,-8.0134,-8.0732,-8.0529,-8.0695,-8.1372,-8.151,-8.1751,-8.2055,-8.2055,-8.2121,-8.2186,-8.2186,-8.2186,-8.2186,-8.2186,-8.2186,-8.2186,0.0,-8.2186,-8.2186,-8.2186,-8.2186,-8.2186,-8.2186,-8.2186,-8.2186,-8.2186,-8.2186,-8.2186,-8.2251,-8.2343,-8.2471,-8.2444,-8.2508,-8.2471,-8.2444,-8.2444,-8.238,-8.2316,-8.2343,-8.2343,-8.2251,-8.2186,-8.2186,-8.2186,-8.2186,-8.2186,-8.2186,-8.2186,-8.2186,-8.2186,-8.2251,-8.2316,-8.2316,-8.2407,-8.2534,-8.2597,-8.2745,-8.2867,-8.3047,-8.3165,-8.3037,-8.2722,-8.2313,-8.1754,-8.101,-8.0079,-7.9386,-7.884,-7.9246,-7.9665,-8.0002,-8.0161,-8.0354,-8.0611,-8.0754,-8.0893,-8.0991,-8.1061,-8.1093,-8.1093,-8.1093,-8.1093,-6.4038,-6.4884,-6.5797,-6.7286,-6.7489,-6.7658,-6.8842,0.0,0.0,0.0,0.0,0.0,0.0,0.0,0.0,0.0,0.0,0.0,0.0,0.0,0.0,0.0,0.0,0.0,0.0,0.0,0.0,0.0,0.0,-7.899,-7.9633,-7.972,-7.9987,-8.0695,-8.0912,-8.1196,-8.1647,-8.1818,-8.1952,-8.2186,-8.2186,-8.2186,-8.2186,-8.2186,-8.2186,-8.2186,-8.2186,-8.2186,-8.2186,-8.2186,-8.2186,-8.2186,-8.2186,-8.2186,-8.2186,-8.2186,-8.2186,-8.2186,-8.2186,-8.2186,-8.2186,-8.2186,-8.2186,-8.2186,-8.2186,-8.2186,-8.2186,-8.2186,-8.2251,-8.2343,-8.2251,-8.2186,-8.2186,-8.2186,-8.2186,-8.2186,-8.2186,-8.2186,-8.2186,-8.2186,-8.2186,-8.2186,-8.2186,-8.2186,-8.2251,-8.2343,-8.2343,-8.2471,-8.2721,-8.2721,-8.2782,-8.2867,-8.2348,-8.1904,-8.1719,-8.0163,-7.9168,-7.8985,-7.8915,-7.9015,-7.9487,-7.9621,-7.9916,-8.0278,-8.0542,-8.0835,-8.1162,-8.1298,-8.1369,-8.1362,-8.1362,-8.1285,-6.3565,-6.414,-6.5019,-6.6508,-6.7929,0.0,-6.9079,-6.9586,0.0,0.0,0.0,0.0,0.0,0.0,0.0,0.0,0.0,0.0,0.0,0.0,0.0,0.0,0.0,0.0,0.0,0.0,0.0,0.0,-7.7562,-7.78,-7.7928,-7.8202,-7.8835,-7.987,-8.0099,-8.0474,-8.1055,-8.1441,-8.1818,-8.2186,-8.2186,-8.2186,-8.2186,-8.2186,-8.2186,-8.2186,-8.2186,-8.2186,-8.2186,-8.2186,-8.2186,-8.2186,-8.2186,-8.2186,-8.2186,-8.2186,-8.2186,-8.2186,-8.2186,-8.2186,-8.2186,-8.2186,-8.2186,-8.2186,-8.2186,-8.2186,-8.2186,-8.2186,-8.2186,-8.2186,-8.2186,-8.2186,-8.2186,-8.2186,-8.2186,-8.2186,-8.2186,-8.2186,-8.2186,-8.2186,-8.2186,-8.2186,-8.2186,-8.2186,-8.2186,-8.2186,-8.2186,-8.2251,-8.2251,-8.2251,-8.2251,-8.2251,-8.2215,-8.1884,-8.1112,-7.957,-7.8738,-7.8809,-7.8555,-7.8596,-7.8816,-7.9102,-7.9479,-7.9958,-8.0199,-8.0887,-8.1939,-8.2045,-8.2144,-8.2208,-8.2208,-8.1823,-6.3396,-6.37,-6.4275,-6.5764,0.0,0.0,0.0,0.0,0.0,0.0,0.0,0.0,0.0,0.0,0.0,0.0,0.0,0.0,0.0,0.0,0.0,0.0,0.0,0.0,0.0,0.0,0.0,-7.7244,-7.6897,-7.6861,-7.7154,-7.7386,-7.791,-7.8753,-7.9125,-7.9679,-8.0474,-8.084,-8.1302,-8.1818,-8.2055,-8.2186,-8.2186,-8.2186,-8.2186,-8.2186,-8.2186,-8.2186,-8.2186,-8.2186,-8.2186,-8.2186,-8.2186,-8.2186,-8.2186,-8.2186,-8.2186,-8.2186,-8.2186,-8.2186,-8.2186,-8.2186,-8.2186,-8.2186,-8.2186,-8.2186,-8.2186,-8.2186,-8.2186,-8.2186,-8.2186,-8.2186,-8.2186,-8.2186,-8.2186,-8.2186,-8.2186,-8.2186,-8.2186,-8.2186,-8.2186,-8.2186,-8.2186,-8.2186,-8.2186,-8.2186,-8.2186,-8.2186,-8.2186,-8.2186,-8.2186,-8.2186,-8.2186,-8.1856,-8.1085,-8.0461,-7.9874,-7.9485,-7.8463,-7.7977,-7.8312,-7.9066,-7.9691,-8.0132,-8.1035,-8.1794,-8.2493,-8.2679,-8.2821,-8.2957,-8.2957,-8.2874,-6.3091,-6.3497,-6.4106,0.0,0.0,0.0,0.0,0.0,0.0,0.0,0.0,0.0,0.0,0.0,0.0,0.0,0.0,0.0,0.0,0.0,0.0,0.0,0.0,0.0,0.0,0.0,0.0,-7.6775,-7.6299,-7.6182,-7.6553,-7.6702,-7.703,-7.7772,-7.8167,-7.88,-7.9601,-8.0139,-8.0695,-8.1302,-8.1818,-8.2055,-8.2186,-8.2186,-8.2186,-8.2186,-8.2186,-8.2186,-8.2186,-8.2186,-8.2186,-8.2186,-8.2186,-8.2186,-8.2186,-8.2186,-8.2186,-8.2186,-8.2186,-8.2186,-8.2186,-8.2186,-8.2186,-8.2186,-8.2186,-8.2186,-8.2186,-8.2186,-8.2186,-8.2186,-8.2186,-8.2186,-8.2186,-8.2186,-8.2186,-8.2186,-8.2186,-8.2186,-8.2186,-8.2186,-8.2186,-8.2186,-8.2186,-8.2186,-8.2186,-8.2186,-8.2186,-8.2186,-8.2186,-8.2186,-8.2186,-8.2186,-8.2186,-8.1966,-8.1415,-8.1158,-8.0755,-8.0204,-7.9007,-7.8417,-7.8618,-7.9426,-8.006,-8.0488,-8.143,-8.2271,-8.297,-8.3176,-8.3372,-8.3594,-8.363,-8.355,-6.2584,-6.3463,0.0,0.0,0.0,0.0,0.0,0.0,-7.3477,0.0,0.0,0.0,0.0,0.0,0.0,0.0,0.0,0.0,0.0,0.0,0.0,0.0,0.0,0.0,0.0,0.0,-7.6555,-7.5743,-7.5709,-7.5805,-7.6122,-7.6122,-7.6275,-7.6793,-7.7244,-7.7858,-7.8504,-7.94,-8.0099,-8.0695,-8.1302,-8.1818,-8.2186,-8.2186,-8.2186,-8.2186,-8.2186,-8.2186,-8.2186,-8.2186,-8.2186,-8.2186,-8.2186,-8.2186,-8.2186,-8.2186,-8.2186,-8.2186,-8.2186,-8.2186,-8.2186,-8.2186,-8.2186,-8.2186,-8.2186,-8.2186,-8.2186,-8.2186,-8.2186,-8.2186,-8.2186,-8.2186,-8.2186,-8.2186,-8.2186,-8.2186,-8.2186,-8.2186,-8.2186,-8.2186,-8.2186,-8.2186,-8.2186,-8.2186,-8.2186,-8.2186,-8.2186,-8.2186,-8.2186,-8.2186,-8.2186,-8.2186,-8.2186,-8.2186,-8.2186,-8.1489,-8.1012,-8.1012,-8.0241,-7.9863,-8.0014,-8.0137,-8.04,-8.0898,-8.1153,-8.1946,-8.3313,-8.3581,-8.3802,-8.4015,-8.4133,-8.3792,-6.2448,0.0,0.0,0.0,0.0,0.0,0.0,0.0,0.0,0.0,0.0,0.0,0.0,0.0,0.0,0.0,0.0,0.0,0.0,0.0,0.0,0.0,0.0,0.0,0.0,-7.6048,-7.5946,-7.5709,-7.5709,-7.5709,-7.5805,-7.5805,-7.5994,-7.6275,-7.6645,-7.7099,-7.7772,-7.8504,-7.9285,-8.0099,-8.0695,-8.1302,-8.1952,-8.2121,-8.2186,-8.2186,-8.2186,-8.2186,-8.2186,-8.2186,-8.2186,-8.2186,-8.2186,-8.2186,-8.2186,-8.2186,-8.2186,-8.2186,-8.2186,-8.2186,-8.2186,-8.2186,-8.2186,-8.2186,-8.2186,-8.2186,-8.2186,-8.2186,-8.2186,-8.2186,-8.2186,-8.2186,-8.2186,-8.2186,-8.2186,-8.2186,-8.2186,-8.2186,-8.2186,-8.2186,-8.2186,-8.2186,-8.2186,-8.2186,-8.2186,-8.2186,-8.2186,-8.2186,-8.2186,-8.2186,-8.2186,-8.2186,-8.2186,-8.2186,-8.2186,-8.1966,-8.1819,-8.1819,-8.1599,-8.0975,-7.99,-8.0566,-8.101,-8.1215,-8.2124,-8.2892,-8.3599,-8.3753,-8.405,-8.4512,-8.4512,-8.4529,-6.2753,0.0,0.0,0.0,0.0,0.0,0.0,0.0,0.0,0.0,0.0,0.0,0.0,0.0,0.0,0.0,0.0,0.0,0.0,0.0,0.0,0.0,0.0,0.0,-7.5709,-7.5709,-7.5709,-7.5709,-7.5709,-7.5709,-7.5709,-7.5709,-7.5805,-7.5933,-7.6216,-7.6587,-7.7099,-7.7772,-7.8504,-7.932,-7.9987,-8.0695,-8.1441,-8.1885,-8.2121,-8.2186,-8.2186,-8.2186,-8.2186,-8.2186,-8.2186,-8.2186,-8.2186,-8.2186,-8.2186,-8.2186,-8.2186,-8.2186,-8.2186,-8.2186,-8.2186,-8.2186,-8.2186,-8.2186,-8.2186,-8.2186,-8.2186,-8.2186,-8.2186,-8.2186,-8.2186,-8.2186,-8.2186,-8.2186,-8.2186,-8.2186,-8.2186,-8.2186,-8.2186,-8.2186,-8.2186,-8.2186,-8.2186,-8.2186,-8.2186,-8.2186,-8.2186,-8.2186,-8.2186,-8.2186,-8.2186,-8.2186,-8.2186,-8.2186,-8.2186,-8.2186,-8.2186,-8.2186,-8.2186,-8.1746,-8.0791,-8.1323,-8.1671,-8.1759,-8.2486,-8.3047,-8.3415,-8.349,-8.3763,-8.4142,-8.4193,-8.4292,0.0,0.0,0.0,0.0,0.0,0.0,0.0,0.0,0.0,0.0,0.0,0.0,0.0,0.0,0.0,0.0,0.0,0.0,0.0,0.0,0.0,0.0,0.0,-7.5709,-7.5709,-7.5709,-7.5709,-7.5709,-7.5709,-7.5709,-7.5709,-7.5709,-7.5709,-7.5709,-7.5933,-7.6216,-7.6495,-7.7099,-7.7772,-7.842,-7.9285,-8.0023,-8.0622,-8.151,-8.1952,-8.2186,-8.2186,-8.2186,-8.2186,-8.2186,-8.2186,-8.2186,-8.2186,-8.2186,-8.2186,-8.2186,-8.2186,-8.2186,-8.2186,-8.2186,-8.2186,-8.2186,-8.2186,-8.2186,-8.2186,-8.2186,-8.2186,-8.2186,-8.2186,-8.2186,-8.2186,-8.2186,-8.2186,-8.2186,-8.2186,-8.2186,-8.2186,-8.2186,-8.2186,-8.2186,-8.2186,-8.2186,-8.2186,-8.2186,-8.2186,-8.2186,-8.2186,-8.2186,-8.2186,-8.2186,-8.2186,-8.2186,-8.2186,-8.2186,-8.2186,-8.2186,-8.2186,-8.2186,-8.2186,-8.2186,-8.2186,-8.2186,-8.2251,-8.2407,-8.2407,-8.2534,-8.2843,-8.2987,-8.3106,-8.3244,-8.3415,-8.3434,0.0,0.0,0.0,0.0,0.0,0.0,0.0,0.0,0.0,0.0,0.0,0.0,0.0,0.0,0.0,0.0,0.0,0.0,0.0,0.0,0.0,0.0,-7.5709,-7.5709,-7.5709,-7.5709,-7.5709,-7.5709,-7.5709,-7.5709,-7.5709,-7.5709,-7.5709,-7.5709,-7.5805,-7.5899,-7.6216,-7.6587,-7.7099,-7.7685,-7.842,-7.924,-8.0023,-8.1126,-8.1885,-8.2186,-8.2186,-8.2186,-8.2186,-8.2186,-8.2186,-8.2186,-8.2186,-8.2186,-8.2186,-8.2186,-8.2186,-8.2186,-8.2186,-8.2186,-8.2186,-8.2186,-8.2186,-8.2186,-8.2186,-8.2186,-8.2186,-8.2186,-8.2186,-8.2186,-8.2186,-8.2186,-8.2186,-8.2186,-8.2186,-8.2186,-8.2186,-8.2186,-8.2186,-8.2186,-8.2186,-8.2186,-8.2186,-8.2186,-8.2186,-8.2186,-8.2186,-8.2186,-8.2186,-8.2186,-8.2186,-8.2186,-8.2186,-8.2186,-8.2186,-8.2186,-8.2186,-8.2186,-8.2186,-8.2186,-8.2186,-8.2186,-8.2186,-8.2251,-8.2251,-8.2316,-8.2534,-8.2534,-8.2684,-8.2987,-8.2987,-8.3106,0.0,0.0,0.0,0.0,0.0,0.0,0.0,0.0,0.0,0.0,0.0,0.0,0.0,0.0,0.0,0.0,0.0,0.0,0.0,0.0,0.0,-7.5709,-7.5709,-7.5709,-7.5709,-7.5709,-7.5709,-7.5709,-7.5709,-7.5709,-7.5709,-7.5709,-7.5709,-7.5709,-7.5709,-7.5805,-7.5899,-7.6216,-7.6587,-7.7009,-7.7685,-7.8587,-7.9715,-8.0912,-8.1683,-8.2055,-8.2055,-8.2121,-8.2186,-8.2186,-8.2186,-8.2186,-8.2186,-8.2186,-8.2186,-8.2186,-8.2186,-8.2186,-8.2186,-8.2186,-8.2186,-8.2186,-8.2186,-8.2186,-8.2186,-8.2186,-8.2186,-8.2186,-8.2186,-8.2186,-8.2186,-8.2186,-8.2186,-8.2186,-8.2186,-8.2186,-8.2186,-8.2186,-8.2186,-8.2186,-8.2186,-8.2186,-8.2186,-8.2186,-8.2186,-8.2186,-8.2186,-8.2186,-8.2186,-8.2186,-8.2186,-8.2186,-8.2186,-8.2186,-8.2186,-8.2186,-8.2186,-8.2186,-8.2186,-8.2186,-8.2186,-8.2186,-8.2186,-8.2186,-8.2186,-8.2251,-8.2279,-8.2279,-8.2407,-8.2534,-8.2534,-8.2597,0.0,0.0,0.0,0.0,0.0,0.0,0.0,0.0,0.0,0.0,0.0,0.0,0.0,0.0,0.0,0.0,0.0,0.0,0.0,0.0,-7.5709,-7.5709,-7.5709,-7.5709,-7.5709,-7.5709,-7.5709,-7.5709,-7.5709,-7.5709,-7.5709,-7.5709,-7.5709,-7.5709,-7.5709,-7.5709,-7.5709,-7.5899,-7.6216,-7.6402,-7.7099,-7.8082,-7.932,-8.0364,-8.1126,-8.1751,-8.1818,-8.1952,-8.2121,-8.2121,-8.2186,-8.2186,-8.2186,-8.2186,-8.2186,-8.2186,-8.2186,-8.2186,-8.2186,-8.2186,-8.2186,-8.2186,-8.2186,-8.2186,-8.2186,-8.2186,-8.2186,-8.2186,-8.2186,-8.2186,-8.2186,-8.2186,-8.2186,-8.2186,-8.2186,-8.2186,-8.2186,-8.2186,-8.2186,-8.2186,-8.2186,-8.2186,-8.2186,-8.2186,-8.2186,-8.2186,-8.2186,-8.2186,-8.2186,-8.2186,-8.2186,-8.2186,-8.2186,-8.2186,-8.2186,-8.2186,-8.2186,-8.2186,-8.2186,-8.2186,-8.2186,-8.2186,-8.2186,-8.2186,-8.2186,-8.2186,-8.2186,-8.2186,-8.2186,-8.2186,-8.2186,-8.2186,0.0,0.0,0.0,0.0,0.0,0.0,0.0,0.0,0.0,0.0,0.0,0.0,0.0,0.0,0.0,0.0,0.0,0.0,0.0,-7.5709,-7.5709,-7.5709,-7.5709,-7.5709,-7.5709,-7.5709,-7.5709,-7.5709,-7.5709,-7.5709,-7.5709,-7.5709,-7.5709,-7.5709,-7.5709,-7.5709,-7.5709,-7.5709,-7.5899,-7.6122,-7.6884,-7.7562,-7.8371,-7.8753,-7.9679,-8.1126,-8.1302,-8.1579,-8.1952,-8.1952,-8.2055,-8.2186,-8.2186,-8.2186,-8.2186,-8.2186,-8.2186,-8.2186,-8.2186,-8.2186,-8.2186,-8.2186,-8.2186,-8.2186,-8.2186,-8.2186,-8.2186,-8.2186,-8.2186,-8.2186,-8.2186,-8.2186,-8.2186,-8.2186,-8.2186,-8.2186,-8.2186,-8.2186,-8.2186,-8.2186,-8.2186,-8.2186,-8.2186,-8.2186,-8.2186,-8.2186,-8.2186,-8.2186,-8.2186,-8.2186,-8.2186,-8.2186,-8.2186,-8.2186,-8.2186,-8.2186,-8.2186,-8.2186,-8.2186,-8.2186,-8.2186,-8.2186,-8.2186,-8.2186,-8.2186,-8.2186,-8.2186,-8.2186,-8.2186,-8.2186,-8.2186,-8.2186,0.0,0.0,0.0,0.0,0.0,0.0,0.0,0.0,0.0,0.0,0.0,0.0,0.0,0.0,0.0,0.0,0.0,0.0,-7.5709,-7.5709,-7.5709,-7.5709,-7.5709,-7.5709,-7.5709,-7.5709,-7.5709,-7.5709,-7.5337,-7.51,-7.51,-7.4695,-7.4661,-7.5067,-7.51,-7.527,-7.5709,-7.5709,-7.5805,-7.6122,-7.6368,-7.6884,-7.7421,-7.765,-7.8682,-8.0326,-8.0548,-8.0912,-8.1372,-8.151,-8.1751,-8.2055,-8.2055,-8.2121,-8.2186,-8.2186,-8.2186,-8.2186,-8.2186,-8.2186,-8.2186,-8.2186,-8.2186,-8.2186,-8.2186,-8.2186,-8.2186,-8.2186,-8.2186,-8.2186,-8.2186,-8.2186,-8.2186,-8.2186,-8.2186,-8.2186,-8.2186,-8.2186,-8.2186,-8.2186,-8.2186,-8.2186,-8.2186,-8.2186,-8.2186,-8.2186,-8.2186,-8.2186,-8.2186,-8.2186,-8.2186,-8.2186,-8.2186,-8.2186,-8.2186,-8.2186,-8.2186,-8.2186,-8.2186,-8.2186,-8.2186,-8.2186,-8.2186,-8.2186,-8.2186,-8.2186,-8.2186,-8.2186,-8.2186,-8.2186,-8.2186,-8.2186,0.0,0.0,0.0,0.0,0.0,0.0,0.0,0.0,0.0,0.0,0.0,0.0,0.0,0.0,0.0,0.0,0.0,-7.5709,-7.5709,-7.5709,-7.5709,-7.5709,-7.5709,-7.5709,-7.5709,-7.5709,-7.5608,-7.5439,-7.4931,-7.4525,-7.4322,-7.3781,-7.3747,-7.4289,-7.4525,-7.4796,-7.5134,-7.5337,-7.5534,-7.5722,-7.5926,-7.6182,-7.6645,-7.6793,-7.7615,-7.9044,-7.9522,-8.0063,-8.0768,-8.0984,-8.1372,-8.1818,-8.1885,-8.2018,-8.2186,-8.2186,-8.2186,-8.2186,-8.2186,-8.2186,-8.2186,-8.2186,-8.2186,-8.2186,-8.2186,-8.2186,-8.2186,-8.2186,-8.2186,-8.2186,-8.2186,-8.2186,-8.2186,-8.2186,-8.2186,-8.2186,-8.2186,-8.2186,-8.2186,-8.2186,-8.2186,-8.2186,-8.2186,-8.2186,-8.2186,-8.2186,-8.2186,-8.2186,-8.2186,-8.2186,-8.2186,-8.2186,-8.2186,-8.2186,-8.2186,-8.2186,-8.2186,-8.2186,-8.2186,-8.2186,-8.2186,-8.2186,-8.2186,-8.2186,-8.2186,-8.2186,-8.2186,-8.2186,-8.2186,-8.2186,-8.2186,-8.2186,0.0,0.0,0.0,0.0,0.0,0.0,0.0,0.0,0.0,0.0,0.0,0.0,0.0,0.0,0.0,0.0,-7.5709,-7.5709,-7.5709,-7.5709,-7.5709,-7.5709,-7.5709,-7.5709,-7.5709,-7.5709,-7.5405,-7.4728,-7.4627,-7.4289,-7.3578,-7.351,-7.351,-7.3544,-7.4255,-7.4289,-7.3612,-7.4322,-7.4661,-7.4695,-7.5371,-7.5899,-7.6122,-7.6122,-7.6461,-7.7065,-7.8082,-7.9205,-8.0175,-8.04,-8.0912,-8.1647,-8.1818,-8.2018,-8.2186,-8.2186,-8.2186,-8.2186,-8.2186,-8.2186,-8.2186,-8.2186,-8.2186,-8.2186,-8.2186,-8.2186,-8.2186,-8.2186,-8.2186,-8.2186,-8.2186,-8.2186,-8.2186,-8.2186,-8.2186,-8.2186,-8.2186,-8.2186,-8.2186,-8.2186,-8.2186,-8.2186,-8.2186,-8.2186,-8.2186,-8.2186,-8.2186,-8.2186,-8.2186,-8.2186,-8.2186,-8.2186,-8.2186,-8.2186,-8.2186,-8.2186,-8.2186,-8.2186,-8.2186,-8.2186,-8.2186,-8.2186,-8.2186,-8.2186,-8.2186,-8.2186,-8.2186,-8.2186,-8.2186,-8.2186,-8.2186,-8.2186,-5.9438,0.0,0.0,0.0,0.0,0.0,0.0,0.0,0.0,0.0,0.0,0.0,0.0,0.0,0.0,-7.5709,-7.5709,-7.5709,-7.5709,-7.5709,-7.5709,-7.5709,-7.5709,-7.5709,-7.5709,-7.5709,-7.5405,-7.4661,-7.4153,-7.3578,-7.2834,-7.236,-7.2293,-7.2766,-7.3037,-7.3274,-7.3477,-7.3747,-7.4119,-7.4627,-7.4864,-7.5236,-7.5805,-7.5805,-7.5994,-7.6368,-7.6793,-7.7737,-7.8917,-7.94,-8.0099,-8.084,-8.1372,-8.1751,-8.2018,-8.2121,-8.2186,-8.2186,-8.2186,-8.2186,-8.2186,-8.2186,-8.2186,-8.2186,-8.2186,-8.2186,-8.2186,-8.2186,-8.2186,-8.2186,-8.2186,-8.2186,-8.2186,-8.2186,-8.2186,-8.2186,-8.2186,-8.2186,-8.2186,-8.2186,-8.2186,-8.2186,-8.2186,-8.2186,-8.2186,-8.2186,-8.2186,-8.2186,-8.2186,-8.2186,-8.2186,-8.2186,-8.2186,-8.2186,-8.2186,-8.2186,-8.2186,-8.2186,-8.2186,-8.2186,-8.2186,-8.2186,-8.2186,-8.2186,-8.2186,-8.2186,-8.2186,-8.2186,-8.2186,-8.2186,-8.2186,-8.2186,-5.8626,-5.9776,0.0,0.0,0.0,0.0,0.0,0.0,0.0,0.0,0.0,0.0,0.0,0.0,-7.5709,-7.5709,-7.5709,-7.5709,-7.5709,-7.5709,-7.5709,-7.5709,-7.5709,-7.5709,-7.5709,-7.5709,-7.5303,-7.4289,-7.3781,0.0,-7.209,-7.1582,-7.165,-7.2394,-7.2157,-7.2394,-7.3105,-7.3105,-7.3375,-7.3883,-7.4356,-7.4864,-7.5337,-7.5574,-7.5805,-7.6028,-7.6028,-7.6702,-7.8031,-7.8622,-7.94,-8.04,-8.0984,-8.151,-8.1885,-8.2121,-8.2186,-8.2186,-8.2186,-8.2186,-8.2186,-8.2186,-8.2186,-8.2186,-8.2186,-8.2186,-8.2186,-8.2186,-8.2186,-8.2186,-8.2186,-8.2186,-8.2186,-8.2186,-8.2186,-8.2186,-8.2186,-8.2186,-8.2186,-8.2186,-8.2186,-8.2186,-8.2186,-8.2186,-8.2186,-8.2186,-8.2186,-8.2186,-8.2186,-8.2186,-8.2186,-8.2186,-8.2186,-8.2186,-8.2186,-8.2186,-8.2186,-8.2186,-8.2186,-8.2186,-8.2186,-8.2186,-8.2186,-8.2186,-8.2186,-8.2186,-8.2186,-8.2186,-8.2186,-8.2186,-8.2186,-8.2186,0.0,0.0,0.0,0.0,0.0,0.0,0.0,0.0,0.0,0.0,0.0,0.0,0.0,-7.5134,-7.5676,-7.5676,-7.5676,-7.5709,-7.5709,-7.5709,-7.5676,-7.5676,-7.5676,-7.5676,-7.5642,-7.5642,-7.5033,-7.3578,-7.3443,-7.2834,-7.1379,-7.1312,-7.165,-7.2326,-7.1684,-7.165,-7.236,-7.236,-7.2394,-7.2428,-7.3849,-7.4559,-7.4627,-7.5337,-7.5676,-7.5709,-7.5709,-7.6334,-7.7509,-7.7945,-7.8917,-8.0099,-8.0768,-8.1372,-8.1885,-8.2121,-8.2186,-8.2186,-8.2186,-8.2186,-8.2186,-8.2186,-8.2186,-8.2186,-8.2186,-8.2186,-8.2186,-8.2186,-8.2186,-8.2186,-8.2186,-8.2186,-8.2186,-8.2186,-8.2186,-8.2186,-8.2186,-8.2186,-8.2186,-8.2186,-8.2186,-8.2186,-8.2186,-8.2186,-8.2186,-8.2186,-8.2186,-8.2186,-8.2186,-8.2186,-8.2186,-8.2186,-8.2186,-8.2186,-8.2186,-8.2186,-8.2186,-8.2186,-8.2186,-8.2186,-8.2186,-8.2186,-8.2186,-8.2186,-8.2186,-8.2186,-8.2186,-8.2186,-8.2186,-8.2186,-8.2186,-8.2186,-5.7814,0.0,0.0,0.0,0.0,0.0,0.0,0.0,0.0,0.0,0.0,0.0,-7.2157,-7.3713,-7.4897,-7.4897,-7.5337,-7.5709,-7.5709,-7.5709,-7.5506,-7.4965,-7.4897,-7.4695,-7.4153,-7.4086,-7.3713,0.0,-7.2699,-7.2293,-7.1379,-7.1312,-7.1413,-7.1616,-7.1413,-7.1413,-7.1616,-7.1616,-7.1887,-7.2394,-7.28,-7.3578,-7.4627,-7.483,-7.5202,-7.5709,-7.5709,-7.6088,-7.6828,-7.7421,-7.8336,-7.9356,-8.025,-8.0912,-8.151,-8.1885,-8.2055,-8.2186,-8.2186,-8.2186,-8.2186,-8.2186,-8.2186,-8.2186,-8.2186,-8.2186,-8.2186,-8.2186,-8.2186,-8.2186,-8.2186,-8.2186,-8.2186,-8.2186,-8.2186,-8.2186,-8.2186,-8.2186,-8.2186,-8.2186,-8.2186,-8.2186,-8.2186,-8.2186,-8.2186,-8.2186,-8.2186,-8.2186,-8.2186,-8.2186,-8.2186,-8.2186,-8.2186,-8.2186,-8.2186,-8.2186,-8.2186,-8.2186,-8.2186,-8.2186,-8.2186,-8.2186,-8.2186,-8.2186,-8.2186,-8.2186,-8.2186,-8.2186,-8.2186,-8.2186,-8.2186,-8.2186,-5.7577,-5.822,-5.8626,-5.893,0.0,0.0,-6.2347,-6.3835,0.0,0.0,0.0,-6.9992,-7.0331,-7.2191,-7.368,-7.368,-7.4559,-7.5337,-7.5676,-7.5709,-7.5439,-7.4695,-7.4627,-7.4322,-7.3544,-7.3477,-7.3172,-7.2462,-7.2394,-7.209,-7.1345,-7.1312,-7.1312,-7.1312,-7.1312,-7.1312,-7.1312,-7.1312,-7.1548,-7.1954,-7.2259,-7.2868,-7.3713,-7.4322,-7.483,-7.527,-7.5574,-7.5994,-7.6495,-7.6975,-7.7824,-7.887,-7.9715,-8.0474,-8.1126,-8.1579,-8.1885,-8.2121,-8.2186,-8.2186,-8.2186,-8.2186,-8.2186,-8.2186,-8.2186,-8.2186,-8.2186,-8.2186,-8.2186,-8.2186,-8.2186,-8.2186,-8.2186,-8.2186,-8.2186,-8.2186,-8.2186,-8.2186,-8.2186,-8.2186,-8.2186,-8.2186,-8.2186,-8.2186,-8.2186,-8.2186,-8.2186,-8.2186,-8.2186,-8.2186,-8.2186,-8.2186,-8.2186,-8.2186,-8.2186,-8.2186,-8.2186,-8.2186,-8.2186,-8.2186,-8.2186,-8.2186,-8.2186,-8.2186,-8.2186,-8.2186,-8.2186,-8.2186,-8.2186,-8.2186,-8.2186,-8.2186,-5.7679,-5.7881,-5.8051,-5.8727,-5.8964,0.0,-6.0723,-6.167,-6.2651,0.0,0.0,-6.7793,-6.8571,-7.0466,-7.1921,-7.2022,-7.3274,-7.4559,-7.5439,-7.5642,-7.5405,-7.4593,-7.4492,-7.4153,-7.3341,-7.324,-7.2969,-7.2326,-7.2293,-7.1988,-7.1345,-7.1312,-7.1312,-7.1312,-7.1312,-7.1312,-7.1312,-7.1312,-7.1312,-7.1312,-7.1954,-7.2326,-7.2462,-7.3849,-7.4525,-7.4661,-7.5371,-7.5994,-7.6495,-7.6645,-7.7386,-7.8504,-7.916,-7.9947,-8.0695,-8.1302,-8.1683,-8.1885,-8.2121,-8.2186,-8.2186,-8.2121,-8.2121,-8.2121,-8.2121,-8.2121,-8.2121,-8.2186,-8.2186,-8.2186,-8.2186,-8.2186,-8.2186,-8.2186,-8.2186,-8.2186,-8.2186,-8.2186,-8.2186,-8.2186,-8.2186,-8.2186,-8.2186,-8.2186,-8.2186,-8.2186,-8.2186,-8.2186,-8.2186,-8.2186,-8.2186,-8.2186,-8.2186,-8.2186,-8.2186,-8.2186,-8.2186,-8.2186,-8.2186,-8.2186,-8.2186,-8.2186,-8.2186,-8.2186,-8.2186,-8.2186,-8.2186,-8.2186,-8.2186,-8.2186,-8.2186,-8.2186,-5.7679,-5.7881,-5.7915,-5.8084,-5.8558,0.0,-5.9404,-6.052,-6.1772,0.0,-6.4106,-6.5459,-6.6203,-6.7692,-6.8977,-6.9654,-7.0973,-7.2631,-7.4559,-7.5337,-7.5202,-7.3849,-7.3713,-7.3172,-7.1853,-7.1751,-7.1684,-7.1548,-7.1515,-7.1447,-7.1312,-7.1312,-7.1312,-7.1312,-7.1312,-7.1312,-7.1312,-7.1312,-7.1312,-7.1312,-7.1447,-7.1853,-7.2428,-7.3308,-7.4052,-7.4661,-7.5371,-7.5899,-7.6216,-7.6216,-7.6918,-7.8066,-7.8788,-7.9479,-8.0326,-8.0912,-8.1441,-8.1885,-8.1952,-8.1952,-8.1952,-8.1751,-8.1751,-8.1751,-8.1751,-8.1751,-8.1751,-8.1885,-8.2055,-8.2186,-8.2186,-8.2186,-8.2186,-8.2186,-8.2186,-8.2186,-8.2186,-8.2186,-8.2186,-8.2186,-8.2186,-8.2186,-8.2186,-8.2186,-8.2186,-8.2186,-8.2186,-8.2186,-8.2186,-8.2186,-8.2186,-8.2186,-8.2186,-8.2186,-8.2186,-8.2186,-8.2186,-8.2186,-8.2186,-8.2186,-8.2186,-8.2186,-8.2186,-8.2186,-8.2186,-8.2186,-8.2186,-8.2186,-8.2186,-8.2186,-8.2186,-8.2186,-5.8896,-5.8998,-5.8998,-5.8998,-5.8998,0.0,0.0,-5.9756,-6.0435,-6.0883,-6.2183,-6.326,-6.3555,-6.4843,-6.6016,-6.6745,-6.8402,-7.0128,-7.165,-7.3443,-7.4187,-7.3071,-7.2935,-7.2529,-7.1413,-7.1312,-7.1312,-7.1312,-7.1312,-7.1312,-7.1312,-7.1312,-7.1312,-7.1312,-7.1312,-7.1312,-7.1312,-7.1312,-7.1312,-7.1312,-7.1312,-7.1515,-7.1887,-7.2631,-7.3341,-7.4086,-7.483,-7.5466,-7.6122,-7.6122,-7.6587,-7.7278,-7.7945,-7.867,-7.9365,-8.0139,-8.0695,-8.1196,-8.1372,-8.1441,-8.1441,-8.1372,-8.1302,-8.1302,-8.1302,-8.1372,-8.151,-8.1683,-8.1885,-8.2055,-8.2186,-8.2186,-8.2186,-8.2186,-8.2186,-8.2186,-8.2186,-8.2186,-8.2186,-8.2186,-8.2186,-8.2186,-8.2186,-8.2186,-8.2186,-8.2186,-8.2186,-8.2186,-8.2186,-8.2186,-8.2186,-8.2186,-8.2186,-8.2186,-8.2186,-8.2186,-8.2186,-8.2186,-8.2186,-8.2186,-8.2186,-8.2186,-8.2186,-8.2186,-8.2186,-8.2186,-8.2186,-8.2186,-8.2186,-8.2186,-8.2186,-8.2186,-6.0486,-6.0317,-6.0148,-6.0283,-5.9674,-5.8998,0.0,0.0,0.0,-5.9655,-6.0613,0.0,0.0,0.0,0.0,0.0,0.0,0.0,0.0,-7.0601,0.0,-7.1988,-7.1988,-7.1751,-7.1142,-7.1109,-7.1041,-7.0906,-7.1007,-7.1109,-7.1109,-7.1244,-7.1312,-7.1312,-7.1312,-7.1312,-7.1312,-7.1312,-7.1312,-7.1312,-7.1312,-7.1312,-7.1345,-7.2056,-7.2732,-7.3341,-7.4221,-7.5059,-7.5824,-7.596,-7.6122,-7.6402,-7.7189,-7.7858,-7.8504,-7.94,-7.9947,-8.0326,-8.0695,-8.0768,-8.0768,-8.0695,-8.0622,-8.0695,-8.0695,-8.0912,-8.1126,-8.1302,-8.151,-8.1751,-8.1885,-8.1989,-8.2055,-8.2055,-8.2121,-8.2121,-8.2121,-8.2186,-8.2186,-8.2186,-8.2186,-8.2186,-8.2186,-8.2186,-8.2186,-8.2186,-8.2186,-8.2186,-8.2186,-8.2186,-8.2186,-8.2186,-8.2186,-8.2186,-8.2186,-8.2186,-8.2186,-8.2186,-8.2186,-8.2186,-8.2186,-8.2186,-8.2186,-8.2186,-8.2186,-8.2186,-8.2186,-8.2186,-8.2186,-8.2186,-8.2186,-8.2186,-6.1941,-6.1129,-6.0283,-6.0994,-6.008,-5.8998,-5.9253,0.0,-5.8869,-5.9838,0.0,-6.0494,0.0,0.0,0.0,0.0,0.0,0.0,-6.6147,-6.7032,-6.8267,-7.0195,-7.0432,-7.0398,-7.0331,-7.0297,-7.006,-6.9417,-6.9958,-7.0297,-7.0297,-7.0939,-7.1312,-7.1312,-7.1312,-7.1312,-7.1312,-7.1312,-7.1312,-7.1312,-7.1312,-7.1312,-7.1345,-7.2056,-7.2462,-7.2597,-7.4018,-7.4661,-7.4796,-7.5439,-7.5805,-7.5899,-7.6918,-7.7509,-7.7996,-7.8917,-7.9479,-7.987,-7.9947,-7.9947,-7.987,-7.9479,-7.94,-7.94,-7.9637,-7.9947,-8.0326,-8.0474,-8.084,-8.1126,-8.1126,-8.1302,-8.1372,-8.1372,-8.1647,-8.1952,-8.1952,-8.2055,-8.2186,-8.2186,-8.2186,-8.2186,-8.2186,-8.2186,-8.2186,-8.2186,-8.2186,-8.2186,-8.2186,-8.2186,-8.2186,-8.2186,-8.2186,-8.2186,-8.2186,-8.2186,-8.2186,-8.2186,-8.2186,-8.2186,-8.2186,-8.2186,-8.2186,-8.2186,-8.2186,-8.2186,-8.2186,-8.2186,-8.2186,-8.2186,-8.2186,-8.2186,-6.3599,-6.2888,-6.2178,-6.2516,-6.1095,-5.9716,-6.0047,-5.9416,-5.9151,-6.0391,0.0,0.0,0.0,0.0,0.0,0.0,-6.2002,-6.2638,0.0,0.0,-6.542,-6.7895,0.0,0.0,-6.8808,-6.9282,-6.9417,-6.9113,-6.9755,-7.0195,-7.0195,-7.0906,-7.1312,-7.1312,-7.1312,-7.1312,-7.1312,-7.1312,-7.1312,-7.1312,-7.1312,-7.1312,-7.1312,-7.1616,-7.1988,-7.2428,-7.3071,-7.3815,-7.4627,-7.4931,-7.5303,-7.5805,-7.6368,-7.6736,-7.7154,-7.7737,-7.8217,-7.8469,-7.8635,-7.8635,-7.8635,-7.8469,-7.8385,-7.8385,-7.867,-7.8917,-7.9285,-7.9792,-8.0099,-8.04,-8.0622,-8.0695,-8.084,-8.0912,-8.1126,-8.1441,-8.1683,-8.1885,-8.2055,-8.2186,-8.2186,-8.2186,-8.2186,-8.2186,-8.2186,-8.2186,-8.2186,-8.2186,-8.2186,-8.2186,-8.2186,-8.2186,-8.2186,-8.2186,-8.2186,-8.2186,-8.2186,-8.2186,-8.2186,-8.2186,-8.2186,-8.2186,-8.2186,-8.2186,-8.2186,-8.2186,-8.2186,-8.2186,-8.2186,-8.2186,-8.2186,-8.2186,-6.5155,-6.4512,-6.3802,-6.3802,-6.211,-6.0495,-6.0944,-6.0144,-5.9736,-6.1107,-6.1219,0.0,0.0,0.0,-6.0909,-6.1075,0.0,-6.1603,-6.1941,-6.2084,-6.3033,-6.5372,-6.5967,0.0,0.0,-6.7692,-6.8166,-6.8166,-6.8842,-6.9451,-6.9857,-7.0601,-7.1109,-7.1312,-7.1312,-7.1312,-7.1312,-7.1312,-7.1312,-7.1312,-7.1312,-7.1312,-7.1312,-7.1312,-7.1616,-7.2124,-7.2326,-7.3138,-7.4322,-7.4525,-7.5033,-7.5709,-7.5899,-7.6122,-7.6368,-7.6884,-7.712,-7.7298,-7.7475,-7.7475,-7.7475,-7.7475,-7.7475,-7.7475,-7.7772,-7.791,-7.8217,-7.88,-7.9125,-7.9285,-7.9601,-7.9757,-7.9911,-8.0139,-8.0438,-8.084,-8.1232,-8.1441,-8.1683,-8.1818,-8.1885,-8.1952,-8.1952,-8.2121,-8.2186,-8.2186,-8.2186,-8.2186,-8.2186,-8.2186,-8.2186,-8.2186,-8.2186,-8.2186,-8.2186,-8.2186,-8.2186,-8.2186,-8.2186,-8.2186,-8.2186,-8.2186,-8.2186,-8.2186,-8.2186,-8.2186,-8.2186,-8.2186,-8.2186,-8.2186,-8.2186,-8.2186,-6.6542,0.0,0.0,-6.4546,0.0,-6.1308,-6.1729,-6.0899,-6.0601,-6.2045,-6.2581,-6.2931,-6.328,-6.3218,-6.3093,-6.303,-6.2516,0.0,0.0,-6.1215,-6.132,-6.2659,-6.3882,-6.4681,0.0,-6.5358,-6.5797,-6.5797,-6.6508,-6.7557,-6.9045,-6.9823,-7.0567,-7.1312,-7.1312,-7.1312,-7.1312,-7.1312,-7.1312,-7.1312,-7.1312,-7.1312,-7.1312,-7.1312,-7.1312,-7.1379,-7.209,-7.2834,-7.3578,-7.4322,-7.5033,-7.5709,-7.5709,-7.5709,-7.5805,-7.6519,-7.6793,-7.6793,-7.6793,-7.6736,-7.6587,-7.6587,-7.6587,-7.6587,-7.6793,-7.694,-7.7175,-7.7475,-7.7702,-7.7875,-7.791,-7.8252,-7.8587,-7.88,-7.9522,-8.0175,-8.04,-8.0768,-8.1055,-8.1055,-8.1232,-8.1372,-8.1372,-8.1818,-8.2186,-8.2186,-8.2186,-8.2186,-8.2186,-8.2186,-8.2186,-8.2186,-8.2186,-8.2186,-8.2186,-8.2186,-8.2186,-8.2186,-8.2186,-8.2186,-8.2186,-8.2186,-8.2186,-8.2186,-8.2186,-8.2186,-8.2186,-8.2186,-8.2186,-8.2186,-8.2186,-8.2186,0.0,0.0,-6.6068,-6.6068,0.0,0.0,-6.2319,-6.1615,-6.1361,-6.3136,-6.3225,-6.3293,-6.4579,-6.4001,-6.3111,-6.2489,-6.2004,-6.1441,0.0,-5.9771,-5.9473,-6.0197,-6.1985,-6.3125,-6.3125,-6.4241,-6.4952,-6.4952,-6.5969,-6.6828,-6.7334,-6.8897,-6.994,-7.0266,-7.0771,-7.1131,-7.1312,-7.1312,-7.1312,-7.1312,-7.1312,-7.1312,-7.1312,-7.1312,-7.1312,-7.1312,-7.1582,-7.236,-7.351,-7.3747,-7.4593,-7.5709,-7.5709,-7.5709,-7.5709,-7.596,-7.6054,-7.6054,-7.6054,-7.5994,-7.5994,-7.5994,-7.5994,-7.5994,-7.6275,-7.6368,-7.6519,-7.6884,-7.7065,-7.7209,-7.7333,-7.7509,-7.7772,-7.8116,-7.8504,-7.8998,-7.9637,-8.0023,-8.0326,-8.0548,-8.0695,-8.0768,-8.0912,-8.1055,-8.1372,-8.1885,-8.2121,-8.2186,-8.2186,-8.2186,-8.2186,-8.2186,-8.2186,-8.2186,-8.2186,-8.2186,-8.2186,-8.2186,-8.2055,-8.1952,-8.1952,-8.1885,-8.1818,-8.1818,-8.1647,-8.1579,-8.1579,-8.1441,-8.1441,-8.1441,-8.151,-8.1818,-6.9026,-6.8368,0.0,-6.7286,-6.5358,0.0,-6.3804,-6.3,-6.266,-6.4377,-6.4428,-6.4485,-6.5428,-6.5019,-6.4108,-6.2631,-6.2167,-6.133,0.0,-5.8875,-5.8518,-5.8632,-6.0148,-6.1298,-6.1535,-6.2685,-6.3531,-6.3802,-6.4705,-6.5665,-6.6473,-6.7858,-6.8908,-6.9501,-7.0147,-7.0641,-7.095,-7.095,-7.1041,-7.1131,-7.1131,-7.1222,-7.1312,-7.1312,-7.1312,-7.1312,-7.1312,-7.2157,-7.3477,-7.3477,-7.4356,-7.5709,-7.5709,-7.5709,-7.5709,-7.5709,-7.5709,-7.5709,-7.5709,-7.5709,-7.5709,-7.5709,-7.5709,-7.5709,-7.5899,-7.5899,-7.5994,-7.6334,-7.6427,-7.6427,-7.6611,-7.6736,-7.6918,-7.7278,-7.7597,-7.7996,-7.867,-7.8963,-7.9205,-7.9408,-7.9601,-7.9757,-7.9911,-8.0139,-8.0622,-8.1441,-8.1683,-8.1818,-8.1885,-8.1885,-8.1952,-8.2055,-8.2121,-8.2121,-8.2186,-8.2121,-8.2121,-8.2121,-8.1818,-8.1683,-8.1683,-8.1441,-8.1302,-8.1302,-8.1055,-8.0984,-8.0984,-8.084,-8.0768,-8.0768,-8.0912,-8.1232]}]]